[[{"header":{"parameterUnit":"m.s-1","parameterCategory":1,"la1":30.6,"la2":29.2853,"lo1":-89.7004,"lo2":-87.6739,"dy":0.0162,"dx":0.0183,"nx":112,"ny":82,"refTime":"2025-04-22T06:00:00:Z","depth":0,"parameterNumber":2,"parameterNumberName":"U-component_of_WINDS"},"data":[0.0,0.0,0.0,0.0,0.0,0.0,0.0,0.0,0.0,0.0,0.0,0.0,0.0,0.0,0.0,0.0,0.0,0.0,0.0,0.0,0.0,0.0,0.0,0.0,0.0,0.0,0.0,0.0,0.0,0.0,0.0,0.0,0.0,0.0,0.0,0.0,0.0,0.0,0.0,0.0,0.0,0.0,0.0,0.0,0.0,0.0,0.0,0.0,0.0,0.0,0.0,0.0,0.0,0.0,0.0,0.0,0.0,0.0,0.0,0.0,0.0,0.0,0.0,0.0,0.0,0.0,0.0,0.0,0.0,0.0,0.0,0.0,0.0,0.0,0.0,0.0,0.0,0.0,0.0,0.0,0.0,0.0,0.0,0.0,0.0,0.0,0.0,0.0,0.0,0.0,-2.7509,-3.0753,-3.3545,-3.5124,-3.498,-3.3429,-3.0881,-2.7138,0.0,0.0,0.0,0.0,0.0,0.0,0.0,0.0,0.0,0.0,0.0,0.0,0.0,0.0,0.0,0.0,0.0,0.0,0.0,0.0,0.0,0.0,0.0,0.0,0.0,0.0,0.0,0.0,0.0,0.0,0.0,0.0,0.0,0.0,0.0,0.0,0.0,0.0,0.0,0.0,0.0,0.0,0.0,0.0,0.0,0.0,0.0,0.0,0.0,0.0,0.0,0.0,0.0,0.0,0.0,0.0,0.0,0.0,0.0,0.0,0.0,0.0,0.0,0.0,0.0,0.0,0.0,0.0,0.0,0.0,0.0,0.0,0.0,0.0,0.0,0.0,0.0,0.0,0.0,0.0,0.0,0.0,0.0,0.0,0.0,0.0,0.0,0.0,0.0,0.0,0.0,0.0,0.0,0.0,0.0,0.0,0.0,0.0,0.0,0.0,0.0,0.0,0.0,0.0,-2.9334,-3.5381,-3.6519,-3.6779,-3.6658,-3.5601,-3.2641,-2.7248,0.0,0.0,0.0,0.0,0.0,0.0,0.0,0.0,0.0,0.0,0.0,0.0,0.0,0.0,0.0,0.0,0.0,0.0,0.0,0.0,0.0,0.0,0.0,0.0,0.0,0.0,0.0,0.0,0.0,0.0,0.0,0.0,0.0,0.0,0.0,0.0,0.0,0.0,0.0,0.0,0.0,0.0,0.0,0.0,0.0,0.0,0.0,0.0,0.0,0.0,0.0,0.0,0.0,0.0,0.0,0.0,0.0,0.0,0.0,0.0,0.0,0.0,0.0,0.0,0.0,0.0,0.0,0.0,0.0,0.0,0.0,0.0,0.0,0.0,0.0,0.0,0.0,0.0,0.0,0.0,0.0,0.0,0.0,0.0,0.0,0.0,0.0,0.0,0.0,0.0,0.0,0.0,0.0,0.0,0.0,0.0,0.0,0.0,0.0,0.0,0.0,0.0,0.0,-2.8106,-3.1827,-3.7127,-3.6911,-3.6531,-3.6857,-3.5535,-3.2593,-2.7709,-2.5882,0.0,0.0,0.0,0.0,0.0,0.0,0.0,0.0,0.0,0.0,0.0,0.0,0.0,0.0,0.0,0.0,0.0,0.0,0.0,0.0,0.0,0.0,0.0,0.0,0.0,0.0,0.0,0.0,0.0,0.0,0.0,0.0,0.0,0.0,0.0,0.0,0.0,0.0,0.0,0.0,0.0,0.0,0.0,0.0,0.0,0.0,0.0,0.0,0.0,0.0,0.0,0.0,0.0,0.0,0.0,0.0,0.0,0.0,0.0,0.0,0.0,0.0,0.0,0.0,0.0,0.0,0.0,0.0,0.0,0.0,0.0,0.0,0.0,0.0,0.0,0.0,0.0,0.0,0.0,0.0,0.0,0.0,0.0,0.0,0.0,0.0,0.0,0.0,0.0,0.0,0.0,0.0,0.0,0.0,0.0,0.0,0.0,0.0,0.0,0.0,0.0,0.0,-3.0666,-3.3795,-3.7772,-3.7024,-3.6384,-3.6746,-3.5069,-3.2164,-2.7816,-2.5825,0.0,0.0,0.0,0.0,0.0,0.0,0.0,0.0,0.0,0.0,0.0,0.0,0.0,0.0,0.0,0.0,0.0,0.0,0.0,0.0,0.0,0.0,0.0,0.0,0.0,0.0,0.0,0.0,0.0,0.0,0.0,0.0,0.0,0.0,0.0,0.0,0.0,0.0,0.0,0.0,0.0,0.0,0.0,0.0,0.0,0.0,0.0,0.0,0.0,0.0,0.0,0.0,0.0,0.0,0.0,0.0,0.0,0.0,0.0,0.0,0.0,0.0,0.0,0.0,0.0,0.0,0.0,0.0,0.0,0.0,0.0,0.0,0.0,0.0,0.0,0.0,0.0,0.0,0.0,0.0,0.0,0.0,0.0,0.0,0.0,0.0,0.0,0.0,0.0,0.0,0.0,0.0,0.0,0.0,0.0,0.0,0.0,0.0,0.0,0.0,0.0,0.0,-3.1133,-3.4348,-3.7828,-3.7978,-3.754,-3.6768,-3.5093,-3.1997,-2.7085,-2.4457,0.0,0.0,0.0,0.0,0.0,0.0,0.0,0.0,0.0,0.0,0.0,0.0,0.0,0.0,0.0,0.0,0.0,0.0,0.0,0.0,0.0,0.0,0.0,0.0,0.0,0.0,0.0,0.0,0.0,0.0,0.0,0.0,0.0,0.0,0.0,0.0,0.0,0.0,0.0,0.0,0.0,0.0,0.0,0.0,0.0,0.0,0.0,0.0,0.0,0.0,0.0,0.0,0.0,0.0,0.0,0.0,0.0,0.0,0.0,0.0,0.0,0.0,0.0,0.0,0.0,0.0,0.0,0.0,0.0,0.0,0.0,0.0,0.0,0.0,0.0,0.0,0.0,0.0,0.0,0.0,0.0,0.0,0.0,0.0,0.0,0.0,0.0,0.0,0.0,0.0,0.0,0.0,0.0,0.0,0.0,0.0,0.0,0.0,0.0,0.0,0.0,0.0,-3.2347,-3.5436,-3.7822,-3.7986,-3.7551,-3.6587,-3.5298,-3.2227,-2.6779,0.0,0.0,0.0,0.0,0.0,0.0,0.0,0.0,0.0,0.0,0.0,0.0,0.0,0.0,0.0,0.0,0.0,0.0,0.0,0.0,0.0,0.0,0.0,0.0,0.0,0.0,0.0,0.0,0.0,0.0,0.0,0.0,0.0,0.0,0.0,0.0,0.0,0.0,0.0,0.0,0.0,0.0,0.0,0.0,0.0,0.0,0.0,0.0,0.0,0.0,0.0,0.0,0.0,0.0,0.0,0.0,0.0,0.0,0.0,0.0,0.0,0.0,0.0,0.0,0.0,0.0,0.0,0.0,0.0,0.0,0.0,0.0,0.0,0.0,0.0,0.0,0.0,0.0,0.0,0.0,0.0,0.0,0.0,0.0,0.0,0.0,0.0,0.0,0.0,0.0,0.0,0.0,0.0,0.0,0.0,0.0,0.0,0.0,0.0,0.0,0.0,0.0,-2.9411,-3.3204,-3.6298,-3.7772,-3.8081,-3.7697,-3.6472,-3.5168,-3.2105,-2.6645,0.0,0.0,0.0,0.0,0.0,0.0,0.0,0.0,0.0,0.0,0.0,0.0,0.0,0.0,0.0,0.0,0.0,0.0,0.0,0.0,0.0,0.0,0.0,0.0,0.0,0.0,0.0,0.0,0.0,0.0,0.0,0.0,0.0,0.0,0.0,0.0,0.0,0.0,0.0,0.0,0.0,0.0,0.0,0.0,0.0,0.0,0.0,0.0,0.0,0.0,0.0,0.0,0.0,0.0,0.0,0.0,0.0,0.0,0.0,0.0,0.0,0.0,0.0,0.0,0.0,0.0,0.0,0.0,0.0,0.0,0.0,0.0,0.0,0.0,0.0,0.0,0.0,0.0,0.0,0.0,0.0,0.0,0.0,0.0,0.0,0.0,0.0,0.0,0.0,0.0,0.0,0.0,0.0,0.0,0.0,0.0,0.0,0.0,0.0,0.0,0.0,0.0,-2.9276,-3.3586,-3.6833,-3.7692,-3.8379,-3.8099,-3.6446,-3.4639,-3.1518,0.0,0.0,0.0,0.0,0.0,0.0,0.0,0.0,0.0,0.0,0.0,0.0,0.0,0.0,0.0,0.0,0.0,0.0,0.0,0.0,0.0,0.0,0.0,0.0,0.0,0.0,0.0,0.0,0.0,0.0,0.0,0.0,0.0,0.0,0.0,0.0,0.0,0.0,0.0,0.0,0.0,0.0,0.0,0.0,0.0,0.0,0.0,0.0,0.0,0.0,0.0,0.0,0.0,0.0,0.0,0.0,0.0,0.0,0.0,0.0,0.0,0.0,0.0,0.0,0.0,0.0,0.0,0.0,0.0,0.0,0.0,0.0,0.0,0.0,0.0,0.0,0.0,0.0,0.0,0.0,0.0,0.0,0.0,0.0,0.0,0.0,0.0,0.0,0.0,0.0,0.0,0.0,0.0,0.0,0.0,0.0,0.0,0.0,0.0,0.0,0.0,0.0,0.0,-2.9148,-3.2958,-3.58,-3.6587,-3.7323,-3.7289,-3.6178,-3.496,-3.2386,-2.8054,0.0,0.0,0.0,0.0,0.0,0.0,0.0,0.0,0.0,0.0,0.0,0.0,0.0,0.0,0.0,0.0,0.0,0.0,0.0,0.0,0.0,0.0,0.0,0.0,0.0,0.0,0.0,0.0,0.0,0.0,0.0,0.0,0.0,0.0,0.0,0.0,0.0,0.0,0.0,0.0,0.0,0.0,0.0,0.0,0.0,0.0,0.0,0.0,0.0,0.0,0.0,0.0,0.0,0.0,0.0,0.0,0.0,0.0,0.0,0.0,0.0,0.0,0.0,0.0,0.0,0.0,0.0,0.0,0.0,0.0,0.0,0.0,0.0,0.0,0.0,0.0,0.0,0.0,0.0,0.0,0.0,0.0,0.0,0.0,0.0,0.0,0.0,0.0,0.0,0.0,0.0,0.0,0.0,0.0,0.0,0.0,0.0,0.0,0.0,0.0,0.0,0.0,-2.8941,-3.2568,-3.5292,-3.6007,-3.6796,-3.6915,-3.6036,-3.5362,-3.3253,-2.9188,0.0,0.0,0.0,0.0,0.0,0.0,0.0,0.0,0.0,0.0,0.0,0.0,0.0,0.0,0.0,0.0,0.0,0.0,0.0,0.0,0.0,0.0,0.0,0.0,0.0,0.0,0.0,0.0,0.0,0.0,0.0,0.0,0.0,0.0,0.0,0.0,0.0,0.0,0.0,0.0,0.0,0.0,0.0,0.0,0.0,0.0,0.0,0.0,0.0,0.0,0.0,0.0,0.0,0.0,0.0,0.0,0.0,0.0,0.0,0.0,0.0,0.0,0.0,0.0,0.0,0.0,0.0,0.0,0.0,0.0,0.0,0.0,0.0,0.0,0.0,0.0,0.0,0.0,0.0,0.0,0.0,0.0,0.0,0.0,0.0,0.0,0.0,0.0,0.0,0.0,0.0,0.0,0.0,0.0,0.0,0.0,0.0,0.0,0.0,0.0,0.0,0.0,-2.8725,-3.2412,-3.5144,-3.5799,-3.663,-3.681,-3.5947,-3.5736,-3.4014,-3.0161,0.0,0.0,0.0,0.0,0.0,0.0,0.0,0.0,0.0,0.0,0.0,0.0,0.0,0.0,0.0,0.0,0.0,0.0,0.0,0.0,0.0,0.0,0.0,0.0,0.0,0.0,0.0,0.0,0.0,0.0,0.0,0.0,0.0,0.0,0.0,0.0,0.0,0.0,0.0,0.0,0.0,0.0,0.0,0.0,0.0,0.0,0.0,0.0,0.0,0.0,0.0,0.0,0.0,0.0,0.0,0.0,0.0,0.0,0.0,0.0,-2.0486,-1.9127,0.0,0.0,0.0,0.0,0.0,0.0,0.0,0.0,0.0,0.0,0.0,0.0,0.0,0.0,0.0,0.0,0.0,0.0,0.0,0.0,0.0,0.0,0.0,0.0,0.0,0.0,0.0,0.0,0.0,0.0,0.0,0.0,0.0,0.0,0.0,0.0,0.0,0.0,0.0,0.0,-2.8789,-3.2315,-3.4909,-3.5578,-3.6342,-3.6471,-3.5643,-3.5476,-3.4277,-3.1668,-2.9987,0.0,0.0,0.0,0.0,0.0,0.0,0.0,0.0,0.0,0.0,0.0,0.0,0.0,0.0,0.0,0.0,0.0,0.0,0.0,0.0,0.0,0.0,0.0,0.0,0.0,0.0,0.0,0.0,0.0,0.0,0.0,0.0,0.0,0.0,0.0,0.0,0.0,0.0,0.0,0.0,0.0,0.0,0.0,0.0,0.0,0.0,0.0,0.0,0.0,0.0,0.0,0.0,0.0,0.0,0.0,0.0,0.0,0.0,0.0,-2.3203,-2.1908,0.0,0.0,0.0,0.0,0.0,0.0,0.0,0.0,0.0,0.0,0.0,0.0,0.0,0.0,0.0,0.0,0.0,0.0,0.0,0.0,0.0,0.0,0.0,0.0,0.0,0.0,0.0,0.0,0.0,0.0,0.0,0.0,0.0,0.0,0.0,0.0,0.0,0.0,0.0,0.0,-2.9235,-3.2636,-3.5233,-3.5993,-3.6085,-3.5908,-3.5495,-3.5324,-3.4594,-3.3064,-3.1786,0.0,0.0,0.0,0.0,0.0,0.0,0.0,0.0,0.0,0.0,0.0,0.0,0.0,0.0,0.0,0.0,0.0,0.0,0.0,0.0,0.0,0.0,0.0,0.0,0.0,0.0,0.0,0.0,0.0,0.0,0.0,0.0,0.0,0.0,0.0,0.0,0.0,0.0,0.0,0.0,0.0,0.0,0.0,0.0,0.0,0.0,0.0,0.0,0.0,0.0,0.0,0.0,0.0,-2.5785,-2.617,-2.6933,-2.6943,-2.7378,-2.8045,-2.6144,-2.5181,-2.4852,-2.4077,0.0,0.0,0.0,0.0,0.0,0.0,0.0,0.0,0.0,0.0,0.0,0.0,0.0,0.0,0.0,0.0,0.0,0.0,0.0,0.0,0.0,0.0,-2.9871,-3.0912,-3.1679,-3.1475,-2.8828,0.0,0.0,0.0,0.0,0.0,0.0,0.0,0.0,0.0,0.0,0.0,-2.9901,-3.3224,-3.5771,-3.6486,-3.6075,-3.5612,-3.5361,-3.5364,-3.4973,-3.4079,-3.352,-3.2637,0.0,0.0,0.0,0.0,0.0,0.0,0.0,0.0,0.0,0.0,0.0,0.0,0.0,0.0,0.0,0.0,0.0,0.0,0.0,0.0,0.0,0.0,0.0,0.0,0.0,0.0,0.0,0.0,0.0,0.0,0.0,0.0,-2.0368,-2.0795,0.0,0.0,0.0,0.0,0.0,0.0,0.0,0.0,0.0,0.0,0.0,0.0,0.0,-2.6811,-2.8905,-2.8409,-2.8512,-2.9168,-2.8652,-2.8755,-2.9426,-2.9484,-2.9946,-3.0693,-3.0396,0.0,-2.8134,-2.7446,0.0,0.0,0.0,0.0,0.0,0.0,0.0,0.0,0.0,0.0,0.0,0.0,0.0,0.0,0.0,0.0,0.0,0.0,0.0,0.0,0.0,0.0,-3.2517,-3.4089,-3.493,-3.5294,-3.4942,-3.1435,-2.8376,-2.8336,-2.6995,-2.5575,0.0,0.0,0.0,0.0,0.0,0.0,-3.0729,-3.4038,-3.6292,-3.6399,-3.6807,-3.6502,-3.5155,-3.5616,-3.5456,-3.4248,-3.4103,-3.4042,-3.3986,-3.2649,0.0,0.0,0.0,0.0,0.0,0.0,0.0,0.0,0.0,0.0,0.0,0.0,0.0,0.0,0.0,0.0,0.0,0.0,0.0,0.0,0.0,0.0,0.0,0.0,0.0,0.0,0.0,0.0,0.0,-2.1134,-2.2102,-2.2905,-2.164,-2.0796,0.0,0.0,0.0,0.0,0.0,0.0,0.0,0.0,0.0,-2.811,-2.873,-2.935,-2.9944,-2.9598,-2.9337,-2.9183,-2.9368,-2.9642,-2.9975,-3.0456,-3.1107,-3.1878,-3.1878,-3.1732,-3.1412,-3.0277,-2.9288,-2.8333,0.0,0.0,0.0,0.0,-2.5757,-2.6339,-2.6402,-2.6892,-2.7325,-2.6456,0.0,0.0,0.0,0.0,0.0,0.0,0.0,-2.9235,-3.1235,-3.3176,-3.483,-3.5598,-3.5915,-3.6042,-3.6042,-3.4381,-3.2584,-3.1579,-3.1161,-3.0387,-2.8613,-2.8327,0.0,0.0,0.0,-3.1826,-3.2527,-3.503,-3.6765,-3.6784,-3.6583,-3.6209,-3.5612,-3.5897,-3.5633,-3.4553,-3.462,-3.4542,-3.418,-3.3116,-3.1497,0.0,0.0,0.0,0.0,0.0,0.0,0.0,0.0,0.0,0.0,0.0,0.0,0.0,0.0,0.0,0.0,0.0,0.0,0.0,0.0,0.0,0.0,0.0,0.0,0.0,0.0,0.0,0.0,-2.3194,-2.419,-2.5045,-2.4054,-2.3526,0.0,0.0,0.0,0.0,0.0,0.0,-2.6903,-2.8788,-3.0035,-3.0443,-3.1162,-3.1237,-3.0628,-3.0363,-2.9906,-2.9286,-2.9699,-3.0233,-3.0891,-3.1505,-3.222,-3.2956,-3.2984,-3.3217,-3.3482,-3.2193,-3.1272,-3.06,-2.9933,-2.9294,-2.8764,-2.8887,-2.9324,-2.9911,-3.0283,-3.0826,-3.1225,-3.0382,-3.0189,-3.0061,-2.8895,0.0,0.0,0.0,0.0,-3.2322,-3.3425,-3.5087,-3.6479,-3.6552,-3.6555,-3.6555,-3.6539,-3.6476,-3.5908,-3.428,-3.4449,-3.4186,-3.2085,-3.1909,0.0,-3.1492,-3.284,-3.3947,-3.4092,-3.5785,-3.7009,-3.7011,-3.6443,-3.602,-3.5921,-3.6193,-3.5912,-3.4832,-3.4978,-3.4728,-3.3912,-3.3246,-3.2016,-3.0168,0.0,0.0,0.0,0.0,0.0,0.0,0.0,0.0,0.0,0.0,0.0,0.0,0.0,0.0,0.0,0.0,0.0,0.0,0.0,0.0,0.0,0.0,0.0,0.0,0.0,0.0,0.0,0.0,0.0,-2.687,-2.7007,0.0,0.0,0.0,0.0,-2.7639,-2.8455,-2.9384,-3.0485,-3.0728,-3.126,-3.2238,-3.2373,-3.2373,-3.2288,-3.1521,-3.1055,-3.0871,-3.0218,-3.107,-3.3227,-3.3335,-3.3793,-3.4495,-3.457,-3.4182,-3.3451,-3.2734,-3.2444,-3.2399,-3.1586,-3.1293,-3.1311,-3.1182,-3.1592,-3.2119,-3.1243,-3.145,-3.1931,-3.1188,-3.1112,-3.1298,-3.115,-3.1138,0.0,0.0,-3.3533,-3.3996,-3.5763,-3.6685,-3.7174,-3.7217,-3.7533,-3.7843,-3.7959,-3.7736,-3.713,-3.5735,-3.5514,-3.5197,-3.4123,0.0,-3.2876,-3.2883,-3.3473,-3.4142,-3.4854,-3.6156,-3.695,-3.6829,-3.6794,-3.6479,-3.5782,-3.6535,-3.6458,-3.5066,-3.5066,-3.4711,-3.3844,-3.3213,-3.2718,-3.2348,-3.1849,0.0,0.0,0.0,0.0,0.0,0.0,0.0,0.0,0.0,0.0,0.0,0.0,0.0,0.0,0.0,0.0,0.0,0.0,0.0,0.0,0.0,0.0,0.0,0.0,0.0,0.0,0.0,0.0,-2.8773,-2.8457,0.0,-2.8863,-2.8467,-2.8594,-2.96,-3.041,-3.1082,-3.1611,-3.2159,-3.2669,-3.3168,-3.325,-3.2738,-3.1644,-3.1334,-3.0873,-3.0237,-3.1012,-3.2099,-3.3411,-3.3966,-3.435,-3.457,-3.4093,-3.3709,-3.3419,-3.3211,-3.3214,-3.3268,-3.2988,-3.2918,-3.2983,-3.3016,-3.3088,-3.3131,-3.2935,-3.2931,-3.298,-3.2798,-3.3145,-3.3634,-3.357,-3.3963,-3.4521,-3.5006,-3.5564,-3.6168,-3.6813,-3.7364,-3.7701,-3.7682,-3.7629,-3.7595,-3.765,-3.7631,-3.7434,-3.6881,-3.6756,-3.6488,-3.5651,-3.5563,-3.5633,-3.5741,-3.5772,-3.5848,-3.6068,-3.6437,-3.6687,-3.6725,-3.6647,-3.6545,-3.6424,-3.6792,-3.6167,-3.4091,-3.4956,-3.4516,-3.2226,-3.291,-3.2592,-3.0979,-3.0391,-2.9219,0.0,0.0,0.0,0.0,0.0,0.0,0.0,0.0,0.0,0.0,0.0,0.0,0.0,0.0,0.0,0.0,0.0,0.0,0.0,0.0,0.0,0.0,0.0,0.0,0.0,-2.7724,-2.9003,-2.9769,-2.9923,-3.0263,-3.1109,-3.0759,-3.0624,-3.0984,-3.1775,-3.2203,-3.2087,-3.2903,-3.3452,-3.3633,-3.3442,-3.2783,-3.1626,-3.1313,-3.1093,-3.0961,-3.1747,-3.2816,-3.4135,-3.4708,-3.4814,-3.4542,-3.432,-3.39,-3.3393,-3.3452,-3.3534,-3.3611,-3.3378,-3.3336,-3.338,-3.3195,-3.2986,-3.2853,-3.3177,-3.3354,-3.3488,-3.3919,-3.441,-3.4918,-3.5137,-3.5593,-3.6082,-3.6282,-3.6783,-3.7301,-3.7588,-3.7804,-3.7914,-3.7878,-3.7578,-3.721,-3.702,-3.7179,-3.7246,-3.698,-3.702,-3.6968,-3.6627,-3.6694,-3.6885,-3.7166,-3.7007,-3.6829,-3.6705,-3.6643,-3.6585,-3.6564,-3.6582,-3.6606,-3.6748,-3.6379,-3.5386,-3.3562,-3.4421,-3.3703,-3.0848,-3.2266,-3.2142,-3.0072,-2.9746,-2.8871,-2.7405,0.0,0.0,0.0,0.0,0.0,0.0,0.0,0.0,0.0,0.0,0.0,0.0,0.0,0.0,0.0,0.0,0.0,0.0,0.0,0.0,0.0,0.0,0.0,-2.5745,-2.7911,-2.9608,-2.9775,-3.1453,-3.2635,-3.2813,-3.291,-3.2652,-3.1861,-3.2606,-3.2808,-3.2173,-3.3006,-3.353,-3.3648,-3.2983,-3.2535,-3.2361,-3.1556,-3.185,-3.3187,-3.2445,-3.3296,-3.5527,-3.5622,-3.5257,-3.4573,-3.5374,-3.4826,-3.3393,-3.3393,-3.3437,-3.3433,-3.2789,-3.2572,-3.2546,-3.1763,-3.1393,-3.1359,-3.1952,-3.2675,-3.3503,-3.4395,-3.4772,-3.5013,-3.58,-3.5991,-3.6108,-3.6966,-3.7135,-3.7267,-3.8093,-3.803,-3.7756,-3.7756,-3.7356,-3.6837,-3.6325,-3.6524,-3.6641,-3.6135,-3.6274,-3.6613,-3.7025,-3.6605,-3.6394,-3.6923,-3.6987,0.0,-3.6722,-3.6748,-3.667,-3.6343,-3.6523,-3.6681,-3.6702,-3.537,-3.4261,-3.3582,-3.3509,-3.2423,-3.0002,-3.1428,-3.155,-2.9976,-3.0221,-2.9907,-2.8986,0.0,0.0,0.0,0.0,0.0,0.0,0.0,0.0,0.0,0.0,0.0,0.0,0.0,0.0,0.0,0.0,0.0,0.0,0.0,0.0,0.0,-2.483,-2.6,-2.7232,-2.9128,-3.03,-3.0108,-3.1158,-3.172,-3.1339,-3.1894,-3.2173,-3.1972,-3.2627,-3.2999,-3.297,-3.3211,-3.3154,-3.2707,-3.3145,-3.2761,-3.146,-3.2434,-3.3009,-3.3205,-3.3622,-3.4711,-3.6353,-3.5299,-3.5006,-3.5243,-3.4416,-3.381,-3.3393,-3.3393,-3.3408,-3.3419,-3.334,-3.3328,-3.3378,-3.3158,-3.2999,-3.2971,-3.3063,-3.3662,-3.4433,-3.4695,-3.5563,-3.658,-3.6755,-3.6778,-3.6817,-3.7003,-3.6656,-3.6272,-3.6461,-3.6585,-3.6631,-3.6576,-3.6587,-3.6597,-3.6452,-3.6571,-3.6713,-3.6589,-3.6295,-3.623,-3.679,-3.6755,-3.6685,-3.6834,-3.6728,-3.6626,-3.6564,-3.6485,-3.6444,-3.6444,-3.6423,-3.6444,-3.6544,-3.6165,-3.5387,-3.4086,-3.5118,-3.472,-3.2351,-3.3351,-3.295,-3.0878,-2.9878,-2.9208,0.0,0.0,0.0,0.0,0.0,0.0,0.0,0.0,0.0,0.0,0.0,0.0,0.0,0.0,0.0,0.0,0.0,0.0,0.0,0.0,0.0,0.0,-2.5463,-2.6708,-2.7998,-2.9334,-3.0248,-3.0546,-3.1425,-3.1918,-3.1691,-3.2158,-3.2343,-3.2035,-3.3042,-3.3396,-3.2841,-3.3497,-3.3419,-3.2365,-3.2871,-3.2671,-3.1615,-3.2542,-3.3404,-3.4186,-3.4317,-3.5151,-3.6538,-3.5776,-3.5465,-3.5519,-3.4744,-3.4208,-3.3882,-3.3538,-3.3393,-3.339,0.0,0.0,0.0,0.0,-3.2761,-3.3019,-3.3335,-3.3992,-3.4788,-3.5536,-3.6391,-3.7162,-3.739,-3.7517,-3.7533,-3.7451,-3.714,-3.6844,-3.6832,-3.6752,-3.6682,-3.6663,-3.6578,-3.6437,-3.6171,-3.638,-3.6539,-3.6289,-3.6234,0.0,-3.662,-3.6531,-3.6503,-3.6716,-3.6664,-3.6564,-3.6502,-3.6482,-3.6482,-3.6502,-3.6482,-3.6502,-3.6582,-3.5992,0.0,0.0,0.0,-3.5099,-3.3687,-3.3594,0.0,0.0,0.0,0.0,0.0,0.0,0.0,0.0,-2.9912,-3.0165,0.0,0.0,0.0,0.0,0.0,0.0,0.0,0.0,0.0,0.0,0.0,0.0,0.0,0.0,0.0,0.0,-2.6621,-2.7876,-2.8356,-2.9128,-3.0007,-3.0903,-3.189,-3.2561,-3.2729,-3.2893,-3.2739,-3.2205,-3.3575,-3.3873,-3.26,-3.3908,0.0,0.0,0.0,-3.2702,-3.2447,-3.2577,-3.359,-3.5491,-3.4725,-3.511,-3.6542,-3.6448,-3.6084,-3.5491,-3.5491,-3.5139,-3.4503,-3.3707,-3.3364,-3.3306,-3.269,-3.2456,-3.242,-3.1638,-3.1791,-3.2481,-3.3263,0.0,0.0,-3.659,-3.7098,-3.7216,-3.7836,-3.8016,-3.803,-3.7927,-3.7906,-3.7937,-3.7937,-3.7613,-3.727,-3.727,-3.6882,-3.6336,-3.5821,-3.6122,-3.6312,-3.5717,-3.6191,-3.6643,-3.6523,-3.6197,-3.6124,-3.658,-3.6643,-3.6602,-3.6482,-3.6582,-3.6602,-3.6502,0.0,0.0,-3.6643,-3.5389,-3.4608,-3.4608,-3.4644,-3.4573,-3.4395,-3.3242,-3.2581,-3.2509,-3.3459,-3.3988,-3.4057,-3.5011,-3.5214,-3.4632,-3.3707,-3.3771,0.0,0.0,0.0,0.0,0.0,0.0,0.0,0.0,0.0,0.0,0.0,0.0,0.0,0.0,0.0,-2.523,-2.6672,-2.8044,-2.8972,-3.0384,-3.1098,-3.0454,-3.1209,-3.1627,-3.126,-3.1825,-3.2475,-3.3074,-3.3295,-3.3906,-3.5099,-3.4872,-3.4634,-3.4503,-3.5182,-3.4828,-3.3364,-3.4615,-3.5341,-3.5491,-3.5331,0.0,-3.7309,-3.5502,-3.4944,-3.5354,-3.4143,-3.3903,-3.4299,-3.3489,-3.3229,-3.3304,-3.3215,-3.3205,-3.3201,-3.3009,-3.3403,-3.4065,-3.4286,-3.5313,-3.658,-3.692,-3.7379,-3.7854,-3.8086,-3.7654,0.0,-3.7163,-3.6727,-3.6272,-3.6272,-3.6358,-3.6415,-3.6415,-3.6457,-3.6468,-3.6336,-3.634,-3.6329,-3.6312,-3.6419,-3.6523,-3.6502,-3.6443,-3.6374,-3.6367,-3.6381,-3.6339,-3.6272,-3.6335,-3.6381,-3.6343,-3.6343,-3.6381,-3.6381,-3.6105,-3.5932,-3.5932,-3.6148,-3.6031,-3.5523,-3.5246,-3.5107,-3.5088,-3.5452,-3.565,-3.565,-3.672,-3.6896,-3.6226,-3.4916,-3.4144,0.0,0.0,0.0,0.0,0.0,0.0,0.0,0.0,0.0,0.0,0.0,-2.3758,-2.4252,0.0,-2.5564,-2.6067,-2.7182,-2.8339,-2.9369,-3.0664,-3.1463,-3.1332,-3.2163,-3.2709,-3.2562,-3.2607,-3.2859,-3.3353,-3.4084,-3.4537,-3.4628,-3.5484,-3.5662,-3.5026,-3.5787,-3.5589,-3.431,-3.5447,-3.63,-3.6811,-3.6432,-3.6997,-3.8312,-3.6786,-3.635,-3.669,-3.555,-3.5309,-3.5648,-3.4805,-3.4246,-3.3948,-3.3948,-3.3665,-3.3256,-3.3364,-3.3825,-3.4474,-3.4932,-3.5933,-3.7051,-3.735,-3.7712,-3.7984,-3.795,-3.768,-3.7356,-3.7425,-3.7172,-3.6865,-3.6897,-3.6843,-3.6788,-3.6788,-3.6708,-3.6602,-3.6602,-3.6444,-3.6322,-3.6402,-3.6402,-3.6381,-3.6356,-3.6356,-3.6335,-3.6255,-3.6255,-3.6251,-3.6187,-3.6229,-3.6297,-3.6402,-3.6402,-3.6402,-3.6402,-3.6318,-3.6297,-3.6402,-3.6523,-3.6473,-3.6249,-3.635,-3.6371,-3.6293,-3.6468,-3.6544,-3.6562,-3.7234,-3.7202,-3.6539,-3.5968,-3.5579,0.0,0.0,0.0,0.0,0.0,0.0,0.0,-2.4446,-2.4658,-2.4426,-2.5259,-2.6013,-2.5876,-2.6319,-2.6725,-2.6842,-2.7673,-2.8611,-2.9522,-3.0644,-3.1704,-3.2563,-3.342,-3.4097,-3.4549,-3.4089,-3.3876,-3.4167,-3.5236,-3.5469,-3.4487,-3.6234,-3.6781,-3.5779,-3.6329,-3.6274,-3.5536,-3.6094,-3.6897,-3.7916,-3.7462,-3.7834,-3.8887,-3.829,-3.7962,-3.7831,-3.7362,-3.7033,-3.6771,-3.6546,-3.5806,-3.4844,-3.5123,-3.4576,-3.3612,-3.3593,-3.4089,-3.4877,-3.5573,-3.6412,-3.7257,-3.7753,-3.7916,-3.7915,-3.7774,-3.781,-3.7899,-3.7899,-3.7916,-3.7916,-3.7933,-3.7667,-3.7392,-3.7337,-3.7007,-3.6702,-3.6702,-3.6502,-3.6301,-3.6301,-3.6301,-3.628,-3.6208,-3.6346,-3.6376,-3.6157,-3.6144,-3.6144,-3.614,-3.6182,-3.6251,-3.6419,-3.6444,-3.6464,-3.6502,-3.6335,-3.6314,-3.6523,-3.6523,-3.6544,-3.6702,-3.6869,-3.6908,-3.6809,-3.6928,-3.7007,-3.7009,-3.726,-3.7039,-3.6381,-3.666,-3.6837,-2.0013,-2.1181,-2.2746,-2.4216,-2.4397,-2.4439,0.0,-2.6061,-2.6414,-2.5813,-2.6901,-2.7739,-2.6974,-2.689,-2.6892,-2.6758,-2.7605,-2.8561,-2.9317,-3.0907,-3.2407,-3.351,-3.3908,-3.4496,-3.5535,-3.5503,-3.5851,-3.6888,-3.6307,-3.6544,-3.8022,-3.7644,-3.7701,-3.8442,-3.8475,-3.814,-3.74,-3.7349,-3.7332,-3.7312,-3.7867,-3.8167,-3.8212,-3.8191,-3.7741,-3.6972,-3.7554,-3.6996,-3.5843,-3.7897,-3.7514,-3.5799,-3.7247,-3.685,-3.539,-3.4526,-3.5179,-3.6526,-3.6566,-3.7107,-3.7808,-3.7881,-3.7828,-3.7739,-3.7846,-3.7881,-3.7899,-3.7899,-3.7951,-3.795,-3.7703,-3.7522,-3.7355,-3.7185,-3.6908,-3.6702,-3.6702,-3.6502,-3.6301,-3.6301,-3.6301,-3.628,-3.6208,-3.684,-3.702,-3.5985,-3.5949,-3.5975,-3.5861,-3.6036,-3.6225,-3.6247,-3.6297,-3.6364,-3.6502,-3.6381,-3.6402,-3.6643,-3.6582,-3.6544,-3.6702,-3.6768,-3.6829,-3.6809,-3.6928,-3.7029,-3.7089,-3.7239,-3.6982,-3.631,-3.6592,-3.6466,-2.2595,-2.3872,-2.5226,-2.5981,-2.6738,-2.7432,-2.7823,-2.8348,-2.8528,-2.7653,-2.8064,-2.8321,-2.7448,-2.7217,-2.7154,-2.7072,-2.7428,-2.8162,-2.9402,-3.0265,-3.1497,-3.3493,-3.3876,-3.466,-3.6329,-3.5525,-3.5354,-3.6495,-3.666,-3.6854,-3.7231,-3.786,-3.8427,-3.8892,-3.8862,-3.8729,-3.8465,-3.835,-3.8474,-3.8766,-3.9031,-3.9351,-3.9669,-3.9703,-3.9504,-3.9161,-3.9541,-3.9256,-3.8608,-3.9605,-3.9204,-3.802,-3.8692,-3.8272,-3.7132,-3.6206,-3.6253,-3.6728,-3.6625,-3.7164,-3.7881,-3.7757,-3.7792,-3.7845,-3.7757,-3.7811,-3.7881,-3.781,-3.7631,-3.7449,-3.7375,-3.7148,-3.6915,-3.6816,-3.6632,-3.6502,-3.6582,-3.6398,-3.6255,-3.6301,-3.6301,-3.6259,-3.6122,-3.6674,-3.6978,-3.6463,-3.653,-3.6444,-3.5868,-3.5905,-3.6014,-3.6182,-3.6255,-3.6343,-3.6502,-3.6381,-3.636,-3.6444,-3.6423,-3.6402,-3.6464,-3.6647,-3.6748,-3.6809,-3.6809,-3.6846,-3.6869,-3.7046,-3.6719,-3.5944,-3.631,-3.6178,-2.497,-2.6204,-2.7394,-2.8036,-2.8962,-2.9775,-2.9951,-3.0254,-3.0136,-2.893,-2.8928,-2.8804,-2.767,-2.7392,-2.7283,-2.7202,-2.725,-2.7832,-2.9385,-2.9693,-3.073,-3.3301,-3.3705,-3.4583,-3.6717,-3.578,-3.5532,-3.666,-3.7287,-3.7516,-3.7234,-3.822,-3.8899,-3.918,-3.8992,-3.8906,-3.8993,-3.8921,-3.9146,-3.9635,-3.9997,-4.0301,-4.0565,-4.0749,-4.0859,-4.0859,-4.1148,-4.1061,-4.0758,-4.1196,-4.076,-3.9885,-4.0069,-3.9541,-3.8543,-3.7898,-3.7404,-3.7001,-3.6808,-3.7202,-3.7739,-3.7649,-3.7775,-3.7897,-3.7774,-3.781,-3.7864,-3.7721,-3.7393,-3.7089,-3.7032,-3.6796,-3.655,-3.6509,-3.6364,-3.6297,-3.6423,-3.6314,-3.6208,-3.628,-3.628,-3.6195,-3.6041,-3.6672,-3.7114,-3.6829,-3.725,-3.7279,-3.648,-3.6214,-3.6212,-3.647,-3.6371,-3.6339,-3.6502,-3.6381,-3.6301,-3.6301,-3.628,-3.6259,-3.6259,-3.6482,-3.6664,-3.6768,-3.6725,-3.6722,-3.6725,-3.6866,-3.6381,-3.536,-3.5682,-3.5403,-2.6937,-2.801,-2.9202,-3.0778,-3.0733,-3.0446,-3.1095,-3.1354,-3.0963,-2.9242,-2.9525,-2.9514,-2.7728,-2.736,-2.7202,-2.6959,-2.7122,-2.7768,-2.9127,-2.9541,-3.0629,-3.3106,-3.3422,-3.4288,-3.6498,-3.6842,-3.7378,-3.853,-3.852,-3.8852,-3.9735,-3.9093,-3.9087,-3.9936,-3.9212,-3.8881,-3.8993,-3.8921,-3.891,-3.8951,-4.0443,-4.0733,-3.9955,-4.0681,-4.0979,-4.1034,-4.1698,-4.1518,-4.0899,-4.2414,-4.2123,-4.0828,-4.1559,-4.0869,-3.9453,-3.9367,-3.8722,-3.781,-3.7486,-3.7375,-3.7448,-3.7631,-3.7703,-3.7757,-3.8,-3.8002,-3.7864,-3.7667,-3.7355,-3.7011,-3.6629,-3.6523,-3.6461,-3.6251,-3.6225,-3.6208,-3.628,-3.6255,-3.6208,-3.628,-3.6251,-3.6144,-3.6019,-3.7098,-3.7691,-3.6937,-3.7918,-3.8527,-3.7898,-3.7254,-3.6979,-3.7237,-3.6629,-3.6272,-3.6482,-3.6381,-3.6301,-3.6301,-3.6251,-3.6187,-3.6187,-3.6276,-3.6423,-3.6702,-3.6702,-3.6725,-3.6809,-3.6745,-3.5939,-3.4441,-3.4596,-3.3899,-2.8925,-3.0072,-3.1016,-3.1513,-3.1867,-3.1979,-3.154,-3.1959,-3.1775,-2.9498,-2.9603,-2.9564,-2.7836,-2.7341,-2.712,-2.6975,-2.7451,-2.8185,-2.9213,-2.9884,-3.1027,-3.3158,-3.344,-3.4341,-3.6547,-3.614,-3.626,-3.753,-3.8123,-3.8574,-3.888,-3.9827,-4.0491,-4.0799,-4.0025,-3.9629,-3.9734,-3.9139,-3.8837,-3.8855,-4.0402,-4.1564,-4.2369,-4.2612,-4.2724,-4.2742,-4.2947,-4.286,-4.2573,-4.3104,-4.2994,-4.2482,-4.2049,-4.125,-4.0216,-3.9462,-3.86,-3.7775,-3.7792,-3.7721,-3.7631,-3.7827,-3.7897,-3.7862,-3.7703,-3.7613,-3.7504,-3.7148,-3.6759,-3.6392,-3.6161,-3.6067,-3.5993,-3.5822,-3.5883,-3.5993,-3.6187,-3.6079,-3.5993,-3.6191,-3.6127,-3.6019,-3.5905,-3.6926,-3.7786,-3.7967,-3.8042,-3.8007,-3.7778,-3.7165,-3.6831,-3.7013,-3.6573,-3.6297,-3.6343,-3.6402,-3.6381,-3.6251,-3.6208,-3.6118,-3.5949,-3.6122,-3.6335,-3.6544,-3.6582,-3.6623,-3.6725,-3.6623,-3.5743,-3.4194,-3.4295,-3.3591,-3.0518,-3.1574,-3.2349,-3.2331,-3.2727,-3.2829,-3.1825,-3.2052,-3.1851,-2.9573,-2.9465,-2.9251,-2.7525,-2.7213,-2.7166,-2.7055,-2.7895,-2.8836,-2.9642,-3.045,-3.1506,-3.2935,-3.3803,-3.5012,-3.6841,-3.6684,-3.6805,-3.7603,-3.8446,-3.9045,-3.9355,-4.0522,-4.1317,-4.1579,-4.0809,-4.0286,-4.0065,-3.9798,-3.9804,-4.0099,-4.1071,-4.2229,-4.3565,-4.3565,-4.3565,-4.3565,-4.3565,-4.3515,-4.3429,-4.3412,-4.323,-4.2864,-4.1849,-4.096,-4.0073,-3.9084,-3.8277,-3.7703,-3.7774,-3.7703,-3.7631,-3.788,-3.788,-3.7756,-3.7595,-3.7394,-3.715,-3.6818,-3.6392,-3.6028,-3.5898,-3.5805,-3.5706,-3.5622,-3.5667,-3.5795,-3.6014,-3.5927,-3.5861,-3.6079,-3.6014,-3.5905,-3.5817,-3.6874,-3.7975,-3.8789,-3.8447,-3.7999,-3.773,-3.759,-3.7354,-3.695,-3.6703,-3.6526,-3.6335,-3.6381,-3.636,-3.6225,-3.6204,-3.6118,-3.5949,-3.6118,-3.6293,-3.6502,-3.6502,-3.6582,-3.6702,-3.6582,-3.5821,-3.455,-3.4572,-3.3977,-3.1722,-3.2493,-3.322,-3.3238,-3.3238,-3.2943,-3.1837,-3.1678,-3.1219,-2.9411,-2.9124,-2.8652,-2.6871,-2.7009,-2.7326,-2.7119,-2.8373,-2.9608,-3.0255,-3.119,-3.2001,-3.2584,-3.443,-3.61,-3.7201,-3.8294,-3.8867,-3.8716,-3.9478,-4.0267,-4.0985,-4.1229,-4.1634,-4.2341,-4.1572,-4.0832,-4.012,-4.082,-4.1611,-4.2386,-4.2338,-4.269,-4.3441,-4.3441,-4.3441,-4.3441,-4.3441,-4.3478,-4.3497,-4.3429,-4.2936,-4.2115,-4.1102,-4.0127,-3.9189,-3.8325,-3.7862,-3.7667,-3.752,-3.7446,-3.7466,-3.7793,-3.7667,-3.7431,-3.7667,-3.7322,-3.6821,-3.662,-3.6284,-3.5954,-3.5817,-3.5689,-3.56,-3.56,-3.56,-3.5644,-3.5773,-3.5795,-3.5839,-3.5954,-3.5866,-3.5812,-3.5824,-3.6971,-3.8233,-3.9246,-3.9067,-3.853,-3.7848,-3.8425,-3.8376,-3.7035,-3.6979,-3.6828,-3.6327,-3.628,-3.6255,-3.6165,-3.6204,-3.6182,-3.6182,-3.6204,-3.6293,-3.6482,-3.6502,-3.6564,-3.6702,-3.6564,-3.6142,-3.5414,-3.5258,-3.4844,-3.2588,-3.3094,-3.3274,-3.2712,-3.2481,-3.2018,-3.0478,-3.0568,-3.0481,-2.8721,-2.877,-2.8759,-2.7539,-2.728,-2.7182,-2.6991,-2.8237,-2.935,-2.9625,-3.0901,-3.2168,-3.3154,-3.4409,-3.5403,-3.5928,-3.8019,-3.9176,-3.8744,-3.9942,-4.0551,-4.015,-4.195,-4.305,-4.3203,-4.2415,-4.1901,-4.1732,-4.1328,-4.1513,-4.2338,-4.2304,-4.243,-4.268,-4.268,-4.268,-4.268,-4.268,-4.2996,-4.3496,-4.3549,-4.3021,-4.2112,-4.1255,-4.023,-3.912,-3.8239,-3.7703,-3.7481,-3.8086,-3.7964,-3.7577,-3.7703,-3.7485,-3.7148,-3.6956,-3.662,-3.6266,-3.6067,-3.5866,-3.5689,-3.5588,-3.5594,-3.5577,-3.5543,-3.5571,-3.5644,-3.5773,-3.5728,-3.5689,-3.5839,-3.5734,-3.5791,-3.6234,-3.7121,-3.7855,-3.8127,-3.8522,-3.8706,-3.8405,-3.7648,-3.7044,-3.6778,-3.6384,-3.611,-3.6079,-3.6084,-3.6019,-3.5905,-3.5993,-3.5954,-3.5756,-3.6036,-3.6208,-3.6289,-3.652,-3.6681,-3.6702,-3.6681,-3.622,-3.5414,-3.5258,-3.4803,-3.3148,-3.3121,-3.2888,-3.2349,-3.1888,-3.1207,-2.9821,-2.9854,-2.978,-2.8417,-2.8478,-2.8415,-2.7368,-2.7237,-2.7214,-2.7023,-2.8528,-2.9777,-2.9884,-3.1317,-3.2726,-3.3623,-3.4743,-3.5794,-3.6702,-3.8311,-3.9451,-3.9735,-4.0577,-4.1071,-4.1029,-4.2331,-4.3231,-4.3617,-4.3108,-4.2818,-4.2818,-4.2029,-4.1864,-4.2304,-4.2304,-4.2119,-4.182,-4.182,-4.2005,-4.2303,-4.2336,-4.2577,-4.2932,-4.2999,-4.2235,-4.0951,-4.046,-3.9495,-3.8367,-3.7846,-3.7466,-3.7293,-3.7831,-3.7745,-3.7408,-3.7859,-3.7469,-3.6794,-3.6574,-3.622,-3.5849,-3.5706,-3.5594,-3.5543,-3.5514,-3.5566,-3.5577,-3.5549,-3.5616,-3.5689,-3.5706,-3.5734,-3.5778,-3.5795,-3.5689,-3.5791,-3.6364,-3.6875,-3.7309,-3.7573,-3.7756,-3.7806,-3.7733,-3.7376,-3.6993,-3.6662,-3.6395,-3.6202,-3.6031,-3.5997,-3.5975,-3.5888,-3.5954,-3.5932,-3.5778,-3.5975,-3.6144,-3.6204,-3.6478,-3.6643,-3.6702,-3.6725,-3.6496,-3.5977,-3.578,-3.5456,-3.3408,-3.299,-3.2447,-3.2032,-3.1397,-3.0602,-2.9476,-2.9207,-2.8953,-2.8178,-2.7987,-2.7678,-2.6781,-2.6961,-2.7239,-2.7222,-2.8904,-3.029,-3.0503,-3.1942,-3.3212,-3.3883,-3.5142,-3.6464,-3.7832,-3.858,-3.946,-4.0659,-4.0809,-4.1362,-4.2562,-4.2592,-4.2963,-4.3753,-4.36,-4.3515,-4.3515,-4.269,-4.2304,-4.2288,-4.2178,-4.1702,-4.0897,-4.0897,-4.1267,-4.1876,-4.1942,-4.1944,-4.1894,-4.2017,-4.0967,-3.9273,-3.9242,-3.8546,-3.7536,-3.7553,-3.7421,-3.7247,-3.7466,-3.7244,-3.7036,-3.7904,-3.7396,-3.6444,-3.6367,-3.5985,-3.5571,-3.5514,-3.5492,-3.5492,-3.5492,-3.5566,-3.56,-3.56,-3.5706,-3.5751,-3.5622,-3.5778,-3.591,-3.5795,-3.5667,-3.5728,-3.6192,-3.6424,-3.6716,-3.7257,-3.6894,-3.6579,-3.668,-3.7195,-3.7276,-3.6468,-3.6586,-3.6514,-3.5983,-3.5932,-3.5932,-3.5932,-3.5932,-3.5954,-3.5954,-3.5975,-3.6041,-3.6165,-3.6377,-3.6544,-3.6664,-3.6748,-3.6748,-3.6681,-3.6423,-3.6301,-3.3367,-3.3317,-3.294,-3.1423,-3.0916,-3.0384,-2.8778,-2.7955,-2.7437,-2.7166,-2.6614,-2.6255,-2.6619,-2.6542,-2.6743,-2.7758,-2.875,-2.9675,-3.0472,-3.1602,-3.2722,-3.3724,-3.4817,-3.5578,-3.574,-3.7322,-3.8493,-3.885,-3.898,-4.0107,-4.2551,-4.3291,-4.3636,-4.3632,-4.3599,-4.3548,-4.3515,-4.269,-4.2271,-4.222,-4.1544,-4.076,-3.9873,-3.9873,-3.9981,-4.0229,-4.0227,-4.0227,-4.0264,-4.0715,-3.9783,-3.8148,-3.869,-3.8613,-3.8238,-3.8351,-3.8196,-3.8026,-3.8593,-3.7735,-3.6485,-3.6931,-3.6692,-3.6229,-3.6105,-3.5817,-3.5514,-3.5492,-3.5492,-3.5492,-3.5492,-3.5566,-3.56,-3.56,-3.5622,-3.5622,-3.56,-3.5644,-3.5667,-3.5644,-3.5571,-3.5548,-3.5637,-3.5994,-3.6334,-3.6571,-3.6415,-3.6493,-3.7102,-3.6441,-3.5897,-3.5757,-3.5751,-3.5723,-3.5667,-3.5633,-3.5583,-3.5583,-3.5639,-3.5667,-3.5667,-3.5888,-3.6019,-3.6019,-3.6216,-3.6402,-3.6523,-3.6664,-3.6643,-3.6523,-3.6502,-3.6377,-3.3408,-3.3067,-3.2394,-3.1042,-3.0403,-2.9779,-2.8403,-2.7553,-2.7035,-2.7014,-2.6346,-2.5948,-2.6621,-2.6452,-2.6502,-2.743,-2.8459,-2.9384,-3.0092,-3.1324,-3.2564,-3.372,-3.4673,-3.54,-3.5792,-3.6785,-3.7866,-3.8929,-3.9182,-4.0283,-4.2582,-4.3452,-4.3631,-4.2991,-4.3378,-4.3566,-4.3464,-4.264,-4.1983,-4.146,-4.0656,-3.9818,-3.8966,-3.8966,-3.9221,-3.9642,-3.9741,-3.9741,-3.966,-3.9851,-3.9011,-3.765,-3.7842,-3.7717,-3.7416,-3.7594,-3.7454,-3.7241,-3.7687,-3.7151,-3.6276,-3.644,-3.6272,-3.5971,-3.5822,-3.5594,-3.54,-3.54,-3.54,-3.5423,-3.5469,-3.5566,-3.5577,-3.5549,-3.5481,-3.5481,-3.5684,-3.5616,-3.5571,-3.5667,-3.5616,-3.552,-3.5406,-3.5592,-3.5733,-3.5716,-3.5668,-3.5778,-3.62,-3.5796,-3.5643,-3.5973,-3.571,-3.5514,-3.5543,-3.5537,-3.5469,-3.54,-3.5429,-3.5498,-3.5543,-3.5661,-3.5795,-3.5888,-3.6062,-3.6233,-3.6402,-3.6444,-3.6502,-3.6502,-3.6318,-3.6233,-3.3412,-3.2716,-3.1729,-3.077,-2.9972,-2.9119,-2.7979,-2.721,-2.6706,-2.6596,-2.5909,-2.5544,-2.622,-2.6139,-2.6219,-2.6979,-2.8117,-2.9179,-2.9932,-3.1131,-3.2581,-3.43,-3.492,-3.5704,-3.7059,-3.6826,-3.7338,-3.9087,-3.9607,-4.0743,-4.2826,-4.3513,-4.3381,-4.239,-4.3125,-4.3406,-4.3102,-4.2298,-4.1515,-4.0773,-3.979,-3.8988,-3.8352,-3.8352,-3.8684,-3.9252,-3.9436,-3.9311,-3.8981,-3.8936,-3.8241,-3.7182,-3.7001,-3.6838,-3.6724,-3.689,-3.6769,-3.6581,-3.6724,-3.6473,-3.6118,-3.6079,-3.5927,-3.5751,-3.5622,-3.5435,-3.5268,-3.5268,-3.5268,-3.5268,-3.54,-3.5458,-3.5526,-3.5469,-3.5377,-3.536,-3.5656,-3.5588,-3.556,-3.5701,-3.5639,-3.5481,-3.5314,-3.5245,-3.5175,-3.5065,-3.5065,-3.5105,-3.5198,-3.5314,-3.5618,-3.6111,-3.5782,-3.5514,-3.5492,-3.5469,-3.5423,-3.5314,-3.5291,-3.5377,-3.5492,-3.5514,-3.5611,-3.5795,-3.5888,-3.6062,-3.6237,-3.6259,-3.6318,-3.6398,-3.6148,-3.6105,-3.3241,-3.2631,-3.1583,-3.0574,-2.9733,-2.8729,-2.718,-2.6357,-2.5699,-2.4968,-2.4283,-2.4009,-2.4688,-2.5064,-2.5695,-2.689,-2.7773,-2.887,-3.0559,-3.1175,-3.2703,-3.6053,-3.5853,-3.659,-3.9476,-3.7666,-3.6809,-3.797,-3.9017,-4.0824,-4.3564,-4.3646,-4.3179,-4.2256,-4.2935,-4.2956,-4.2138,-4.1318,-4.0846,-4.0687,-3.916,-3.8347,-3.8225,-3.8225,-3.8295,-3.8416,-3.8494,-3.8077,-3.733,-3.7559,-3.7111,-3.6232,-3.6333,-3.6813,-3.7413,-3.7431,-3.7431,-3.737,-3.7139,-3.6517,-3.5817,-3.5689,-3.5644,-3.5622,-3.56,-3.5373,-3.5128,-3.5128,-3.5128,-3.5128,-3.5111,-3.5222,-3.5314,-3.5314,-3.5314,-3.5314,-3.5337,-3.5446,-3.5514,-3.5514,-3.5423,-3.5314,-3.5291,-3.5088,-3.4923,-3.4923,-3.4923,-3.4923,-3.4947,-3.5041,-3.5192,-3.5392,-3.5514,-3.5571,-3.5514,-3.54,-3.5314,-3.5291,-3.5291,-3.5377,-3.5492,-3.5549,-3.5644,-3.5795,-3.5817,-3.5883,-3.6041,-3.6144,-3.6144,-3.6041,-3.6144,-3.6122,-3.1914,-3.1585,-3.0906,-2.9988,-2.9488,-2.8802,-2.7226,-2.629,-2.5567,-2.492,-2.4034,-2.372,-2.4913,-2.473,-2.5002,-2.6807,-2.7344,-2.8196,-3.015,-3.1363,-3.3024,-3.5607,-3.6567,-3.7663,-3.9354,-3.9085,-3.9247,-4.0291,-4.0338,-4.1171,-4.3141,-4.3249,-4.2777,-4.1796,-4.2614,-4.285,-4.243,-4.1796,-4.116,-4.0563,-3.9475,-3.8662,-3.8088,-3.8157,-3.8191,-3.8188,-3.8287,-3.7594,-3.6438,-3.7201,-3.6611,-3.5326,-3.6024,-3.6405,-3.6612,-3.6694,-3.6629,-3.6459,-3.6442,-3.6122,-3.5667,-3.5566,-3.5498,-3.5412,-3.5412,-3.5274,-3.5088,-3.5088,-3.5088,-3.5128,-3.5198,-3.5198,-3.5175,-3.5175,-3.5128,-3.5065,-3.5175,-3.5222,-3.5268,-3.536,-3.5354,-3.5268,-3.5198,-3.5088,-3.4994,-3.4923,-3.4899,-3.4899,-3.4899,-3.5018,-3.5152,-3.5291,-3.5383,-3.5406,-3.5383,-3.5268,-3.5152,-3.5065,-3.5065,-3.5128,-3.5245,-3.5344,-3.5498,-3.5628,-3.5661,-3.5751,-3.5883,-3.5844,-3.5888,-3.5997,-3.5888,-3.5888,-3.1025,-3.0757,-3.0216,-2.9562,-2.8991,-2.8251,-2.6939,-2.5999,-2.5223,-2.4591,-2.3821,-2.3666,-2.4853,-2.4609,-2.479,-2.6532,-2.6998,-2.7899,-3.0104,-3.1462,-3.3216,-3.5855,-3.7248,-3.8382,-3.9319,-3.977,-4.0275,-4.0944,-4.0763,-4.0999,-4.1932,-4.2497,-4.2389,-4.1499,-4.2333,-4.264,-4.2272,-4.1667,-4.1017,-4.0311,-3.9337,-3.8509,-3.788,-3.7898,-3.7824,-3.7674,-3.7623,-3.6788,-3.5561,-3.6524,-3.6019,-3.4776,-3.58,-3.6105,-3.5954,-3.6036,-3.5949,-3.5734,-3.5844,-3.5711,-3.5503,-3.5498,-3.5354,-3.5198,-3.5268,-3.5175,-3.5041,-3.5041,-3.5041,-3.5065,-3.5175,-3.5111,-3.5041,-3.5041,-3.497,-3.4923,-3.5018,-3.5065,-3.5128,-3.5175,-3.5222,-3.5198,-3.5065,-3.5041,-3.4994,-3.4923,-3.4899,-3.4899,-3.4899,-3.5018,-3.5152,-3.5222,-3.5245,-3.5268,-3.5308,-3.5175,-3.5018,-3.4851,-3.4875,-3.4947,-3.5041,-3.5198,-3.5377,-3.5492,-3.5543,-3.5639,-3.5751,-3.5639,-3.5661,-3.5839,-3.5616,-3.5644,-3.0972,-3.0423,-2.9574,-2.9433,-2.814,-2.673,-2.5971,-2.5248,-2.4456,-2.3595,-2.3458,-2.362,-2.4038,-2.4601,-2.5236,-2.5993,-2.6716,-2.8133,-3.0806,-3.1432,-3.3196,-3.7479,-3.8001,-3.858,-4.0056,-3.9349,-3.877,-3.8639,-3.9561,-4.0027,-3.9846,-4.1426,-4.2031,-4.1421,-4.2178,-4.2155,-4.123,-4.048,-4.0047,-3.9896,-3.8362,-3.7613,-3.7613,-3.7338,-3.7022,-3.6678,-3.6149,-3.5384,-3.456,-3.5237,-3.5166,-3.4681,-3.5631,-3.591,-3.5795,-3.5795,-3.5728,-3.56,-3.56,-3.5481,-3.5314,-3.5469,-3.5222,-3.4947,-3.5222,-3.5111,-3.4899,-3.4899,-3.4899,-3.4899,-3.4899,-3.4899,-3.4899,-3.4899,-3.4899,-3.4899,-3.4899,-3.4994,-3.5065,-3.4923,-3.5018,-3.5065,-3.4923,-3.4899,-3.4899,-3.4899,-3.4899,-3.4899,-3.4899,-3.5018,-3.5088,-3.5088,-3.5088,-3.5152,-3.5291,-3.5175,-3.4994,-3.4715,-3.4828,-3.4899,-3.4899,-3.5175,-3.5377,-3.5492,-3.5492,-3.552,-3.56,-3.552,-3.5492,-3.5492,-3.5377,-3.5412,-2.9163,-2.907,-2.8703,-2.8667,-2.7799,-2.6778,-2.6034,-2.5255,-2.4468,-2.3648,-2.3295,-2.3318,-2.3867,-2.4005,-2.4665,-2.6547,-2.717,-2.8533,-3.1762,-3.2889,-3.4478,-3.7451,-3.9246,-4.0488,-4.1103,-4.081,-4.0552,-4.0438,-4.0787,-4.0872,-4.0613,-4.1176,-4.1569,-4.1807,-4.1604,-4.1359,-4.1069,-4.0381,-3.9683,-3.9017,-3.8611,-3.7946,-3.7131,-3.7188,-3.7065,-3.6799,-3.612,-3.5119,-3.4033,-3.507,-3.4681,-3.363,-3.5442,-3.5949,-3.5667,-3.5667,-3.5616,-3.552,-3.552,-3.5429,-3.5314,-3.5446,-3.5337,-3.5175,-3.5175,-3.5041,-3.4899,-3.4899,-3.4899,-3.4899,-3.4899,-3.4899,-3.4899,-3.4899,-3.4899,-3.4899,-3.4899,-3.4923,-3.4923,-3.4804,-3.4804,-3.4811,-3.4763,-3.4763,-3.4787,-3.4899,-3.4899,-3.4899,-3.4899,-3.4875,-3.4899,-3.5065,-3.4947,-3.4875,-3.5018,-3.4899,-3.4739,-3.457,-3.4594,-3.4618,-3.4618,-3.4899,-3.5041,-3.5105,-3.5268,-3.536,-3.5389,-3.536,-3.5377,-3.5377,-3.5314,-3.5367,-2.7441,-2.7596,-2.75,-2.7435,-2.6793,-2.6052,-2.5595,-2.4884,-2.4139,-2.3484,-2.3187,-2.3266,-2.4012,-2.4342,-2.5199,-2.7333,-2.8353,-2.9863,-3.2778,-3.3941,-3.5522,-3.8294,-3.9442,-4.0395,-4.1389,-4.0807,-4.0459,-4.0705,-4.0703,-4.0644,-4.0542,-4.0463,-4.0633,-4.1067,-4.0931,-4.0825,-4.0766,-4.0025,-3.9328,-3.8675,-3.8153,-3.7488,-3.6678,-3.6719,-3.6601,-3.6269,-3.5322,-3.4375,0.0,-3.4374,-3.4123,-3.3409,-3.5249,-3.5822,-3.56,-3.56,-3.5571,-3.552,-3.5514,-3.5423,-3.5314,-3.5337,-3.5331,-3.5268,-3.5152,-3.4994,-3.4923,-3.497,-3.4947,-3.4923,-3.497,-3.4947,-3.4899,-3.4899,-3.4899,-3.4899,-3.4851,-3.4811,-3.478,-3.457,-3.4594,-3.4594,-3.4546,-3.4594,-3.4667,-3.4787,-3.4811,-3.4851,-3.4899,-3.478,-3.4763,-3.4923,-3.4707,-3.4546,-3.4594,-3.4618,-3.4521,-3.43,-3.4374,-3.4423,-3.4423,-3.4618,-3.4763,-3.4811,-3.5041,-3.5175,-3.5222,-3.5175,-3.5128,-3.5065,-3.5065,-3.5118,0.0,-2.6091,-2.6129,-2.6014,-2.5392,-2.4806,-2.4782,-2.4235,0.0,-2.3194,-2.3091,-2.3397,-2.4389,-2.5343,-2.6544,-2.8255,-3.0031,-3.1858,-3.3803,-3.4675,-3.6292,-3.9547,-3.8726,-3.8726,-4.0839,-3.9627,-3.8958,-3.967,-3.9578,-3.9555,-3.9684,-3.9385,-3.925,-3.9401,-4.0055,-4.0317,-4.0214,-3.9301,-3.8746,-3.8547,-3.704,-3.6284,-3.6194,-3.5998,-3.5744,-3.5342,-3.4,-3.3385,-3.3322,-3.3386,-3.3607,-3.398,-3.5152,-3.56,-3.56,-3.56,-3.56,-3.5577,-3.5498,-3.5383,-3.5268,-3.5152,-3.5198,-3.5268,-3.5152,-3.5018,-3.497,-3.5065,-3.4994,-3.4947,-3.5058,-3.4994,-3.4899,-3.4899,-3.4899,-3.4851,-3.4715,-3.4691,-3.4594,-3.4349,-3.4399,-3.4448,-3.4325,-3.4399,-3.4521,-3.4667,-3.4691,-3.4715,-3.4851,-3.4739,-3.4683,-3.4691,-3.4448,-3.4226,-3.4101,-3.4325,-3.43,-3.3924,-3.4126,-3.4275,-3.43,-3.4423,-3.4546,-3.4667,-3.4804,-3.4923,-3.5065,-3.4923,-3.4804,-3.4691,-3.4691,-3.4763,-2.4226,0.0,-2.5881,-2.5843,-2.5326,-2.4777,0.0,-2.4185,-2.3605,-2.3307,-2.3126,-2.3287,-2.4141,-2.5178,-2.6544,-2.8411,-3.0665,-3.2786,-3.4517,-3.5474,-3.6541,-3.8006,-3.7845,-3.7826,-3.8417,-3.9125,-3.9331,-3.8904,-3.9277,-3.9224,-3.8622,-3.8406,-3.8023,-3.7405,-3.7979,-3.8341,-3.8409,-3.6977,-3.6194,-3.6032,-3.5103,-3.4846,-3.5244,-3.5181,-3.5301,-3.5487,-3.418,-3.3902,-3.4301,-3.383,-3.3976,-3.4563,-3.5416,-3.5689,-3.56,-3.56,-3.5571,-3.5514,-3.54,-3.5331,-3.5291,-3.5268,-3.5198,-3.5175,-3.5222,-3.5291,-3.5291,-3.5018,-3.4994,-3.5058,-3.497,-3.4923,-3.4875,-3.4763,-3.4756,-3.4715,-3.457,-3.4546,-3.4497,-3.4325,-3.4325,-3.4349,-3.43,-3.4325,-3.4399,-3.4521,-3.4546,-3.4546,-3.4594,-3.4472,-3.4423,-3.4546,-3.4226,-3.3975,-3.3949,-3.4,-3.4,-3.3899,-3.3949,-3.405,-3.4151,-3.4275,-3.4349,-3.4399,-3.4521,-3.4594,-3.4643,-3.4594,-3.457,-3.4546,-3.4546,-3.4618,-2.3522,-2.4117,-2.4736,-2.4736,-2.4474,-2.4194,-2.4159,-2.3889,-2.3567,-2.3313,-2.318,-2.3508,-2.4916,-2.6008,-2.7417,-2.9505,-3.1696,-3.3703,-3.5279,-3.5989,-3.6613,-3.7322,-3.6789,-3.6505,-3.6824,-3.7528,-3.763,-3.687,-3.7681,-3.7877,-3.7145,-3.7167,-3.6887,-3.618,-3.6693,-3.7222,-3.7671,-3.673,-3.6186,-3.6015,-3.5265,-3.5006,-3.5227,-3.5227,-3.536,-3.5537,-3.4265,-3.4248,-3.505,-3.4082,-3.4265,-3.5147,-3.5537,-3.5667,-3.56,-3.5571,-3.5566,-3.5503,-3.536,-3.5268,-3.5198,-3.5198,-3.5175,-3.5128,-3.5268,-3.5337,-3.5377,-3.5135,-3.5088,-3.5065,-3.5018,-3.4947,-3.4875,-3.4715,-3.4691,-3.4643,-3.4448,-3.4399,-3.4349,-3.4151,-3.4126,-3.4126,-3.4126,-3.4126,-3.4176,-3.4374,-3.4399,-3.4423,-3.4497,-3.4374,-3.43,-3.4325,-3.4,-3.3771,-3.372,-3.3658,-3.3642,-3.3694,-3.3771,-3.3848,-3.3899,-3.405,-3.4176,-3.43,-3.4374,-3.4448,-3.4497,-3.4448,-3.4399,-3.4399,-3.4399,-3.4472,-2.3301,-2.3348,-2.343,-2.3464,-2.3482,-2.3471,-2.3471,-2.3617,-2.3684,-2.3442,-2.3469,-2.4163,-2.6187,-2.737,-2.8747,-3.092,-3.2895,-3.4588,-3.572,-3.6024,-3.6273,-3.672,-3.572,-3.5208,-3.5807,-3.5818,-3.5497,-3.4776,-3.5665,-3.604,-3.5574,-3.5775,-3.5721,-3.5246,-3.5794,-3.6396,-3.7042,-3.6857,-3.6674,-3.6491,-3.554,-3.5169,-3.5284,-3.5261,-3.538,-3.5537,-3.4363,0.0,-3.552,-3.435,-3.4563,-3.56,-3.56,-3.56,-3.56,-3.5543,-3.5566,-3.5577,-3.5383,-3.5222,-3.5088,-3.5088,-3.5105,-3.5088,-3.5245,-3.5291,-3.5268,-3.5291,-3.5198,-3.5088,-3.5088,-3.4994,-3.4851,-3.4691,-3.4643,-3.457,-3.4325,-3.4275,-3.4201,-3.3975,-3.3924,-3.3924,-3.3924,-3.3924,-3.4,-3.4226,-3.4275,-3.4325,-3.4423,-3.4349,-3.4226,-3.4075,-3.3848,-3.3658,-3.3503,-3.3372,-3.3361,-3.345,-3.3607,-3.3684,-3.3694,-3.3797,-3.3975,-3.4201,-3.4226,-3.43,-3.4399,-3.4325,-3.4275,-3.4275,-3.4275,-3.4349,-2.3164,-2.3151,-2.3132,-2.336,-2.3372,-2.3324,-2.3324,-2.3898,-2.442,-2.4316,-2.4702,-2.5618,-2.7409,-2.8706,-3.0066,-3.1829,-3.3965,-3.53,-3.4955,-3.4847,-3.4826,-3.4913,-3.485,-3.4942,-3.5208,-3.5575,-3.5497,-3.4776,-3.4421,-3.4289,-3.4365,-3.4249,-3.4144,-3.4065,-3.4792,-3.5116,-3.4958,-3.455,-3.4288,-3.4175,-3.2649,-3.2605,-3.3909,-3.3787,-3.4416,-3.5571,0.0,-3.5001,-3.5554,-3.4908,-3.5018,-3.56,-3.56,-3.56,-3.56,-3.5577,-3.5577,-3.5577,-3.5498,-3.5314,-3.5088,-3.5088,-3.5018,-3.497,-3.5222,-3.5222,-3.5152,-3.5268,-3.5198,-3.5088,-3.5088,-3.4923,-3.4691,-3.4546,-3.4448,-3.4325,-3.4176,-3.4126,-3.4126,-3.4075,-3.4075,-3.4075,-3.4075,-3.4075,-3.4075,-3.4126,-3.4126,-3.4151,-3.4151,-3.4151,-3.4075,-3.3949,-3.3797,-3.3658,-3.3503,-3.3372,-3.3309,-3.3335,-3.345,-3.3581,-3.371,-3.372,-3.3745,-3.3797,-3.3899,-3.3975,-3.4,-3.4101,-3.4126,-3.4126,-3.4126,-3.4201,-2.275,-2.2897,-2.3065,-2.3819,-2.3974,-2.4056,-2.4451,-2.4848,-2.5126,-2.51,-2.557,-2.649,-2.8179,-2.9157,-3.0246,-3.1917,-3.4059,-3.5316,-3.4684,-3.4909,-3.4976,-3.4558,-3.458,-3.4356,-3.36,-3.4477,-3.4558,-3.3221,-3.3649,-3.3748,-3.3203,-3.3573,-3.3543,-3.3016,-3.3816,-3.4129,-3.3914,-3.3656,-3.3714,-3.4113,-3.335,-3.338,-3.4084,-3.402,-3.4612,-3.5677,0.0,-3.5211,-3.5661,-3.513,-3.4947,-3.5064,-3.543,-3.5346,-3.5064,-3.5447,-3.5532,-3.5435,-3.5492,-3.5423,-3.5291,-3.5222,-3.5128,-3.5041,-3.5245,-3.5152,-3.5018,-3.5245,-3.5198,-3.5065,-3.5018,-3.4851,-3.4667,-3.4521,-3.4349,-3.4176,-3.4126,-3.4,-3.3873,-3.3873,-3.3873,-3.3848,-3.3771,-3.3899,-3.4,-3.4,-3.405,-3.4101,-3.4101,-3.405,-3.3949,-3.3797,-3.3668,-3.3555,-3.3398,-3.3335,-3.3309,-3.3309,-3.3346,-3.345,-3.3581,-3.3607,-3.3633,-3.3694,-3.3745,-3.3797,-3.3797,-3.3924,-3.4,-3.4,-3.4075,-3.4176,-2.2108,-2.2419,-2.282,-2.4363,-2.461,-2.4681,-2.5441,-2.5901,-2.6154,-2.6113,-2.6729,-2.7714,-2.9085,-3.0039,-3.0992,-3.2105,-3.4304,-3.5515,-3.4471,-3.5227,-3.5649,-3.5,-3.4812,-3.4293,-3.3158,-3.3873,-3.3778,-3.2218,-3.2857,-3.2994,-3.2241,-3.2801,-3.2828,-3.2116,-3.291,-3.326,-3.3136,-3.3254,-3.3625,-3.4235,-3.4066,-3.4087,-3.4235,-3.4235,-3.4803,-3.5739,-3.5356,-3.5398,-3.5722,-3.5339,-3.5015,-3.481,-3.538,-3.5245,-3.4827,-3.538,-3.5487,-3.5383,-3.5469,-3.5492,-3.5469,-3.5337,-3.5198,-3.5128,-3.5268,-3.5111,-3.4947,-3.5152,-3.5111,-3.5018,-3.4923,-3.4739,-3.457,-3.4472,-3.4275,-3.4101,-3.4101,-3.3899,-3.3761,-3.3771,-3.3771,-3.372,-3.3642,-3.3771,-3.3899,-3.3949,-3.4,-3.405,-3.405,-3.3975,-3.3822,-3.3668,-3.3555,-3.345,-3.3293,-3.3335,-3.3361,-3.3361,-3.3335,-3.3319,-3.3398,-3.3424,-3.3477,-3.3555,-3.3633,-3.3642,-3.3642,-3.3771,-3.3848,-3.3848,-3.3949,-3.4075,-2.1174,-2.146,-2.2065,-2.4756,-2.4922,-2.463,-2.5503,-2.6809,-2.778,-2.7593,-2.8679,-2.986,-3.0543,-3.2283,-3.3427,-3.2921,-3.5373,-3.65,-3.4093,-3.5318,-3.6361,-3.6187,-3.5729,-3.5457,-3.5528,-3.4741,-3.3873,-3.3072,-3.1788,-3.1219,-3.1646,-3.137,-3.1306,-3.1564,-3.2148,-3.2459,-3.2378,-3.298,-3.3368,-3.3474,-3.2801,-3.2835,-3.3491,-3.3491,-3.4269,-3.5622,-3.5722,-3.57,-3.5622,-3.5705,-3.5644,-3.5515,-3.5583,-3.5566,-3.5515,-3.5583,-3.56,-3.5554,-3.5537,-3.5492,-3.5469,-3.5337,-3.5198,-3.5128,-3.5268,-3.5111,-3.4899,-3.4923,-3.4923,-3.4923,-3.4899,-3.4635,-3.4325,-3.4325,-3.4201,-3.4101,-3.4101,-3.4,-3.3924,-3.405,-3.3975,-3.3924,-3.405,-3.3975,-3.3949,-3.4075,-3.4,-3.3899,-3.3899,-3.3899,-3.3797,-3.3555,-3.3503,-3.345,-3.3293,-3.3398,-3.3477,-3.3477,-3.3388,-3.3256,-3.3123,-3.3256,-3.3256,-3.315,-3.3372,-3.3503,-3.3503,-3.3658,-3.3694,-3.3694,-3.372,-3.3797,-2.0162,-2.1149,-2.2324,-2.4221,-2.5114,-2.5785,-2.6831,-2.7745,-2.8362,-2.8332,-2.9394,-3.0473,-3.0955,-3.2502,-3.3458,-3.267,-3.5181,-3.6791,-3.5454,-3.6306,-3.6895,-3.6475,-3.6325,-3.5886,-3.5023,-3.4488,-3.3811,-3.2859,-3.1759,-3.114,-3.1215,-3.1154,-3.1151,-3.119,-3.1404,-3.1716,-3.2122,-3.2366,-3.2538,-3.2588,-3.2388,-3.2446,-3.2733,-3.3186,-3.4007,-3.5038,-3.5081,-3.5098,-3.5004,-3.4606,-3.4338,-3.4264,-3.4742,-3.5172,-3.5543,-3.5577,-3.5509,-3.5412,-3.5492,-3.5446,-3.5377,-3.5331,-3.5198,-3.5105,-3.5175,-3.5041,-3.4875,-3.4804,-3.4732,-3.4643,-3.4643,-3.4546,-3.4399,-3.4325,-3.4126,-3.4,-3.4075,-3.3873,-3.3736,-3.3924,-3.3873,-3.3771,-3.372,-3.3822,-3.3848,-3.3745,-3.3745,-3.3787,-3.3787,-3.3694,-3.3607,-3.3503,-3.3424,-3.3372,-3.3424,-3.3477,-3.3503,-3.3503,-3.345,-3.3398,-3.3346,-3.3335,-3.3282,-3.3229,-3.3319,-3.3388,-3.3388,-3.3503,-3.3581,-3.3581,-3.3658,-3.3771,-1.9694,-2.0914,-2.2334,-2.4039,-2.51,-2.611,-2.7437,-2.8181,-2.8578,-2.8625,-2.9541,-3.0416,-3.0656,-3.1972,-3.2836,-3.2251,-3.4634,-3.644,-3.599,-3.6669,-3.7075,-3.6625,-3.6515,-3.6063,-3.5022,-3.4599,-3.4117,-3.3385,-3.2437,-3.189,-3.1847,-3.1827,-3.1827,-3.1847,-3.1786,-3.1995,-3.2433,-3.2152,-3.2018,-3.2101,-3.1719,-3.1813,-3.2327,-3.2814,-3.3499,-3.4296,-3.4338,-3.4474,-3.4601,-3.4092,-3.3918,-3.4059,-3.4565,-3.5026,-3.5446,-3.5481,-3.5412,-3.5314,-3.5423,-3.5377,-3.5291,-3.5291,-3.5198,-3.5088,-3.5041,-3.497,-3.4875,-3.4691,-3.4594,-3.4546,-3.4448,-3.4399,-3.4349,-3.425,-3.4101,-3.3975,-3.4025,-3.3822,-3.3684,-3.3873,-3.3797,-3.3668,-3.3617,-3.371,-3.3745,-3.3658,-3.3617,-3.3642,-3.3694,-3.3581,-3.3477,-3.345,-3.3346,-3.3346,-3.3477,-3.3555,-3.3555,-3.3555,-3.3529,-3.345,-3.3335,-3.3293,-3.3214,-3.3081,-3.3266,-3.3335,-3.3229,-3.3398,-3.3477,-3.345,-3.3529,-3.3694,-1.9853,-2.0688,-2.19,-2.4376,-2.4898,-2.5261,-2.6993,-2.796,-2.8497,-2.8499,-2.9188,-2.9764,-2.9632,-3.0792,-3.1791,-3.1807,-3.3879,-3.5458,-3.5331,-3.6236,-3.6859,-3.6705,-3.6287,-3.5997,-3.5997,-3.5331,-3.4903,-3.4903,-3.3838,-3.3355,-3.3683,-3.3376,-3.3355,-3.3683,-3.3494,-3.3385,-3.3385,-3.2471,-3.2035,-3.2085,-3.0625,-3.0774,-3.2293,-3.2293,-3.2679,-3.3406,-3.3549,-3.3935,-3.4472,-3.4489,-3.4813,-3.5291,-3.5291,-3.5291,-3.5291,-3.5291,-3.5291,-3.5291,-3.5291,-3.5291,-3.5308,-3.5308,-3.5198,-3.5065,-3.4947,-3.4899,-3.4851,-3.457,-3.4594,-3.4618,-3.4374,-3.4201,-3.4101,-3.4101,-3.4101,-3.4075,-3.3924,-3.3899,-3.3899,-3.3899,-3.3797,-3.3745,-3.3873,-3.3684,-3.3607,-3.3848,-3.3668,-3.3555,-3.3684,-3.3581,-3.345,-3.3293,-3.3309,-3.3346,-3.3503,-3.3633,-3.3694,-3.3694,-3.3581,-3.3335,-3.2924,-3.315,-3.3081,-3.2621,-3.3171,-3.3388,-3.3096,-3.3372,-3.3424,-3.3293,-3.3293,-3.3529,-1.8981,-2.0834,-2.2844,-2.3738,-2.4976,-2.6048,-2.6285,-2.7277,-2.8237,-2.8573,-2.8661,-2.882,-2.9294,-3.017,-3.1125,-3.2133,-3.3933,-3.5419,-3.6001,-3.6434,-3.6709,-3.6755,-3.6147,-3.5711,-3.5711,-3.4972,-3.4489,-3.4489,-3.3602,-3.3139,-3.3347,-3.316,-3.316,-3.333,-3.3198,-3.3134,-3.3134,-3.2852,-3.2713,-3.2734,-3.2282,-3.1903,-3.1532,-3.1532,-3.1938,-3.2645,-3.3128,-3.3482,-3.3761,-3.4182,-3.4421,-3.4565,-3.5107,-3.5291,-3.5291,-3.5291,-3.5245,-3.5175,-3.5175,-3.5088,-3.5018,-3.5018,-3.4923,-3.4811,-3.4763,-3.4691,-3.457,-3.4399,-3.4399,-3.4374,-3.4201,-3.4126,-3.4101,-3.4101,-3.4101,-3.4101,-3.405,-3.3899,-3.3771,-3.3873,-3.3736,-3.3581,-3.3607,-3.3617,-3.3633,-3.3633,-3.3617,-3.3633,-3.3581,-3.345,-3.3346,-3.3293,-3.3477,-3.3607,-3.3658,-3.3848,-3.3949,-3.3848,-3.3694,-3.3503,-3.3203,-3.3085,-3.2951,-3.2816,-3.3176,-3.3335,-3.3229,-3.3503,-3.3633,-3.3581,-3.3581,-3.3658,-1.9542,-2.1401,-2.3319,-2.3998,-2.5045,-2.5848,-2.5629,-2.6302,-2.6995,-2.7132,-2.742,-2.7853,-2.8551,-2.9309,-3.0379,-3.2017,-3.3218,-3.4306,-3.5492,-3.5447,-3.5375,-3.5515,-3.4907,-3.446,-3.446,-3.4242,-3.4002,-3.3762,-3.379,-3.3779,-3.3691,-3.3895,-3.4046,-3.4139,-3.4073,-3.4007,-3.3979,-3.3656,-3.3478,-3.3478,-3.2832,-3.2294,-3.1911,-3.1911,-3.2163,-3.2618,-3.329,-3.3626,-3.3676,-3.4287,-3.4474,-3.4442,-3.4828,-3.497,-3.497,-3.497,-3.4923,-3.4875,-3.4923,-3.4851,-3.4756,-3.4804,-3.4732,-3.4618,-3.4546,-3.4521,-3.4472,-3.4349,-3.43,-3.4275,-3.4201,-3.4151,-3.4101,-3.4025,-3.4025,-3.4,-3.3873,-3.3787,-3.371,-3.3736,-3.3642,-3.3555,-3.3503,-3.3581,-3.3607,-3.3503,-3.3607,-3.3668,-3.3581,-3.345,-3.3398,-3.345,-3.3555,-3.3668,-3.3771,-3.3924,-3.3924,-3.3684,-3.3513,-3.3251,-3.2877,-3.2935,-3.2924,-3.2773,-3.316,-3.3346,-3.3309,-3.3633,-3.3745,-3.3694,-3.3694,-3.3745,-2.0893,-2.2118,-2.351,-2.4796,-2.5062,-2.501,-2.4961,-2.5096,-2.5146,-2.4774,-2.566,-2.6717,-2.7365,-2.8208,-2.9485,-3.1549,-3.2008,-3.2662,-3.4252,-3.385,-3.3423,-3.3557,-3.3079,-3.2718,-3.2696,-3.3336,-3.3537,-3.2945,-3.4145,-3.472,-3.4292,-3.4964,-3.5397,-3.5453,-3.5521,-3.5492,-3.5345,-3.4633,-3.4231,-3.4158,-3.2745,-3.2462,-3.3166,-3.2971,-3.2971,-3.3138,-3.3879,-3.4163,-3.4126,-3.4681,-3.4828,-3.4691,-3.4546,-3.4497,-3.4497,-3.4497,-3.4497,-3.4521,-3.4643,-3.4594,-3.4521,-3.4643,-3.4594,-3.4448,-3.4349,-3.4374,-3.4448,-3.4325,-3.4275,-3.4275,-3.4275,-3.4176,-3.4025,-3.3899,-3.3873,-3.3822,-3.3581,-3.3591,-3.3658,-3.3503,-3.3581,-3.3633,-3.3477,-3.3477,-3.3503,-3.3529,-3.3633,-3.371,-3.3668,-3.3555,-3.3503,-3.3633,-3.3513,-3.3539,-3.3755,-3.3806,-3.3668,-3.3266,-3.3076,-3.2738,-3.2219,-3.2703,-3.2854,-3.2523,-3.3091,-3.3346,-3.3187,-3.3591,-3.3745,-3.3617,-3.3617,-3.3745,-2.0273,-2.207,-2.4043,-2.4344,-2.4796,-2.4911,-2.3978,-2.405,-2.4232,-2.3982,-2.4073,-2.4583,-2.5826,-2.6688,-2.8008,-3.0505,-3.1623,-3.2648,-3.4006,-3.3713,-3.3376,-3.3385,-3.3102,-3.2824,-3.2572,-3.3113,-3.3337,-3.2994,-3.3267,-3.3384,-3.3223,-3.403,-3.4437,-3.4359,-3.4904,-3.4875,-3.4176,-3.4545,-3.4462,-3.3898,-3.4117,-3.4316,-3.4439,-3.285,-3.2744,-3.3812,-3.4069,-3.4401,-3.4731,-3.4968,-3.4923,-3.4691,-3.4546,-3.4497,-3.4497,-3.4374,-3.4399,-3.4497,-3.4521,-3.4521,-3.4497,-3.4521,-3.4448,-3.4349,-3.43,-3.425,-3.4176,-3.4151,-3.4075,-3.4,-3.4,-3.3873,-3.3745,-3.3633,-3.3761,-3.3848,-3.3694,-3.3607,-3.3503,-3.3388,-3.3388,-3.3346,-3.3203,-3.3346,-3.3529,-3.3658,-3.3684,-3.3658,-3.3555,-3.3319,-3.315,-3.3085,-3.2996,-3.2938,-3.2884,-3.3055,-3.3108,-3.2911,-3.2765,-3.2547,-3.2219,-3.2234,-3.2122,-3.191,-3.237,-3.2563,-3.2441,-3.2846,-3.3018,-3.2991,-3.2991,-3.2964,-2.0351,-2.2176,-2.4182,-2.4845,-2.4941,-2.4638,-2.3797,-2.3457,-2.321,-2.2768,-2.3144,-2.3952,-2.525,-2.616,-2.745,-2.9707,-3.0863,-3.1866,-3.2951,-3.2465,-3.2019,-3.2059,-3.1727,-3.1401,-3.1214,-3.1964,-3.2253,-3.1831,-3.2479,-3.2789,-3.2493,-3.3238,-3.3645,-3.3567,-3.4263,-3.4441,-3.3989,-3.4652,-3.4795,-3.4429,-3.4811,-3.4994,-3.4961,-3.3707,-3.3561,-3.4242,-3.4313,-3.448,-3.4715,-3.4787,-3.4493,-3.3973,-3.3868,-3.3836,-3.3811,-3.3689,-3.3925,-3.4325,-3.4374,-3.4349,-3.4325,-3.4374,-3.4325,-3.4201,-3.4126,-3.405,-3.4,-3.3924,-3.3848,-3.3797,-3.3797,-3.3745,-3.3684,-3.3529,-3.3607,-3.3642,-3.345,-3.3346,-3.3282,-3.3229,-3.3134,-3.3065,-3.3016,-3.3,-3.3022,-3.314,-3.3166,-3.3166,-3.3182,-3.2996,-3.285,-3.285,-3.2765,-3.2695,-3.2695,-3.2815,-3.2788,-3.252,-3.2355,-3.2104,-3.1796,-3.164,-3.1611,-3.171,-3.2092,-3.2259,-3.216,-3.2586,-3.2776,-3.2722,-3.2761,-3.2761,-2.0276,-2.2059,-2.3984,-2.5378,-2.527,-2.4627,-2.3931,-2.3391,-2.2816,-2.1981,-2.2687,-2.3794,-2.4857,-2.5866,-2.7122,-2.8958,-2.9948,-3.0833,-3.1788,-3.1108,-3.0574,-3.0803,-3.0267,-2.9921,-2.9966,-3.0805,-3.1133,-3.0618,-3.1748,-3.2267,-3.1805,-3.2629,-3.3098,-3.3064,-3.3902,-3.4214,-3.3941,-3.4545,-3.4748,-3.4499,-3.4615,-3.4675,-3.4629,-3.4233,-3.4137,-3.4325,-3.4145,-3.4072,-3.4072,-3.4072,-3.364,-3.2982,-3.291,-3.2983,-3.308,-3.2934,-3.3394,-3.4126,-3.4226,-3.4176,-3.4075,-3.4201,-3.4151,-3.4,-3.3899,-3.3873,-3.3848,-3.3694,-3.3658,-3.3633,-3.3565,-3.3539,-3.3487,-3.333,-3.3303,-3.3266,-3.3096,-3.3016,-3.2962,-3.2962,-3.2807,-3.2711,-3.28,-3.2578,-3.2437,-3.2547,-3.2602,-3.2641,-3.2722,-3.2614,-3.2547,-3.2598,-3.2477,-3.2394,-3.2504,-3.2504,-3.2367,-3.2023,-3.1838,-3.161,-3.1219,-3.1102,-3.1176,-3.1495,-3.1853,-3.1951,-3.1892,-3.2324,-3.2477,-3.2382,-3.2504,-3.2586,-1.8939,-2.0957,-2.3419,-2.4709,-2.5555,-2.5623,-2.3996,-2.4264,-2.4431,-2.2945,-2.2782,-2.3063,-2.3575,-2.4802,-2.6285,-2.7999,-2.9054,-3.0124,-3.1454,-3.0943,-3.064,-3.123,-3.0672,-3.0343,-3.0626,-3.101,-3.1111,-3.0861,-3.1056,-3.1065,-3.0883,-3.2302,-3.3054,-3.2917,-3.4268,-3.4299,-3.2912,-3.362,-3.3338,-3.2077,-3.2724,-3.2927,-3.2754,-3.2349,-3.2714,-3.3578,-3.2704,-3.2333,-3.2333,-3.2333,-3.2261,-3.2156,-3.2014,-3.2442,-3.308,-3.2877,-3.3362,-3.4101,-3.4126,-3.405,-3.3924,-3.3949,-3.3848,-3.3745,-3.372,-3.3736,-3.3694,-3.3581,-3.345,-3.3293,-3.3007,-3.283,-3.2711,-3.259,-3.2563,-3.2633,-3.287,-3.2703,-3.2453,-3.233,-3.2302,-3.233,-3.2453,-3.2425,-3.2425,-3.241,-3.252,-3.2559,-3.2465,-3.2342,-3.2148,-3.1866,-3.161,-3.1423,-3.1322,-3.1322,-3.1292,-3.1249,-3.122,-3.1087,-3.0881,-3.0851,-3.0821,-3.0747,-3.1073,-3.1161,-3.0984,-3.1336,-3.1509,-3.1481,-3.1596,-3.1653,-1.9394,-2.0858,-2.2372,-2.3325,-2.4179,-2.4593,-2.3883,-2.4166,-2.438,-2.3717,-2.3899,-2.4133,-2.3945,-2.5081,-2.6343,-2.7283,-2.8471,-2.9512,-3.0202,-2.9887,-2.9714,-3.0077,-2.9957,-2.9918,-3.0106,-3.0544,-3.0794,-3.0786,-3.0871,-3.0851,-3.0712,-3.1366,-3.1679,-3.1556,-3.258,-3.279,-3.21,-3.2812,-3.289,-3.2347,-3.2508,-3.2517,-3.2357,-3.1472,-3.1565,-3.2393,-3.1807,-3.1542,-3.1566,-3.1718,-3.1509,-3.1133,-3.1518,-3.2015,-3.2514,-3.2609,-3.3287,-3.4176,-3.3949,-3.3873,-3.3873,-3.3797,-3.3761,-3.3658,-3.3424,-3.3346,-3.3293,-3.2969,-3.2834,-3.2753,-3.2602,-3.2547,-3.2465,-3.241,-3.2302,-3.2234,-3.2361,-3.2345,-3.2176,-3.1866,-3.1966,-3.2038,-3.1824,-3.1853,-3.191,-3.191,-3.1966,-3.1951,-3.191,-3.1824,-3.171,-3.1509,-3.1365,-3.1234,-3.1102,-3.1117,-3.1117,-3.1117,-3.0984,-3.0895,-3.0791,-3.0732,-3.0672,-3.0598,-3.0821,-3.0851,-3.0702,-3.1029,-3.1117,-3.1029,-3.119,-3.1336,-1.9364,-2.0328,-2.1091,-2.1745,-2.2655,-2.3374,-2.3473,-2.3935,-2.4331,-2.4397,-2.498,-2.529,-2.4629,-2.5529,-2.6497,-2.6806,-2.7899,-2.8778,-2.9067,-2.892,-2.8889,-2.9265,-2.9377,-2.9557,-2.9875,-3.0249,-3.0526,-3.0651,-3.0733,-3.0753,-3.0651,-3.0833,-3.0892,-3.077,-3.1461,-3.1737,-3.1593,-3.1924,-3.2155,-3.2302,-3.2001,-3.1823,-3.1694,-3.0594,-3.0378,-3.0847,-3.0654,-3.0581,-3.0621,-3.0823,-3.0545,-3.0101,-3.0935,-3.1494,-3.195,-3.2407,-3.3287,-3.4226,-3.3949,-3.3848,-3.3848,-3.3771,-3.3633,-3.3424,-3.3081,-3.2947,-3.2839,-3.2413,-3.2315,-3.2342,-3.2274,-3.2247,-3.2231,-3.2176,-3.2023,-3.1868,-3.1868,-3.1925,-3.1881,-3.1523,-3.1625,-3.1655,-3.1322,-3.1322,-3.1424,-3.1438,-3.1438,-3.1467,-3.1511,-3.1511,-3.1453,-3.1263,-3.1234,-3.1176,-3.1043,-3.0984,-3.0984,-3.1014,-3.0851,-3.0762,-3.0762,-3.0642,-3.0598,-3.0598,-3.0702,-3.0702,-3.0598,-3.0895,-3.0955,-3.0791,-3.1014,-3.1161,-1.7761,-1.8663,-1.956,-2.0175,-2.15,-2.2655,-2.2671,-2.3852,-2.4959,-2.4957,-2.5501,-2.5781,-2.5179,-2.5787,-2.6477,-2.6692,-2.7193,-2.7814,-2.8457,-2.8462,-2.8773,-2.9742,-2.9524,-2.9681,-3.0642,-3.0539,-3.0422,-3.0506,-3.0526,-3.0526,-3.051,-3.1168,-3.1548,-3.1548,-3.2139,-3.216,-3.1523,-3.0863,-3.0558,-3.0605,-3.0303,-3.0071,-2.9907,-2.9268,-2.8936,-2.8841,-2.8912,-2.8927,-2.8927,-2.8951,-2.8975,-2.9053,-2.9919,-3.0831,-3.1726,-3.2505,-3.3362,-3.4126,-3.4226,-3.4025,-3.372,-3.3848,-3.345,-3.2897,-3.2699,-3.2547,-3.237,-3.2094,-3.2122,-3.2135,-3.1898,-3.1841,-3.1784,-3.1597,-3.1539,-3.1539,-3.1539,-3.1438,-3.1336,-3.1322,-3.1205,-3.1146,-3.1102,-3.1117,-3.1161,-3.1292,-3.1307,-3.1351,-3.1467,-3.1511,-3.1395,-3.1146,-3.1102,-3.1014,-3.0821,-3.0702,-3.0672,-3.0791,-3.0702,-3.0598,-3.0598,-3.0598,-3.0598,-3.0598,-3.0598,-3.0598,-3.0598,-3.0762,-3.0791,-3.0791,-3.1014,-3.1102,-1.687,-1.7379,-1.8019,-1.8332,-1.9635,-2.1005,-2.152,-2.3047,-2.4464,-2.4909,-2.5603,-2.6007,-2.557,-2.6074,-2.6485,-2.6183,-2.6571,-2.7072,-2.7468,-2.7442,-2.7677,-2.8467,-2.8841,-2.9346,-3.0083,-3.0147,-2.9928,-2.9438,-2.9969,-3.0018,-2.9321,-3.0177,-3.0711,-3.0711,-3.0915,-3.0828,-3.0397,-3.0152,-2.9919,-2.9738,-2.9605,-2.9357,-2.8958,-2.8748,-2.8494,-2.8259,-2.851,-2.8653,-2.874,-2.8708,-2.91,-2.9793,-3.0364,-3.1353,-3.2498,-3.2969,-3.3572,-3.4201,-3.4,-3.3771,-3.3555,-3.3424,-3.3065,-3.266,-3.233,-3.2107,-3.1894,-3.1625,-3.1524,-3.1496,-3.1467,-3.1467,-3.1467,-3.1511,-3.1438,-3.138,-3.138,-3.1409,-3.1395,-3.122,-3.1278,-3.1249,-3.0955,-3.1102,-3.122,-3.119,-3.1307,-3.1408,-3.138,-3.1568,-3.1568,-3.1263,-3.1161,-3.1087,-3.0984,-3.0821,-3.0791,-3.0984,-3.0955,-3.0821,-3.0598,-3.0598,-3.0492,-3.028,-3.0357,-3.0477,-3.0598,-3.0642,-3.0672,-3.0672,-3.0762,-3.0821,-1.6276,-1.6654,-1.7189,-1.7003,-1.7969,-1.9184,-2.0066,-2.1585,-2.3046,-2.3848,-2.4849,-2.5464,-2.5121,-2.579,-2.6212,-2.5749,-2.6036,-2.6453,-2.6823,-2.6609,-2.6723,-2.7596,-2.8223,-2.881,-2.9426,-2.9783,-2.98,-2.9295,-2.9847,-2.9853,-2.9113,-2.9783,-3.0167,-3.0124,-3.0076,-2.9951,-2.976,-2.9677,-2.9538,-2.9305,-2.9175,-2.8904,-2.8503,-2.8383,-2.822,-2.8005,-2.8341,-2.8534,-2.8605,-2.8677,-2.9201,-3.005,-3.0626,-3.1543,-3.2593,-3.317,-3.3633,-3.3949,-3.3745,-3.3487,-3.3198,-3.3038,-3.2645,-3.2188,-3.1853,-3.164,-3.1467,-3.1205,-3.1146,-3.119,-3.1292,-3.1307,-3.1322,-3.1409,-3.1351,-3.1307,-3.1307,-3.1292,-3.1234,-3.1102,-3.119,-3.1176,-3.0851,-3.0969,-3.1146,-3.1161,-3.1307,-3.1452,-3.1467,-3.167,-3.1641,-3.1176,-3.1146,-3.1132,-3.1014,-3.0955,-3.0984,-3.1161,-3.1014,-3.0821,-3.0598,-3.0492,-3.0325,-3.0111,-3.0189,-3.0296,-3.0431,-3.0552,-3.0598,-3.0598,-3.0598,-3.0642,0.0,0.0,0.0,-1.6276,-1.657,-1.7316,-1.8326,-1.9531,-2.077,-2.1868,-2.325,-2.4169,-2.3869,-2.4818,-2.5587,-2.5375,-2.5567,-2.5944,-2.6492,-2.6019,-2.6036,-2.7326,-2.7732,-2.8145,-2.8747,-2.9524,-3.0038,-3.0113,-3.0167,-3.0124,-2.9941,-3.0103,-3.0124,-2.9995,-2.9792,-2.9697,-2.9697,-2.9418,-2.9282,-2.9259,-2.8865,-2.8614,-2.8463,-2.8137,-2.7995,-2.8005,-2.829,-2.8387,-2.842,-2.8787,-2.9217,-2.9738,-3.0657,-3.1346,-3.1956,-3.305,-3.3372,-3.3319,-3.3565,-3.3208,-3.2629,-3.2749,-3.2185,-3.1495,-3.1336,-3.122,-3.1043,-3.0866,-3.1029,-3.1278,-3.1278,-3.1278,-3.1307,-3.1307,-3.1307,-3.1292,-3.1307,-3.1058,-3.0866,-3.1087,-3.0955,-3.0791,-3.0791,-3.0791,-3.091,-3.1219,-3.1278,-3.1409,-3.1727,-3.1756,-3.1525,-3.0881,-3.1087,-3.1146,-3.0851,-3.0984,-3.1161,-3.1292,-3.0866,-3.0598,-3.0598,-3.0249,-3.008,-3.008,-3.008,-3.0095,-3.014,-3.0446,-3.0612,-3.0641,-3.0627,-3.0627,-1.5624,0.0,0.0,0.0,0.0,0.0,-1.7091,-1.8436,-1.9942,-2.1551,-2.271,-2.3542,-2.3872,-2.4261,-2.4355,-2.3764,-2.4375,-2.5144,-2.5726,-2.5524,-2.5644,-2.6535,-2.7558,-2.8287,-2.8484,-2.9269,-2.9478,-2.8734,-2.9485,-2.9528,-2.8519,-2.9249,-2.9776,-2.9924,-2.9704,-2.9464,-2.9275,-2.8881,-2.8614,-2.8356,-2.8341,-2.8155,-2.786,-2.794,-2.7905,-2.774,-2.8088,-2.8259,-2.833,-2.9181,-3.0082,-3.0912,-3.1094,-3.1803,-3.2723,-3.2431,-3.2656,-3.3076,-3.306,-3.2792,-3.2465,-3.2492,-3.2048,-3.1495,-3.1467,-3.1278,-3.1087,-3.1014,-3.091,-3.0821,-3.091,-3.1117,-3.1307,-3.1307,-3.1234,-3.119,-3.1292,-3.1146,-3.1073,-3.1205,-3.1073,-3.0896,-3.0687,-3.0672,-3.0642,-3.0583,-3.0866,-3.1073,-3.1073,-3.1176,-3.1219,-3.1176,-3.0807,-3.0747,-3.1131,-3.0999,-3.0955,-3.1132,-3.0984,-3.0732,-3.0417,-3.0189,-2.9988,-2.9741,-2.9837,-3.0187,-3.0828,-3.0526,-3.0632,-3.1094,-3.1203,-3.1018,-1.5875,-1.5752,-1.5771,-1.5461,0.0,0.0,-1.6054,-1.7084,-1.8254,-1.9424,-2.0621,-2.1523,-2.186,-2.2478,-2.2777,-2.2232,-2.2709,-2.3614,-2.4817,-2.4619,-2.466,-2.5583,-2.6757,-2.7596,-2.782,-2.8872,-2.9265,-2.8656,-2.9157,-2.9137,-2.8346,-2.8861,-2.9312,-2.9637,-2.9289,-2.902,-2.8936,-2.8629,-2.8317,-2.8079,-2.8162,-2.8113,-2.794,-2.793,-2.8066,-2.8344,-2.8244,-2.8581,-2.9258,-2.9869,-3.0498,-3.1065,-3.0985,-3.1636,-3.2563,-3.1925,-3.2026,-3.2465,-3.2586,-3.2382,-3.202,-3.2092,-3.1695,-3.1219,-3.1292,-3.122,-3.1058,-3.0984,-3.0895,-3.0851,-3.0969,-3.1146,-3.1248,-3.1102,-3.1102,-3.1102,-3.122,-3.1161,-3.1102,-3.1087,-3.1043,-3.0969,-3.0657,-3.0642,-3.0657,-3.0613,-3.0762,-3.0955,-3.1073,-3.1029,-3.1029,-3.1073,-3.0821,-3.0732,-3.0984,-3.0821,-3.0791,-3.0955,-3.0687,-3.0403,-3.0205,-3.0005,-2.9803,-2.9602,-2.9935,-3.0531,-3.1457,-3.0953,-3.1092,-3.1804,-3.1884,-3.1584,-1.6479,-1.6343,-1.6373,-1.5498,-1.5338,0.0,-1.5267,-1.5791,-1.6381,-1.6737,-1.7951,-1.8964,-1.8988,-2.0135,-2.1016,-2.0736,-2.0892,-2.1771,-2.3871,-2.3419,-2.3363,-2.4634,-2.5604,-2.6382,-2.695,-2.8281,-2.9157,-2.9198,-2.899,-2.8858,-2.8881,-2.8756,-2.885,-2.9266,-2.8787,-2.8574,-2.8708,-2.8517,-2.8348,-2.821,-2.8235,-2.8284,-2.8363,-2.8014,-2.8383,-2.9202,-2.8495,-2.9029,-3.0443,-3.0521,-3.0639,-3.0727,-3.0675,-3.1225,-3.199,-3.1454,-3.1457,-3.1824,-3.2176,-3.1964,-3.1552,-3.1682,-3.1336,-3.091,-3.1102,-3.1117,-3.0999,-3.0851,-3.0955,-3.1132,-3.1263,-3.1292,-3.1205,-3.091,-3.0984,-3.1132,-3.1146,-3.1132,-3.1073,-3.0851,-3.0955,-3.0955,-3.0642,-3.0672,-3.0777,-3.0881,-3.0807,-3.0896,-3.1306,-3.1087,-3.0866,-3.0791,-3.0925,-3.0895,-3.0642,-3.0568,-3.0598,-3.0762,-3.016,-2.9853,-3.005,-2.9741,-2.954,-2.9571,-3.0277,-3.11,-3.2082,-3.1699,-3.1801,-3.2379,-3.2452,-3.2089,-1.7078,-1.6961,-1.6866,-1.6051,-1.5845,0.0,-1.5108,-1.5541,-1.6339,-1.729,-1.7794,-1.8205,-1.8735,-1.9106,-1.9351,-1.945,-1.9764,-2.0775,-2.3017,-2.2304,-2.2318,-2.4388,-2.4626,-2.51,-2.6339,-2.7347,-2.8132,-2.8622,-2.8622,-2.863,-2.8732,-2.8558,-2.8653,-2.9136,-2.8834,-2.8661,-2.8708,-2.8621,-2.8429,-2.821,-2.8405,-2.8405,-2.8235,-2.8275,-2.8278,-2.8261,-2.8115,-2.857,-2.9526,-3.0078,-3.0798,-3.1514,-3.1094,-3.1503,-3.2155,-3.0833,-3.1097,-3.2051,-3.1781,-3.1667,-3.1667,-3.1741,-3.1582,-3.1408,-3.1597,-3.1482,-3.119,-3.0881,-3.1029,-3.1234,-3.1161,-3.1132,-3.1161,-3.1205,-3.1234,-3.1292,-3.1395,-3.1424,-3.1322,-3.1014,-3.0807,-3.0672,-3.0598,-3.0477,-3.0357,-3.028,-3.0371,-3.0433,-3.0523,-3.0387,-3.0401,-3.0762,-3.0506,-3.0416,-3.0732,-3.0417,-3.0312,-3.0612,-2.9991,-2.9713,-2.9853,-2.9432,-2.9257,-2.9446,-3.0763,-3.1815,-3.2553,-3.2725,-3.2453,-3.1698,-3.2139,-3.1685,-1.7354,-1.7135,-1.6907,-1.6255,-1.6287,0.0,0.0,-1.5641,-1.6061,-1.6386,-1.6479,-1.6613,-1.6939,-1.7418,-1.7774,-1.7834,-1.8054,-1.8854,-2.0698,-2.1245,-2.2096,-2.3888,-2.3926,-2.4335,-2.5714,-2.606,-2.6604,-2.7575,-2.7651,-2.7828,-2.8222,-2.7841,-2.7931,-2.8622,-2.8518,-2.8486,-2.8549,-2.8517,-2.8468,-2.8405,-2.8405,-2.8405,-2.8405,-2.8332,-2.8483,-2.8774,-2.829,-2.8777,-2.992,-3.0129,-3.0755,-3.1557,-3.1158,-3.1417,-3.1903,-3.0733,-3.0928,-3.1739,-3.1653,-3.1567,-3.1538,-3.1798,-3.1668,-3.1423,-3.1611,-3.1438,-3.1176,-3.1161,-3.1219,-3.1278,-3.1205,-3.1249,-3.1278,-3.122,-3.1263,-3.1322,-3.138,-3.1366,-3.1278,-3.1161,-3.0999,-3.0762,-3.0507,-3.0598,-3.0582,-3.0249,-3.0326,-3.0477,-3.0538,-3.0326,-3.0371,-3.0762,-3.0522,-3.0431,-3.0672,-3.0341,-3.0113,-3.019,-2.9806,-2.9698,-2.9897,-2.9734,-2.9993,-3.0731,-3.1711,-3.2514,-3.3152,-3.3082,-3.2748,-3.2195,-3.2591,-3.1961,-1.789,-1.7492,-1.7107,-1.6679,-1.6777,-1.6813,0.0,0.0,0.0,-1.5543,-1.5405,-1.5377,-1.5476,-1.5926,-1.6336,-1.6536,-1.645,-1.6867,-1.8331,-1.9838,-2.1362,-2.286,-2.2723,-2.3111,-2.463,-2.4601,-2.5002,-2.6257,-2.6371,-2.6681,-2.7334,-2.6973,-2.7194,-2.8155,-2.8235,-2.8284,-2.8444,-2.8444,-2.8493,-2.8565,-2.8308,-2.8308,-2.8517,-2.8308,-2.86,-2.9289,-2.8554,-2.9125,-3.0526,-3.0334,-3.0768,-3.154,-3.1177,-3.1334,-3.1677,-3.0803,-3.0913,-3.1467,-3.1655,-3.1597,-3.1438,-3.1754,-3.164,-3.1336,-3.1408,-3.1336,-3.1307,-3.1394,-3.1394,-3.1336,-3.1351,-3.138,-3.1395,-3.122,-3.1234,-3.1307,-3.1322,-3.1308,-3.1338,-3.1441,-3.1368,-3.1101,-3.0567,-3.0791,-3.0895,-3.0447,-3.0447,-3.0568,-3.0702,-3.0477,-3.0417,-3.0732,-3.0672,-3.0568,-3.0522,-3.0203,-2.9943,-2.9761,-2.9669,-2.9742,-3.0048,-3.0271,-3.0935,-3.2062,-3.2481,-3.2857,-3.3317,-3.2965,-3.2739,-3.2658,-3.2677,-3.1907,-1.9369,-1.8844,-1.8254,-1.7954,-1.7597,-1.7255,-1.6925,0.0,-1.6522,-1.6438,0.0,-1.6039,-1.6446,0.0,0.0,-1.6249,-1.568,-1.5681,-1.7329,-1.76,-1.8458,-2.0677,-1.9971,-2.0147,-2.2263,-2.3017,-2.3777,-2.4701,-2.4874,-2.5174,-2.5744,-2.6309,-2.7122,-2.8171,-2.8323,-2.8444,-2.8589,-2.8629,-2.8581,-2.842,-2.8259,-2.821,-2.8235,-2.821,-2.8256,-2.8367,-2.8378,-2.9156,-3.0428,-3.0402,-3.1124,-3.2185,-3.1332,-3.1472,-3.2015,-3.093,-3.111,-3.1883,-3.1626,-3.1626,-3.1698,-3.1467,-3.1408,-3.1422,-3.1146,-3.1452,-3.1798,-3.1278,-3.1307,-3.1466,-3.1467,-3.1307,-3.1205,-3.1395,-3.138,-3.1322,-3.1438,-3.1797,-3.2079,-3.2079,-3.1973,-3.1721,-3.1117,-3.0925,-3.0762,-3.0598,-3.0447,-3.0357,-3.0357,-3.0312,-3.0387,-3.0598,-3.0598,-3.0492,-3.0172,-2.9865,-2.9634,-2.9634,-2.9725,-2.9928,-3.0257,-3.0773,-3.1419,-3.2103,-3.2316,-3.2392,-3.2249,-3.2384,-3.2244,-3.1839,-3.1189,-3.0379,-2.0411,-2.0279,-1.9924,-1.9019,-1.8362,-1.7618,-1.6401,-1.572,-1.5345,-1.5469,0.0,0.0,0.0,0.0,0.0,0.0,-1.5061,-1.5002,-1.5992,-1.5726,-1.6491,-1.94,-1.8963,-1.9016,-2.0441,-2.1402,-2.2088,-2.2452,-2.251,-2.3209,-2.471,-2.5091,-2.6022,-2.767,-2.794,-2.8079,-2.8137,-2.8171,-2.8195,-2.8275,-2.8063,-2.7965,-2.7965,-2.8137,-2.8162,-2.8103,-2.8299,-2.867,-2.9179,-2.996,-3.0578,-3.1036,-3.1334,-3.1782,-3.2132,-3.1578,-3.1585,-3.187,-3.1727,-3.1655,-3.1611,-3.1538,-3.1379,-3.116,-3.1058,-3.0999,-3.1014,-3.094,-3.0999,-3.1131,-3.1322,-3.1249,-3.1132,-3.1249,-3.122,-3.119,-3.1249,-3.1427,-3.156,-3.156,-3.1515,-3.1397,-3.1132,-3.1014,-3.0895,-3.0642,-3.0598,-3.0568,-3.0477,-3.0477,-3.0507,-3.0598,-3.0598,-3.0552,-3.0401,-3.0144,-3.0085,-3.0266,-3.0635,-3.089,-3.0979,-3.1695,-3.2208,-3.2458,-3.2429,-3.2364,-3.2282,-3.1884,-3.1361,-3.0699,-3.0513,-2.9923,-2.1307,-2.1173,-2.0682,-1.9525,-1.8756,-1.7887,-1.6287,-1.546,-1.5047,-1.5063,-1.5082,0.0,0.0,0.0,-1.5372,-1.5172,0.0,-1.4462,-1.4706,-1.4369,-1.5166,-1.8031,-1.8107,-1.8198,-1.8903,-1.9503,-1.9951,-2.0184,-2.0358,-2.126,-2.3076,-2.3865,-2.5056,-2.6807,-2.7435,-2.7765,-2.779,-2.7765,-2.7865,-2.8088,-2.7815,-2.7715,-2.775,-2.8014,-2.8063,-2.7955,-2.8177,-2.844,-2.8763,-2.9713,-3.0285,-3.0646,-3.152,-3.1968,-3.2107,-3.1925,-3.1798,-3.1727,-3.1727,-3.1553,-3.1394,-3.1452,-3.1219,-3.0881,-3.0762,-3.0628,-3.0477,-3.0702,-3.0791,-3.0955,-3.1176,-3.1117,-3.1014,-3.1087,-3.1043,-3.1014,-3.1087,-3.1191,-3.1337,-3.1514,-3.1366,-3.1278,-3.1514,-3.1249,-3.0955,-3.0702,-3.0702,-3.0702,-3.0598,-3.0598,-3.0598,-3.0598,-3.0598,-3.0538,-3.0387,-3.019,-3.023,-3.0552,-3.1106,-3.1516,-3.1736,-3.247,-3.2846,-3.2846,-3.2486,-3.2282,-3.2213,-3.1443,-3.0748,-3.0127,-3.0112,-2.9647,-2.2061,-2.1237,-1.9877,-1.9194,-1.865,-1.8059,-1.7171,-1.6832,-1.6573,-1.6057,-1.5806,-1.5854,-1.6452,-1.5296,-1.452,-1.5346,-1.4664,0.0,0.0,-1.3734,-1.4507,-1.6348,-1.6973,-1.7329,-1.753,-1.7174,-1.7284,-1.813,-1.8737,-1.944,-2.0289,-2.2739,-2.4534,-2.5524,-2.6892,-2.7675,-2.779,-2.7675,-2.7675,-2.7815,-2.7539,-2.7488,-2.7625,-2.7865,-2.793,-2.7815,-2.7955,-2.8748,-2.9947,-2.9845,-3.0643,-3.1936,-3.1981,-3.1996,-3.1968,-3.1655,-3.1496,-3.1511,-3.1511,-3.1336,-3.1073,-3.0881,-3.0732,-3.0552,-3.0233,-3.0446,-3.0762,-3.0642,-3.0821,-3.1087,-3.1102,-3.0955,-3.0866,-3.1043,-3.0955,-3.0866,-3.1043,-3.1439,-3.1933,-3.2562,-3.2011,-3.1716,-3.2499,-3.1624,-3.0791,-3.0791,-3.0702,-3.0598,-3.0598,-3.0598,-3.0598,-3.0598,-3.0598,-3.0387,-2.987,-2.9713,-2.9743,-3.0002,-3.0591,-3.1382,-3.2336,-3.2954,-3.329,-3.329,-3.2507,-3.2013,-3.1841,-3.1089,-3.0597,-3.0364,-2.9921,-2.9386,0.0,0.0,-2.2537,-2.1572,-2.037,-1.9138,-1.8093,-1.7399,-1.6876,-1.6418,-1.681,-1.6999,-1.6211,-1.5724,-1.5343,-1.4959,-1.4241,-1.3698,0.0,-1.4101,-1.455,-1.4748,-1.5548,-1.6267,-1.6794,-1.6365,-1.6335,-1.699,-1.7231,-1.8072,-1.9775,-2.1173,-2.2942,-2.5167,-2.5614,-2.6322,-2.7397,-2.7258,-2.7258,-2.7412,-2.7401,-2.7412,-2.7463,-2.774,-2.779,-2.7675,-2.7815,-2.8237,-2.8921,-2.9301,-2.9963,-3.0799,-3.1231,-3.1395,-3.1424,-3.1741,-3.1769,-3.1698,-3.1698,-3.1424,-3.1043,-3.1102,-3.0732,-3.0264,-3.0142,-2.9974,-2.9943,-3.0296,-3.0312,-3.0357,-3.0791,-3.0791,-3.0672,-3.0762,-3.0732,-3.0702,-3.0762,-3.1121,-3.155,-3.1833,-3.1623,-3.1488,-3.1833,-3.1103,-3.0538,-3.0762,-3.0492,-3.0341,-3.0568,-3.0401,-3.0341,-3.0582,-3.0746,-3.0647,-3.0048,-3.0393,-3.0628,-3.0591,-3.1544,-3.2249,-3.2576,-3.2784,-3.2895,-3.2895,-3.1861,-3.1474,-3.1806,-3.1007,-3.0378,-2.9929,-3.0099,-2.9834,-2.5046,-2.4448,0.0,-2.2426,-2.1125,-1.9836,-1.8644,-1.8039,-1.7571,-1.7122,-1.7484,-1.7619,-1.6685,-1.6043,-1.553,-1.5106,-1.4227,-1.3615,0.0,-1.4194,-1.4439,-1.4148,-1.4932,-1.5577,-1.5825,-1.5656,-1.5733,-1.6287,-1.6508,-1.7325,-1.8892,-2.0353,-2.1967,-2.3868,-2.4718,-2.5639,-2.6623,-2.6753,-2.6896,-2.7052,-2.7233,-2.7335,-2.735,-2.7615,-2.7625,-2.7473,-2.7564,-2.798,-2.8601,-2.9003,-2.9671,-3.0498,-3.0925,-3.1132,-3.122,-3.1611,-3.1741,-3.167,-3.1583,-3.1336,-3.1014,-3.0925,-3.0477,-2.9974,-2.9789,-2.9665,-2.962,-3.0007,-3.0099,-3.019,-3.0612,-3.0672,-3.0598,-3.0598,-3.0538,-3.055,-3.0812,-3.0861,-3.1042,-3.1553,-3.1185,-3.0893,-3.1279,-3.0682,-3.0251,-3.0568,-3.031,-3.0203,-3.0447,-3.0205,-3.0183,-3.0674,-3.0597,-3.0304,-2.98,-3.0318,-3.0604,-3.0477,-3.1619,-3.2364,-3.247,-3.27,-3.2846,-3.2895,-3.1806,-3.1516,-3.2124,-3.1253,-3.0658,-3.0343,-3.0433,-3.0201]},{"header":{"parameterUnit":"m.s-1","parameterCategory":1,"la1":30.6,"la2":29.2853,"lo1":-89.7004,"lo2":-87.6739,"dy":0.0162,"dx":0.0183,"nx":112,"ny":82,"refTime":"2025-04-22T06:00:00:Z","depth":0,"parameterNumber":3,"parameterNumberName":"V-component_of_WINDS"},"data":[0.0,0.0,0.0,0.0,0.0,0.0,0.0,0.0,0.0,0.0,0.0,0.0,0.0,0.0,0.0,0.0,0.0,0.0,0.0,0.0,0.0,0.0,0.0,0.0,0.0,0.0,0.0,0.0,0.0,0.0,0.0,0.0,0.0,0.0,0.0,0.0,0.0,0.0,0.0,0.0,0.0,0.0,0.0,0.0,0.0,0.0,0.0,0.0,0.0,0.0,0.0,0.0,0.0,0.0,0.0,0.0,0.0,0.0,0.0,0.0,0.0,0.0,0.0,0.0,0.0,0.0,0.0,0.0,0.0,0.0,0.0,0.0,0.0,0.0,0.0,0.0,0.0,0.0,0.0,0.0,0.0,0.0,0.0,0.0,0.0,0.0,0.0,0.0,0.0,0.0,0.705,0.7525,0.8675,0.9576,0.9948,1.0101,0.9811,0.8883,0.0,0.0,0.0,0.0,0.0,0.0,0.0,0.0,0.0,0.0,0.0,0.0,0.0,0.0,0.0,0.0,0.0,0.0,0.0,0.0,0.0,0.0,0.0,0.0,0.0,0.0,0.0,0.0,0.0,0.0,0.0,0.0,0.0,0.0,0.0,0.0,0.0,0.0,0.0,0.0,0.0,0.0,0.0,0.0,0.0,0.0,0.0,0.0,0.0,0.0,0.0,0.0,0.0,0.0,0.0,0.0,0.0,0.0,0.0,0.0,0.0,0.0,0.0,0.0,0.0,0.0,0.0,0.0,0.0,0.0,0.0,0.0,0.0,0.0,0.0,0.0,0.0,0.0,0.0,0.0,0.0,0.0,0.0,0.0,0.0,0.0,0.0,0.0,0.0,0.0,0.0,0.0,0.0,0.0,0.0,0.0,0.0,0.0,0.0,0.0,0.0,0.0,0.0,0.0,0.8308,0.9895,0.9956,1.0113,1.0685,1.1012,1.0527,0.8985,0.0,0.0,0.0,0.0,0.0,0.0,0.0,0.0,0.0,0.0,0.0,0.0,0.0,0.0,0.0,0.0,0.0,0.0,0.0,0.0,0.0,0.0,0.0,0.0,0.0,0.0,0.0,0.0,0.0,0.0,0.0,0.0,0.0,0.0,0.0,0.0,0.0,0.0,0.0,0.0,0.0,0.0,0.0,0.0,0.0,0.0,0.0,0.0,0.0,0.0,0.0,0.0,0.0,0.0,0.0,0.0,0.0,0.0,0.0,0.0,0.0,0.0,0.0,0.0,0.0,0.0,0.0,0.0,0.0,0.0,0.0,0.0,0.0,0.0,0.0,0.0,0.0,0.0,0.0,0.0,0.0,0.0,0.0,0.0,0.0,0.0,0.0,0.0,0.0,0.0,0.0,0.0,0.0,0.0,0.0,0.0,0.0,0.0,0.0,0.0,0.0,0.0,0.0,0.8059,0.939,1.0821,1.0584,1.0561,1.118,1.1418,1.0985,0.9575,0.888,0.0,0.0,0.0,0.0,0.0,0.0,0.0,0.0,0.0,0.0,0.0,0.0,0.0,0.0,0.0,0.0,0.0,0.0,0.0,0.0,0.0,0.0,0.0,0.0,0.0,0.0,0.0,0.0,0.0,0.0,0.0,0.0,0.0,0.0,0.0,0.0,0.0,0.0,0.0,0.0,0.0,0.0,0.0,0.0,0.0,0.0,0.0,0.0,0.0,0.0,0.0,0.0,0.0,0.0,0.0,0.0,0.0,0.0,0.0,0.0,0.0,0.0,0.0,0.0,0.0,0.0,0.0,0.0,0.0,0.0,0.0,0.0,0.0,0.0,0.0,0.0,0.0,0.0,0.0,0.0,0.0,0.0,0.0,0.0,0.0,0.0,0.0,0.0,0.0,0.0,0.0,0.0,0.0,0.0,0.0,0.0,0.0,0.0,0.0,0.0,0.0,0.0,0.9047,1.0171,1.1189,1.1099,1.1124,1.1542,1.1649,1.1153,0.9918,0.9336,0.0,0.0,0.0,0.0,0.0,0.0,0.0,0.0,0.0,0.0,0.0,0.0,0.0,0.0,0.0,0.0,0.0,0.0,0.0,0.0,0.0,0.0,0.0,0.0,0.0,0.0,0.0,0.0,0.0,0.0,0.0,0.0,0.0,0.0,0.0,0.0,0.0,0.0,0.0,0.0,0.0,0.0,0.0,0.0,0.0,0.0,0.0,0.0,0.0,0.0,0.0,0.0,0.0,0.0,0.0,0.0,0.0,0.0,0.0,0.0,0.0,0.0,0.0,0.0,0.0,0.0,0.0,0.0,0.0,0.0,0.0,0.0,0.0,0.0,0.0,0.0,0.0,0.0,0.0,0.0,0.0,0.0,0.0,0.0,0.0,0.0,0.0,0.0,0.0,0.0,0.0,0.0,0.0,0.0,0.0,0.0,0.0,0.0,0.0,0.0,0.0,0.0,0.9259,1.0501,1.1205,1.1656,1.1881,1.1858,1.1699,1.0978,0.9525,0.8811,0.0,0.0,0.0,0.0,0.0,0.0,0.0,0.0,0.0,0.0,0.0,0.0,0.0,0.0,0.0,0.0,0.0,0.0,0.0,0.0,0.0,0.0,0.0,0.0,0.0,0.0,0.0,0.0,0.0,0.0,0.0,0.0,0.0,0.0,0.0,0.0,0.0,0.0,0.0,0.0,0.0,0.0,0.0,0.0,0.0,0.0,0.0,0.0,0.0,0.0,0.0,0.0,0.0,0.0,0.0,0.0,0.0,0.0,0.0,0.0,0.0,0.0,0.0,0.0,0.0,0.0,0.0,0.0,0.0,0.0,0.0,0.0,0.0,0.0,0.0,0.0,0.0,0.0,0.0,0.0,0.0,0.0,0.0,0.0,0.0,0.0,0.0,0.0,0.0,0.0,0.0,0.0,0.0,0.0,0.0,0.0,0.0,0.0,0.0,0.0,0.0,0.0,0.9967,1.1343,1.1699,1.2023,1.2292,1.2464,1.2543,1.1849,1.0079,0.0,0.0,0.0,0.0,0.0,0.0,0.0,0.0,0.0,0.0,0.0,0.0,0.0,0.0,0.0,0.0,0.0,0.0,0.0,0.0,0.0,0.0,0.0,0.0,0.0,0.0,0.0,0.0,0.0,0.0,0.0,0.0,0.0,0.0,0.0,0.0,0.0,0.0,0.0,0.0,0.0,0.0,0.0,0.0,0.0,0.0,0.0,0.0,0.0,0.0,0.0,0.0,0.0,0.0,0.0,0.0,0.0,0.0,0.0,0.0,0.0,0.0,0.0,0.0,0.0,0.0,0.0,0.0,0.0,0.0,0.0,0.0,0.0,0.0,0.0,0.0,0.0,0.0,0.0,0.0,0.0,0.0,0.0,0.0,0.0,0.0,0.0,0.0,0.0,0.0,0.0,0.0,0.0,0.0,0.0,0.0,0.0,0.0,0.0,0.0,0.0,0.0,0.8607,1.0629,1.2101,1.2182,1.2557,1.2842,1.2915,1.3018,1.2284,1.0429,0.0,0.0,0.0,0.0,0.0,0.0,0.0,0.0,0.0,0.0,0.0,0.0,0.0,0.0,0.0,0.0,0.0,0.0,0.0,0.0,0.0,0.0,0.0,0.0,0.0,0.0,0.0,0.0,0.0,0.0,0.0,0.0,0.0,0.0,0.0,0.0,0.0,0.0,0.0,0.0,0.0,0.0,0.0,0.0,0.0,0.0,0.0,0.0,0.0,0.0,0.0,0.0,0.0,0.0,0.0,0.0,0.0,0.0,0.0,0.0,0.0,0.0,0.0,0.0,0.0,0.0,0.0,0.0,0.0,0.0,0.0,0.0,0.0,0.0,0.0,0.0,0.0,0.0,0.0,0.0,0.0,0.0,0.0,0.0,0.0,0.0,0.0,0.0,0.0,0.0,0.0,0.0,0.0,0.0,0.0,0.0,0.0,0.0,0.0,0.0,0.0,0.0,0.9055,1.1156,1.2593,1.2612,1.3262,1.3585,1.322,1.3037,1.2178,0.0,0.0,0.0,0.0,0.0,0.0,0.0,0.0,0.0,0.0,0.0,0.0,0.0,0.0,0.0,0.0,0.0,0.0,0.0,0.0,0.0,0.0,0.0,0.0,0.0,0.0,0.0,0.0,0.0,0.0,0.0,0.0,0.0,0.0,0.0,0.0,0.0,0.0,0.0,0.0,0.0,0.0,0.0,0.0,0.0,0.0,0.0,0.0,0.0,0.0,0.0,0.0,0.0,0.0,0.0,0.0,0.0,0.0,0.0,0.0,0.0,0.0,0.0,0.0,0.0,0.0,0.0,0.0,0.0,0.0,0.0,0.0,0.0,0.0,0.0,0.0,0.0,0.0,0.0,0.0,0.0,0.0,0.0,0.0,0.0,0.0,0.0,0.0,0.0,0.0,0.0,0.0,0.0,0.0,0.0,0.0,0.0,0.0,0.0,0.0,0.0,0.0,0.0,0.933,1.1308,1.2765,1.3001,1.3492,1.3757,1.3662,1.3727,1.3167,1.1584,0.0,0.0,0.0,0.0,0.0,0.0,0.0,0.0,0.0,0.0,0.0,0.0,0.0,0.0,0.0,0.0,0.0,0.0,0.0,0.0,0.0,0.0,0.0,0.0,0.0,0.0,0.0,0.0,0.0,0.0,0.0,0.0,0.0,0.0,0.0,0.0,0.0,0.0,0.0,0.0,0.0,0.0,0.0,0.0,0.0,0.0,0.0,0.0,0.0,0.0,0.0,0.0,0.0,0.0,0.0,0.0,0.0,0.0,0.0,0.0,0.0,0.0,0.0,0.0,0.0,0.0,0.0,0.0,0.0,0.0,0.0,0.0,0.0,0.0,0.0,0.0,0.0,0.0,0.0,0.0,0.0,0.0,0.0,0.0,0.0,0.0,0.0,0.0,0.0,0.0,0.0,0.0,0.0,0.0,0.0,0.0,0.0,0.0,0.0,0.0,0.0,0.0,0.9895,1.1653,1.302,1.3507,1.3849,1.4032,1.3923,1.4197,1.3731,1.2165,0.0,0.0,0.0,0.0,0.0,0.0,0.0,0.0,0.0,0.0,0.0,0.0,0.0,0.0,0.0,0.0,0.0,0.0,0.0,0.0,0.0,0.0,0.0,0.0,0.0,0.0,0.0,0.0,0.0,0.0,0.0,0.0,0.0,0.0,0.0,0.0,0.0,0.0,0.0,0.0,0.0,0.0,0.0,0.0,0.0,0.0,0.0,0.0,0.0,0.0,0.0,0.0,0.0,0.0,0.0,0.0,0.0,0.0,0.0,0.0,0.0,0.0,0.0,0.0,0.0,0.0,0.0,0.0,0.0,0.0,0.0,0.0,0.0,0.0,0.0,0.0,0.0,0.0,0.0,0.0,0.0,0.0,0.0,0.0,0.0,0.0,0.0,0.0,0.0,0.0,0.0,0.0,0.0,0.0,0.0,0.0,0.0,0.0,0.0,0.0,0.0,0.0,1.0562,1.2078,1.3359,1.4102,1.4337,1.4361,1.4205,1.4574,1.4089,1.2416,0.0,0.0,0.0,0.0,0.0,0.0,0.0,0.0,0.0,0.0,0.0,0.0,0.0,0.0,0.0,0.0,0.0,0.0,0.0,0.0,0.0,0.0,0.0,0.0,0.0,0.0,0.0,0.0,0.0,0.0,0.0,0.0,0.0,0.0,0.0,0.0,0.0,0.0,0.0,0.0,0.0,0.0,0.0,0.0,0.0,0.0,0.0,0.0,0.0,0.0,0.0,0.0,0.0,0.0,0.0,0.0,0.0,0.0,0.0,0.0,0.789,0.7558,0.0,0.0,0.0,0.0,0.0,0.0,0.0,0.0,0.0,0.0,0.0,0.0,0.0,0.0,0.0,0.0,0.0,0.0,0.0,0.0,0.0,0.0,0.0,0.0,0.0,0.0,0.0,0.0,0.0,0.0,0.0,0.0,0.0,0.0,0.0,0.0,0.0,0.0,0.0,0.0,1.0443,1.2445,1.4015,1.46,1.5053,1.52,1.4901,1.5196,1.4771,1.332,1.3078,0.0,0.0,0.0,0.0,0.0,0.0,0.0,0.0,0.0,0.0,0.0,0.0,0.0,0.0,0.0,0.0,0.0,0.0,0.0,0.0,0.0,0.0,0.0,0.0,0.0,0.0,0.0,0.0,0.0,0.0,0.0,0.0,0.0,0.0,0.0,0.0,0.0,0.0,0.0,0.0,0.0,0.0,0.0,0.0,0.0,0.0,0.0,0.0,0.0,0.0,0.0,0.0,0.0,0.0,0.0,0.0,0.0,0.0,0.0,0.8878,0.8437,0.0,0.0,0.0,0.0,0.0,0.0,0.0,0.0,0.0,0.0,0.0,0.0,0.0,0.0,0.0,0.0,0.0,0.0,0.0,0.0,0.0,0.0,0.0,0.0,0.0,0.0,0.0,0.0,0.0,0.0,0.0,0.0,0.0,0.0,0.0,0.0,0.0,0.0,0.0,0.0,1.1149,1.3227,1.482,1.5278,1.541,1.5427,1.525,1.5497,1.5267,1.4377,1.3986,0.0,0.0,0.0,0.0,0.0,0.0,0.0,0.0,0.0,0.0,0.0,0.0,0.0,0.0,0.0,0.0,0.0,0.0,0.0,0.0,0.0,0.0,0.0,0.0,0.0,0.0,0.0,0.0,0.0,0.0,0.0,0.0,0.0,0.0,0.0,0.0,0.0,0.0,0.0,0.0,0.0,0.0,0.0,0.0,0.0,0.0,0.0,0.0,0.0,0.0,0.0,0.0,0.0,1.032,1.0408,1.0711,1.0579,1.0647,1.0871,0.9938,0.9446,0.9323,0.8942,0.0,0.0,0.0,0.0,0.0,0.0,0.0,0.0,0.0,0.0,0.0,0.0,0.0,0.0,0.0,0.0,0.0,0.0,0.0,0.0,0.0,0.0,1.0725,1.0946,1.1413,1.1573,1.0564,0.0,0.0,0.0,0.0,0.0,0.0,0.0,0.0,0.0,0.0,0.0,1.1967,1.4103,1.5646,1.5959,1.5827,1.5716,1.5559,1.5745,1.5663,1.5173,1.4749,1.4233,0.0,0.0,0.0,0.0,0.0,0.0,0.0,0.0,0.0,0.0,0.0,0.0,0.0,0.0,0.0,0.0,0.0,0.0,0.0,0.0,0.0,0.0,0.0,0.0,0.0,0.0,0.0,0.0,0.0,0.0,0.0,0.0,1.3354,1.4192,0.0,0.0,0.0,0.0,0.0,0.0,0.0,0.0,0.0,0.0,0.0,0.0,0.0,1.0595,1.1459,1.1012,1.1124,1.1748,1.1034,1.1038,1.1628,1.1429,1.1533,1.182,1.1668,0.0,1.0694,1.0193,0.0,0.0,0.0,0.0,0.0,0.0,0.0,0.0,0.0,0.0,0.0,0.0,0.0,0.0,0.0,0.0,0.0,0.0,0.0,0.0,0.0,0.0,1.1795,1.2155,1.293,1.346,1.3064,1.1792,1.0715,1.0877,1.0498,1.0107,0.0,0.0,0.0,0.0,0.0,0.0,1.2105,1.4536,1.6206,1.6254,1.6774,1.6876,1.6253,1.6466,1.6158,1.4936,1.4828,1.4626,1.4208,1.3607,0.0,0.0,0.0,0.0,0.0,0.0,0.0,0.0,0.0,0.0,0.0,0.0,0.0,0.0,0.0,0.0,0.0,0.0,0.0,0.0,0.0,0.0,0.0,0.0,0.0,0.0,0.0,0.0,0.0,1.3464,1.3979,1.4243,1.3687,1.3121,0.0,0.0,0.0,0.0,0.0,0.0,0.0,0.0,0.0,1.15,1.1317,1.134,1.1645,1.151,1.1482,1.1606,1.1457,1.1453,1.1619,1.1729,1.1941,1.2277,1.2277,1.2221,1.2019,1.1207,1.0841,1.0664,0.0,0.0,0.0,0.0,0.9121,0.975,0.9806,1.0222,1.0729,1.0588,0.0,0.0,0.0,0.0,0.0,0.0,0.0,1.0532,1.0793,1.1748,1.2634,1.2693,1.325,1.3745,1.3745,1.3112,1.2508,1.2399,1.2393,1.2277,1.1816,1.1842,0.0,0.0,0.0,1.3797,1.4143,1.5964,1.7192,1.7104,1.7303,1.7271,1.6843,1.6834,1.6616,1.602,1.5686,1.5334,1.4995,1.4356,1.3818,0.0,0.0,0.0,0.0,0.0,0.0,0.0,0.0,0.0,0.0,0.0,0.0,0.0,0.0,0.0,0.0,0.0,0.0,0.0,0.0,0.0,0.0,0.0,0.0,0.0,0.0,0.0,0.0,1.4109,1.4463,1.4315,1.3923,1.3549,0.0,0.0,0.0,0.0,0.0,0.0,1.2225,1.2555,1.2518,1.203,1.1962,1.1874,1.1719,1.1808,1.1743,1.161,1.1736,1.1871,1.2013,1.2212,1.253,1.2899,1.2827,1.2876,1.2894,1.1996,1.1614,1.1517,1.0784,1.0482,1.0398,1.0052,1.0456,1.1183,1.136,1.191,1.2497,1.2237,1.193,1.1615,1.1055,0.0,0.0,0.0,0.0,1.1645,1.1631,1.2554,1.3413,1.3214,1.3713,1.4261,1.4301,1.446,1.4462,1.385,1.4006,1.403,1.3537,1.3751,0.0,1.3286,1.445,1.5515,1.5807,1.7117,1.7951,1.7902,1.7775,1.7617,1.7375,1.7215,1.6985,1.6754,1.6264,1.5872,1.5544,1.4932,1.438,1.3868,0.0,0.0,0.0,0.0,0.0,0.0,0.0,0.0,0.0,0.0,0.0,0.0,0.0,0.0,0.0,0.0,0.0,0.0,0.0,0.0,0.0,0.0,0.0,0.0,0.0,0.0,0.0,0.0,0.0,1.4856,1.4398,0.0,0.0,0.0,0.0,1.2962,1.3383,1.3469,1.3058,1.2885,1.267,1.2375,1.2184,1.2184,1.2354,1.2061,1.2077,1.2434,1.2017,1.2357,1.3382,1.3215,1.3439,1.3893,1.3705,1.3465,1.3135,1.2443,1.205,1.1832,1.1496,1.1274,1.1165,1.1465,1.193,1.241,1.2504,1.2826,1.3145,1.264,1.1982,1.143,1.1608,1.1526,0.0,0.0,1.2371,1.2584,1.2752,1.3534,1.4177,1.4007,1.4974,1.5869,1.5433,1.597,1.6193,1.4985,1.4756,1.4804,1.4881,0.0,1.4466,1.4255,1.4903,1.5604,1.6114,1.7246,1.8072,1.8362,1.8345,1.8188,1.7791,1.7721,1.7292,1.6398,1.6119,1.591,1.5692,1.5005,1.4867,1.5386,1.4514,0.0,0.0,0.0,0.0,0.0,0.0,0.0,0.0,0.0,0.0,0.0,0.0,0.0,0.0,0.0,0.0,0.0,0.0,0.0,0.0,0.0,0.0,0.0,0.0,0.0,0.0,0.0,0.0,1.4859,1.4617,0.0,1.3844,1.354,1.341,1.3373,1.3619,1.3596,1.3255,1.3362,1.3199,1.2732,1.2514,1.2322,1.2068,1.195,1.2006,1.2178,1.2451,1.2888,1.3499,1.3637,1.3835,1.3967,1.3688,1.3491,1.3375,1.2998,1.2666,1.2356,1.2211,1.2063,1.1883,1.1732,1.2166,1.2718,1.2355,1.2641,1.3158,1.2713,1.2516,1.2492,1.2718,1.2783,1.2907,1.3394,1.3518,1.3523,1.3581,1.4389,1.5185,1.5129,1.5924,1.664,1.6468,1.6558,1.6618,1.6324,1.6269,1.6198,1.6013,1.6301,1.6522,1.6335,1.6871,1.7436,1.7787,1.8316,1.8643,1.8612,1.8723,1.8621,1.821,1.7994,1.7494,1.6627,1.6814,1.651,1.5414,1.5521,1.5371,1.4943,1.4131,1.3548,0.0,0.0,0.0,0.0,0.0,0.0,0.0,0.0,0.0,0.0,0.0,0.0,0.0,0.0,0.0,0.0,0.0,0.0,0.0,0.0,0.0,0.0,0.0,0.0,0.0,1.5249,1.5219,1.4924,1.4878,1.4719,1.43,1.3937,1.3715,1.3674,1.3816,1.3711,1.3332,1.3503,1.3346,1.2826,1.2503,1.2257,1.2061,1.2059,1.2248,1.2627,1.3028,1.3509,1.4052,1.4199,1.4198,1.4088,1.391,1.3697,1.3492,1.3346,1.3083,1.2776,1.2563,1.234,1.2108,1.1755,1.2047,1.257,1.2487,1.2845,1.336,1.3063,1.3037,1.3186,1.3488,1.3663,1.3805,1.4155,1.4212,1.4225,1.4241,1.5034,1.585,1.5835,1.6583,1.7253,1.692,1.7041,1.7269,1.7146,1.692,1.675,1.6885,1.7159,1.7396,1.7578,1.8,1.8362,1.8652,1.8772,1.8843,1.8882,1.8891,1.8803,1.8523,1.8039,1.7402,1.6596,1.6975,1.662,1.5255,1.5781,1.5677,1.4708,1.3989,1.3463,1.3182,0.0,0.0,0.0,0.0,0.0,0.0,0.0,0.0,0.0,0.0,0.0,0.0,0.0,0.0,0.0,0.0,0.0,0.0,0.0,0.0,0.0,0.0,0.0,1.4901,1.5273,1.5495,1.513,1.5129,1.5002,1.4609,1.4438,1.4198,1.3812,1.4009,1.3884,1.3327,1.3251,1.3039,1.2622,1.2168,1.2084,1.2382,1.2351,1.2828,1.3789,1.3689,1.4133,1.5126,1.4801,1.4559,1.4321,1.4427,1.4115,1.3492,1.3492,1.3382,1.3127,1.2464,1.2097,1.1886,1.1639,1.1737,1.2156,1.2991,1.3493,1.3792,1.3722,1.3566,1.3484,1.3832,1.4041,1.4223,1.4282,1.4441,1.4586,1.467,1.5413,1.6124,1.6124,1.7123,1.7768,1.6794,1.7519,1.8169,1.7381,1.6531,1.6301,1.7511,1.7118,1.6971,1.7859,1.804,0.0,1.866,1.8523,1.8634,1.9222,1.8962,1.874,1.87,1.7828,1.6989,1.6379,1.6616,1.6298,1.5287,1.5798,1.573,1.4904,1.4172,1.3827,1.3903,0.0,0.0,0.0,0.0,0.0,0.0,0.0,0.0,0.0,0.0,0.0,0.0,0.0,0.0,0.0,0.0,0.0,0.0,0.0,0.0,0.0,1.5365,1.543,1.5329,1.5733,1.5689,1.4725,1.4612,1.4372,1.3789,1.3785,1.3781,1.3654,1.406,1.4135,1.3699,1.3629,1.3353,1.2678,1.2516,1.2371,1.2274,1.2572,1.3086,1.3796,1.4013,1.46,1.5431,1.4712,1.45,1.4643,1.4036,1.366,1.3492,1.3492,1.3455,1.3375,1.2882,1.2585,1.2396,1.2315,1.2461,1.2698,1.3107,1.3345,1.352,1.3492,1.374,1.4088,1.4339,1.4441,1.4503,1.4669,1.4485,1.4288,1.45,1.5482,1.6501,1.6669,1.7746,1.8647,1.8373,1.8483,1.8505,1.8143,1.7409,1.7136,1.8043,1.8026,1.7992,1.8264,1.8563,1.8763,1.8882,1.8993,1.9073,1.9073,1.9112,1.9073,1.8922,1.8676,1.8225,1.7509,1.7894,1.7643,1.6484,1.6583,1.616,1.506,1.4211,1.3892,0.0,0.0,0.0,0.0,0.0,0.0,0.0,0.0,0.0,0.0,0.0,0.0,0.0,0.0,0.0,0.0,0.0,0.0,0.0,0.0,0.0,0.0,1.5528,1.5654,1.544,1.5762,1.5746,1.494,1.4779,1.4504,1.3862,1.3816,1.3729,1.3557,1.3983,1.4047,1.3603,1.3704,1.3375,1.2586,1.2577,1.25,1.2414,1.2778,1.3411,1.4335,1.4478,1.5011,1.584,1.514,1.4872,1.4894,1.4214,1.3821,1.3689,1.355,1.3492,1.3448,0.0,0.0,0.0,0.0,1.2699,1.3006,1.3215,1.3519,1.3791,1.3864,1.4197,1.4639,1.4964,1.5015,1.4974,1.5179,1.4958,1.4699,1.4834,1.5838,1.6814,1.6902,1.7989,1.8917,1.858,1.8687,1.8718,1.8391,1.8066,0.0,1.8559,1.8214,1.8051,1.8456,1.8732,1.8882,1.9002,1.9042,1.9042,1.9002,1.9042,1.9002,1.8891,1.8587,0.0,0.0,0.0,1.7932,1.7303,1.6795,0.0,0.0,0.0,0.0,0.0,0.0,0.0,0.0,1.3006,1.2611,0.0,0.0,0.0,0.0,0.0,0.0,0.0,0.0,0.0,0.0,0.0,0.0,0.0,0.0,0.0,0.0,1.5838,1.6013,1.5476,1.5692,1.5787,1.5408,1.5211,1.4882,1.4316,1.4132,1.3897,1.3505,1.3821,1.3815,1.342,1.3571,0.0,0.0,0.0,1.2635,1.2699,1.2956,1.3785,1.5111,1.4964,1.5403,1.6222,1.5754,1.5363,1.5111,1.4656,1.4331,1.4028,1.3704,1.3564,1.3499,1.3042,1.2785,1.2607,1.2462,1.2764,1.3247,1.3397,0.0,0.0,1.4598,1.4801,1.5083,1.5527,1.5553,1.5413,1.5564,1.546,1.5279,1.5279,1.6111,1.6936,1.6936,1.7989,1.8815,1.8105,1.8504,1.8903,1.8395,1.854,1.8772,1.8962,1.8097,1.7716,1.8638,1.8772,1.8851,1.9042,1.8891,1.8851,1.9002,0.0,0.0,1.8772,1.8178,1.7776,1.7776,1.7748,1.7759,1.7762,1.6756,1.6244,1.6431,1.6274,1.6075,1.5836,1.5817,1.5311,1.4434,1.4265,1.3859,0.0,0.0,0.0,0.0,0.0,0.0,0.0,0.0,0.0,0.0,0.0,0.0,0.0,0.0,0.0,1.5197,1.5829,1.6191,1.5977,1.6326,1.6102,1.4771,1.4595,1.4247,1.3431,1.355,1.3618,1.3447,1.3834,1.4044,1.3959,1.3737,1.3381,1.29,1.2979,1.2978,1.2765,1.3374,1.4144,1.5111,1.5088,0.0,1.6562,1.5529,1.5149,1.5281,1.4537,1.4304,1.4471,1.4129,1.3891,1.371,1.3462,1.3331,1.3288,1.3295,1.3623,1.4067,1.394,1.4267,1.4779,1.4823,1.5149,1.5535,1.5484,1.5405,0.0,1.5109,1.4885,1.4655,1.4655,1.5667,1.6691,1.6691,1.788,1.8984,1.8815,1.9018,1.9164,1.8903,1.8908,1.8962,1.9002,1.882,1.8784,1.9134,1.9192,1.9271,1.9439,1.932,1.9192,1.9222,1.9222,1.9192,1.9192,1.9046,1.8955,1.8955,1.8667,1.821,1.7566,1.7333,1.7218,1.7256,1.6862,1.6671,1.6671,1.6397,1.5947,1.533,1.4463,1.3665,0.0,0.0,0.0,0.0,0.0,0.0,0.0,0.0,0.0,0.0,0.0,1.4346,1.4357,0.0,1.5171,1.5202,1.5536,1.579,1.5739,1.5878,1.5773,1.5155,1.4998,1.4649,1.3864,1.3757,1.3611,1.3433,1.3814,1.3998,1.3771,1.3888,1.3645,1.3008,1.3202,1.3174,1.2914,1.3386,1.4162,1.5248,1.5091,1.5562,1.6609,1.571,1.5336,1.5385,1.4771,1.4535,1.4584,1.4372,1.4141,1.3889,1.3889,1.3859,1.3775,1.3564,1.3881,1.4456,1.4425,1.4609,1.497,1.5375,1.5573,1.5733,1.5865,1.5801,1.5665,1.555,1.5397,1.527,1.5142,1.5972,1.6862,1.6862,1.7854,1.8851,1.8851,1.9073,1.9262,1.9152,1.9152,1.9192,1.928,1.928,1.932,1.9429,1.9429,1.9478,1.9597,1.9518,1.935,1.9152,1.9152,1.9152,1.9152,1.9311,1.935,1.9152,1.8962,1.8634,1.8123,1.7876,1.7789,1.7947,1.759,1.7431,1.7439,1.6968,1.6466,1.5888,1.5036,1.4285,0.0,0.0,0.0,0.0,0.0,0.0,0.0,1.4907,1.467,1.4677,1.4842,1.4905,1.479,1.5157,1.543,1.5264,1.526,1.5333,1.5491,1.5446,1.5506,1.575,1.5584,1.5181,1.4532,1.4164,1.3859,1.3502,1.388,1.3927,1.3542,1.3954,1.3889,1.3111,1.3312,1.3292,1.2978,1.3271,1.4025,1.5175,1.4993,1.543,1.6357,1.586,1.553,1.5333,1.519,1.4962,1.467,1.4812,1.4558,1.4122,1.4369,1.4366,1.4138,1.3829,1.4164,1.4759,1.4917,1.5036,1.5242,1.588,1.5997,1.5899,1.6229,1.6245,1.6087,1.6087,1.6046,1.5997,1.5906,1.6476,1.7139,1.7212,1.8,1.87,1.87,1.9002,1.9301,1.9301,1.9301,1.9341,1.9557,1.9631,1.9699,1.9734,1.9676,1.9676,1.9724,1.9645,1.9478,1.9161,1.9073,1.9033,1.9002,1.932,1.9359,1.8962,1.8962,1.8922,1.87,1.8282,1.8201,1.8402,1.8161,1.8,1.7951,1.7424,1.6831,1.6246,1.5656,1.4977,1.3499,1.3788,1.4387,1.5168,1.495,1.454,0.0,1.4782,1.4831,1.4345,1.4758,1.5139,1.499,1.5021,1.5137,1.5332,1.5341,1.5427,1.5794,1.6046,1.6069,1.576,1.5364,1.4954,1.4447,1.4525,1.4394,1.3884,1.3982,1.4074,1.4027,1.3981,1.3769,1.3377,1.3578,1.3412,1.2924,1.3364,1.3865,1.4416,1.4821,1.5179,1.5536,1.5382,1.5296,1.5267,1.5699,1.5514,1.503,1.5891,1.5539,1.4418,1.4954,1.4842,1.4388,1.4434,1.4797,1.527,1.5427,1.5703,1.6,1.6079,1.6203,1.6312,1.6162,1.6128,1.6087,1.6087,1.5914,1.5865,1.6443,1.6853,1.7172,1.7538,1.8201,1.87,1.87,1.9002,1.9301,1.9301,1.9301,1.9341,1.9557,1.9743,1.9944,2.0204,2.0029,1.9942,2.0186,1.9872,1.9566,1.9527,1.935,1.9183,1.9002,1.9192,1.9152,1.8772,1.8891,1.8922,1.87,1.8482,1.8362,1.8402,1.8161,1.791,1.774,1.7514,1.7049,1.6452,1.5863,1.5058,1.3779,1.4308,1.4859,1.5,1.5051,1.505,1.5107,1.4954,1.4693,1.4472,1.457,1.4626,1.4441,1.4586,1.4743,1.4852,1.4853,1.5013,1.5551,1.5587,1.5661,1.5841,1.5528,1.5115,1.4724,1.4624,1.4374,1.3872,1.3935,1.3917,1.3689,1.3733,1.3655,1.3392,1.3476,1.3383,1.301,1.3345,1.3814,1.4494,1.4787,1.5155,1.5576,1.5489,1.5461,1.5426,1.5526,1.5612,1.5599,1.6052,1.574,1.5072,1.5339,1.5124,1.4767,1.4766,1.5063,1.5496,1.5688,1.5919,1.6128,1.6368,1.6237,1.6064,1.6368,1.6294,1.6128,1.6245,1.6558,1.6919,1.7082,1.757,1.8055,1.8256,1.8665,1.9002,1.8891,1.9201,1.9429,1.9301,1.9301,1.9381,1.9715,2.0172,2.055,2.0788,2.051,2.0305,2.0293,2.0108,1.9912,1.9645,1.9429,1.9222,1.9002,1.9192,1.9231,1.9073,1.9112,1.9152,1.9033,1.8723,1.8523,1.8402,1.8402,1.8371,1.8282,1.7919,1.7563,1.7192,1.6452,1.559,1.4091,1.4525,1.4874,1.475,1.4917,1.513,1.5343,1.5002,1.4577,1.4463,1.4423,1.4322,1.4098,1.4297,1.4545,1.4654,1.4565,1.476,1.5501,1.5375,1.5405,1.6063,1.5896,1.5578,1.5115,1.4775,1.4401,1.3935,1.3987,1.3933,1.3736,1.377,1.3727,1.3634,1.3521,1.3349,1.3094,1.3307,1.3671,1.4279,1.4657,1.5018,1.5369,1.5489,1.5531,1.5531,1.5538,1.5659,1.5901,1.6176,1.6004,1.556,1.5733,1.5526,1.5183,1.5168,1.5398,1.5802,1.61,1.6273,1.6409,1.6566,1.6278,1.594,1.6229,1.6245,1.617,1.6402,1.709,1.774,1.7813,1.8296,1.8825,1.8904,1.9183,1.935,1.9112,1.9359,1.9557,1.9341,1.9341,1.9499,1.9824,2.0537,2.1105,2.121,2.1182,2.1091,2.0797,2.0593,2.028,1.9853,1.9543,1.9271,1.9002,1.9192,1.9301,1.9301,1.9341,1.9381,1.9381,1.9042,1.8732,1.8482,1.8612,1.866,1.8612,1.8331,1.799,1.763,1.6924,1.6087,1.4323,1.4118,1.4085,1.4639,1.4413,1.4197,1.479,1.4746,1.4521,1.4183,1.436,1.4515,1.4243,1.4357,1.4654,1.5098,1.4803,1.4881,1.6021,1.5707,1.5648,1.6416,1.6527,1.6263,1.5539,1.512,1.4677,1.4119,1.4258,1.443,1.4462,1.4229,1.413,1.4191,1.3838,1.3483,1.3094,1.3307,1.3398,1.3459,1.4222,1.4574,1.4543,1.5059,1.5322,1.5342,1.585,1.5885,1.57,1.66,1.6487,1.5775,1.6266,1.6099,1.5591,1.5806,1.594,1.6196,1.6837,1.7082,1.7017,1.6558,1.6394,1.627,1.5643,1.5741,1.617,1.6574,1.7172,1.7902,1.8714,1.8962,1.9082,1.9478,1.9566,1.9557,1.9341,1.9429,1.9557,1.9341,1.9478,1.9676,1.9863,2.0776,2.1433,2.1218,2.2058,2.2525,2.1936,2.1293,2.0709,2.0323,1.9888,1.9439,1.9042,1.9192,1.9301,1.9301,1.9478,1.9597,1.9597,1.939,1.9112,1.87,1.87,1.8612,1.8402,1.8571,1.8262,1.7501,1.7061,1.6397,1.403,1.3983,1.389,1.4072,1.4188,1.4321,1.4624,1.4649,1.4439,1.3873,1.4199,1.4459,1.403,1.4309,1.4725,1.5029,1.5177,1.5423,1.5944,1.61,1.6281,1.6532,1.6491,1.6105,1.5372,1.548,1.5298,1.4501,1.4539,1.4614,1.4633,1.4496,1.4438,1.4448,1.4174,1.3888,1.3585,1.3572,1.361,1.3616,1.4456,1.4974,1.516,1.5352,1.5445,1.5451,1.5631,1.5812,1.6023,1.6331,1.6289,1.6042,1.6352,1.6197,1.5892,1.6195,1.6285,1.6278,1.6188,1.6353,1.6558,1.6105,1.594,1.6023,1.6394,1.6599,1.6845,1.757,1.8327,1.9045,1.9481,1.9736,1.9951,2.0216,2.0147,1.9951,1.9597,1.9794,1.9951,1.9548,1.9666,1.9863,2.0108,2.1159,2.2091,2.2476,2.2464,2.2332,2.2142,2.1565,2.105,2.0728,1.9909,1.935,1.9222,1.9152,1.9192,1.9478,1.9557,1.9764,2.0029,1.9715,1.932,1.8922,1.8891,1.8812,1.8612,1.8812,1.8557,1.7895,1.7616,1.6931,1.3948,1.3934,1.3815,1.3807,1.3976,1.4232,1.4378,1.4396,1.4223,1.3712,1.3897,1.403,1.3648,1.4091,1.4597,1.4843,1.5343,1.582,1.6178,1.649,1.6796,1.7099,1.6946,1.6513,1.5828,1.6093,1.5765,1.4529,1.4566,1.4695,1.4812,1.4699,1.4682,1.4877,1.4652,1.4315,1.3942,1.3996,1.4095,1.42,1.4847,1.5318,1.5588,1.5588,1.5588,1.5588,1.5588,1.5784,1.6076,1.6177,1.6163,1.608,1.6222,1.6135,1.5987,1.6139,1.6297,1.6394,1.6229,1.6394,1.6558,1.6031,1.5982,1.6221,1.6591,1.6992,1.7521,1.8207,1.9045,1.9766,2.0001,2.0206,2.0459,2.0566,2.0489,2.0303,1.9912,2.0069,2.0186,1.9794,1.9912,2.0108,2.0264,2.1289,2.2425,2.3422,2.293,2.2383,2.2225,2.1922,2.1512,2.0959,2.024,1.9626,1.932,1.9192,1.9231,1.9566,1.9606,1.9764,2.0029,1.9764,1.9399,1.9002,1.9002,1.8891,1.87,1.8891,1.8747,1.8226,1.8141,1.7593,1.4082,1.3876,1.376,1.3768,1.3768,1.3814,1.3967,1.3939,1.3818,1.3598,1.3427,1.3285,1.3251,1.3762,1.4339,1.4686,1.5405,1.6118,1.6685,1.6847,1.7195,1.7922,1.778,1.7364,1.6758,1.67,1.6,1.4235,1.4369,1.4656,1.4968,1.4752,1.4897,1.5411,1.5182,1.4761,1.4257,1.4505,1.4786,1.5114,1.5305,1.5538,1.5758,1.5758,1.5758,1.5758,1.5758,1.5771,1.5832,1.6076,1.6,1.5798,1.5932,1.5958,1.5883,1.5777,1.6023,1.6525,1.6951,1.7115,1.6976,1.6335,1.6525,1.6911,1.6329,1.7058,1.8158,1.8559,1.9292,1.9981,2.0264,2.045,2.0605,2.0605,2.0605,2.0527,2.0342,2.0303,2.0225,1.9981,2.0137,2.0313,2.0371,2.1238,2.2409,2.3874,2.3416,2.2752,2.2294,2.2352,2.2045,2.1007,2.0709,2.0257,1.9417,1.9341,1.9429,1.9636,1.9606,1.9645,1.9645,1.9606,1.9399,1.9042,1.9002,1.8882,1.87,1.8882,1.8764,1.8386,1.8599,1.8381,1.4001,1.3708,1.3317,1.3092,1.3247,1.3344,1.2976,1.3212,1.3412,1.3089,1.3263,1.3564,1.3618,1.4088,1.4567,1.5,1.5652,1.6102,1.6127,1.656,1.688,1.6757,1.6643,1.6274,1.5529,1.5699,1.5333,1.4102,1.4636,1.496,1.4862,1.5113,1.5403,1.5671,1.5438,1.5251,1.5086,1.494,1.5058,1.5305,1.5398,1.5338,1.5219,1.5219,1.5219,1.5219,1.5219,1.5437,1.5778,1.5689,1.5712,1.5693,1.5476,1.5695,1.6104,1.6035,1.6492,1.718,1.7407,1.7201,1.673,1.6443,1.6886,1.757,1.7925,1.8559,1.9283,1.9736,2.0137,2.045,2.0702,2.0654,2.0644,2.078,2.0693,2.0527,2.0342,2.042,2.045,2.0225,2.0372,2.0664,2.1184,2.1757,2.2243,2.2627,2.2804,2.2914,2.2962,2.2287,2.1657,2.1181,2.069,2.0222,1.9794,1.9745,1.9863,2.0108,1.9951,1.9981,2.0333,1.9872,1.9557,1.9448,1.9011,1.874,1.87,1.874,1.8655,1.8386,1.8599,1.8457,1.373,1.3382,1.2913,1.2947,1.3046,1.3006,1.2773,1.2942,1.3065,1.2764,1.2866,1.3099,1.3348,1.3915,1.4508,1.4902,1.5813,1.6379,1.6183,1.6652,1.7036,1.7085,1.6805,1.6501,1.6245,1.6065,1.549,1.4462,1.4719,1.4847,1.4731,1.5094,1.5362,1.5499,1.553,1.5585,1.5585,1.5297,1.5237,1.5398,1.5398,1.5278,1.5015,1.5015,1.5133,1.5345,1.5252,1.5392,1.5785,1.5544,1.5529,1.5617,1.548,1.5907,1.6533,1.6554,1.6976,1.7539,1.754,1.7401,1.7245,1.7104,1.7622,1.8345,1.8736,1.9411,2.0128,2.0459,2.0654,2.078,2.0867,2.0741,2.0644,2.0731,2.0615,2.045,2.0459,2.0372,2.0294,2.0303,2.045,2.082,2.158,2.1829,2.1977,2.2298,2.2296,2.2325,2.2449,2.2016,2.1628,2.1381,2.0907,2.0378,1.9921,1.9902,1.9942,2.0098,1.9981,2.002,2.0294,1.9942,1.9676,1.9606,1.9091,1.8772,1.87,1.8612,1.8545,1.853,1.8825,1.8852,1.3455,1.3078,1.2699,1.3105,1.3005,1.2832,1.2931,1.2814,1.2664,1.2582,1.2387,1.2359,1.281,1.3553,1.4293,1.4742,1.5898,1.6661,1.6476,1.6806,1.7243,1.7732,1.7235,1.7052,1.7491,1.6825,1.5943,1.495,1.4652,1.4495,1.4551,1.4822,1.5003,1.5172,1.5547,1.5784,1.5784,1.5538,1.5398,1.5444,1.5403,1.5281,1.5037,1.5037,1.5275,1.5657,1.5421,1.5474,1.5664,1.5501,1.5521,1.5569,1.5855,1.6412,1.7106,1.7163,1.7449,1.7816,1.772,1.7914,1.8164,1.8028,1.8492,1.9073,1.9134,1.9844,2.0693,2.0867,2.0906,2.0906,2.0906,2.0741,2.0605,2.0605,2.0459,2.0381,2.0566,2.0294,2.0059,2.0303,2.0489,2.0888,2.1639,2.167,2.179,2.2331,2.195,2.16,2.166,2.1746,2.1685,2.1481,2.1123,2.0659,2.0048,2.002,2.002,2.002,2.002,1.9981,1.9981,1.9942,1.9824,1.9636,1.924,1.8922,1.8732,1.8523,1.8523,1.874,1.9112,1.9301,1.3608,1.3419,1.31,1.3096,1.3043,1.2897,1.2625,1.2264,1.2037,1.2309,1.2059,1.2,1.2697,1.3342,1.4145,1.5268,1.5936,1.628,1.6245,1.6233,1.6181,1.613,1.5867,1.5794,1.6053,1.5746,1.5309,1.4768,1.4477,1.4351,1.4341,1.459,1.4972,1.5397,1.5493,1.5635,1.5784,1.5538,1.549,1.5628,1.5429,1.5239,1.5156,1.5156,1.5147,1.5041,1.499,1.499,1.5004,1.5578,1.5872,1.5948,1.6423,1.7091,1.7729,1.7579,1.7913,1.8495,1.898,1.9124,1.8993,1.8463,1.8847,1.9518,1.9706,2.0264,2.0867,2.0906,2.0906,2.0906,2.0906,2.0741,2.0605,2.0605,2.0566,2.0566,2.0605,2.0527,2.0489,2.0527,2.0693,2.0887,2.1044,2.1628,2.2048,2.192,2.1989,2.2199,2.2514,2.168,2.0987,2.0801,2.085,2.0781,2.0489,2.0625,2.0751,2.0751,2.0576,2.0489,2.0489,2.0098,1.9863,1.9863,1.946,1.9152,1.8962,1.8732,1.8772,1.8962,1.9002,1.924,1.3455,1.336,1.3253,1.3296,1.3101,1.2871,1.2795,1.2304,1.1931,1.2027,1.1799,1.1825,1.2555,1.3261,1.4017,1.4971,1.5775,1.6121,1.5623,1.5918,1.6015,1.5634,1.5664,1.5761,1.5936,1.5662,1.5299,1.4944,1.4552,1.4265,1.4248,1.4539,1.4864,1.5277,1.5414,1.5642,1.5981,1.5731,1.5593,1.5708,1.5403,1.5135,1.4958,1.4958,1.5056,1.5267,1.5007,1.5007,1.5274,1.5647,1.6059,1.6419,1.7046,1.7738,1.8452,1.8133,1.8419,1.8975,1.9047,1.9237,1.939,1.9121,1.9439,1.999,2.0216,2.0654,2.1061,2.1061,2.1061,2.1022,2.0945,2.0741,2.0644,2.0731,2.0848,2.0848,2.0498,2.0615,2.0693,2.0489,2.0615,2.0819,2.1012,2.1386,2.1683,2.1673,2.1751,2.1871,2.1967,2.135,2.0995,2.1243,2.1035,2.0867,2.078,2.0829,2.0945,2.1061,2.0974,2.0858,2.078,2.0537,2.0303,2.0098,1.9784,1.9469,1.9152,1.9073,1.9002,1.9002,1.9311,1.9469,1.3288,1.3343,1.3427,1.3579,1.3305,1.2965,1.2972,1.24,1.1855,1.1668,1.1434,1.144,1.2122,1.2926,1.3758,1.4534,1.5546,1.5925,1.5251,1.5606,1.5847,1.5541,1.5685,1.599,1.6403,1.606,1.5657,1.5348,1.4809,1.4428,1.4381,1.4665,1.499,1.5219,1.5483,1.5798,1.6169,1.5867,1.5729,1.5754,1.5373,1.5064,1.4866,1.4866,1.5092,1.5462,1.504,1.5041,1.5404,1.583,1.6281,1.6847,1.7698,1.8518,1.9168,1.8847,1.9039,1.9399,1.9168,1.9393,1.9764,1.9794,2.0069,2.0381,2.0566,2.0925,2.1244,2.1244,2.1244,2.1244,2.1061,2.0886,2.077,2.0945,2.1099,2.1089,2.0586,2.0702,2.079,2.0508,2.0576,2.0848,2.1167,2.1282,2.1397,2.154,2.154,2.1512,2.1359,2.1167,2.1191,2.1698,2.1183,2.0867,2.0906,2.0945,2.1022,2.1167,2.1205,2.1099,2.0906,2.0867,2.0664,2.0303,2.0098,1.9784,1.942,1.9381,1.9311,1.9201,1.9627,1.9706,1.3346,1.36,1.3815,1.4014,1.3786,1.3397,1.2928,1.2151,1.1475,1.1149,1.0717,1.0564,1.1056,1.2056,1.3198,1.4411,1.5119,1.5512,1.5613,1.5121,1.4947,1.5536,1.5357,1.572,1.7165,1.677,1.6292,1.602,1.5418,1.501,1.5,1.5242,1.545,1.5642,1.5946,1.6114,1.6123,1.5861,1.5782,1.5976,1.5376,1.5202,1.5347,1.5347,1.5278,1.5132,1.4825,1.4712,1.4799,1.6088,1.6718,1.704,1.8563,1.942,1.9788,1.9798,1.9798,1.987,2.0217,2.0294,2.0264,2.045,2.0527,2.0566,2.0605,2.0992,2.1474,2.1474,2.1474,2.1474,2.1464,2.132,2.1167,2.1167,2.1167,2.1167,2.1128,2.0984,2.0867,2.0867,2.1022,2.1167,2.1205,2.1502,2.1769,2.1769,2.1769,2.1769,2.1731,2.1578,2.1407,2.1265,2.0867,2.0693,2.0867,2.1061,2.1167,2.1205,2.1205,2.1099,2.0906,2.0731,2.0527,2.0303,2.0264,2.0147,1.9824,1.9676,1.9676,1.9824,1.9676,1.9715,1.2773,1.3164,1.3559,1.3509,1.3477,1.324,1.2552,1.2016,1.1483,1.0771,1.0701,1.0967,1.1551,1.2162,1.305,1.4441,1.4885,1.5032,1.4991,1.5001,1.5137,1.5436,1.5475,1.5842,1.6806,1.6641,1.6357,1.6126,1.5687,1.5753,1.6398,1.6332,1.642,1.6675,1.6786,1.6933,1.7035,1.6464,1.6213,1.6234,1.5799,1.5571,1.5582,1.5465,1.5382,1.5284,1.5033,1.4714,1.4399,1.6031,1.6733,1.6944,1.8653,1.9561,1.9878,1.9768,1.9888,2.0157,2.0148,2.0281,2.0489,2.0741,2.0858,2.0964,2.0964,2.1195,2.1502,2.1502,2.1502,2.1474,2.1359,2.1359,2.1397,2.1397,2.1474,2.154,2.1397,2.132,2.1244,2.1089,2.1138,2.1244,2.1359,2.1502,2.1655,2.1769,2.1807,2.1807,2.1807,2.1617,2.1436,2.1205,2.1051,2.1012,2.1051,2.1244,2.1436,2.154,2.154,2.1474,2.1282,2.1079,2.0858,2.0673,2.0537,2.0381,2.0147,2.0177,2.0098,1.9902,2.0098,2.0098,1.226,1.2662,1.3138,1.3123,1.306,1.28,1.21,1.1712,1.1296,1.0597,1.0699,1.113,1.1954,1.2404,1.3077,1.4293,1.4621,1.4717,1.4642,1.4838,1.5094,1.5451,1.5619,1.5996,1.669,1.6677,1.6631,1.6543,1.6314,1.6617,1.753,1.7494,1.745,1.7402,1.7481,1.7608,1.778,1.7099,1.678,1.68,1.6344,1.6099,1.5982,1.5989,1.5812,1.5461,1.5584,1.5097,1.4277,1.6261,1.6988,1.6961,1.8786,1.9706,1.9981,1.9872,2.0029,2.0372,2.0177,2.0411,2.0809,2.0858,2.1138,2.1359,2.1244,2.1397,2.1578,2.1578,2.1578,2.154,2.1397,2.1464,2.1578,2.1578,2.1693,2.1769,2.1617,2.154,2.1474,2.1397,2.132,2.1359,2.154,2.1578,2.1655,2.1769,2.1807,2.1807,2.1807,2.1617,2.1436,2.132,2.1282,2.1244,2.1215,2.1397,2.1617,2.1883,2.1845,2.1731,2.1578,2.1359,2.1099,2.0906,2.078,2.0576,2.0381,2.0576,2.0537,2.0225,2.0615,2.0527,1.1967,1.2292,1.2706,1.3028,1.2713,1.2182,1.1631,1.1142,1.0761,1.0629,1.0506,1.0764,1.1887,1.2636,1.3277,1.3893,1.428,1.4606,1.4942,1.4532,1.4563,1.5572,1.5692,1.6079,1.7003,1.7212,1.7363,1.7558,1.7459,1.7612,1.8159,1.8552,1.844,1.7636,1.7903,1.8057,1.7981,1.7601,1.7517,1.7763,1.703,1.6697,1.6697,1.7164,1.6726,1.5663,1.6569,1.5939,1.4404,1.6949,1.7581,1.7197,1.9145,2.0059,2.0303,2.0303,2.042,2.0605,2.0605,2.0848,2.1167,2.0945,2.132,2.1731,2.132,2.1464,2.1807,2.1807,2.1807,2.1807,2.1807,2.1807,2.1807,2.1807,2.1807,2.1807,2.1807,2.1655,2.154,2.1769,2.1617,2.154,2.1769,2.1807,2.1807,2.1807,2.1807,2.1807,2.1807,2.1617,2.1502,2.1502,2.1502,2.1436,2.1205,2.1397,2.1655,2.2063,2.1921,2.1807,2.1807,2.1397,2.1099,2.0906,2.0906,2.0819,2.0605,2.0819,2.0906,2.0906,2.1099,2.0964,1.1709,1.2041,1.2406,1.2539,1.2377,1.2028,1.1489,1.1079,1.0734,1.056,1.0863,1.1404,1.2226,1.2764,1.3392,1.4264,1.4257,1.4382,1.498,1.4772,1.4947,1.6042,1.6811,1.7186,1.7183,1.7376,1.758,1.7793,1.7629,1.7825,1.8455,1.8441,1.8616,1.8943,1.8632,1.8414,1.8393,1.7873,1.7616,1.7576,1.7241,1.7243,1.7561,1.744,1.7333,1.7257,1.7277,1.6516,1.542,1.7247,1.7719,1.7414,1.9044,2.0029,2.0489,2.0489,2.0615,2.0819,2.0819,2.0974,2.1167,2.0984,2.1128,2.1397,2.1397,2.1578,2.1807,2.1807,2.1807,2.1807,2.1807,2.1807,2.1807,2.1807,2.1807,2.1807,2.1807,2.1769,2.1769,2.1959,2.1959,2.1911,2.1987,2.1987,2.1949,2.1807,2.1807,2.1807,2.1807,2.1845,2.1807,2.154,2.1731,2.1845,2.1617,2.1807,2.2025,2.2289,2.2252,2.2214,2.2214,2.1807,2.1578,2.1512,2.1244,2.1089,2.1002,2.1089,2.1099,2.1099,2.1167,2.1041,1.1226,1.1466,1.1744,1.1894,1.1754,1.1497,1.1129,1.0756,1.0559,1.0733,1.1091,1.1727,1.2834,1.3251,1.3718,1.4533,1.4564,1.4646,1.5111,1.5245,1.563,1.6651,1.7048,1.7303,1.7462,1.7532,1.7697,1.7963,1.8016,1.8149,1.8423,1.8547,1.8786,1.915,1.8978,1.8929,1.901,1.8611,1.8443,1.8499,1.8096,1.8082,1.8487,1.8407,1.8249,1.8083,1.8095,1.7373,0.0,1.7846,1.8239,1.7999,1.9439,2.0216,2.0605,2.0605,2.0693,2.0819,2.0867,2.1022,2.1167,2.1128,2.1177,2.1244,2.1436,2.1655,2.1769,2.1693,2.1731,2.1769,2.1693,2.1731,2.1807,2.1807,2.1807,2.1807,2.1883,2.1911,2.1997,2.2289,2.2252,2.2252,2.2327,2.2252,2.2138,2.1949,2.1911,2.1883,2.1807,2.1997,2.1987,2.1769,2.2111,2.2327,2.2252,2.2214,2.2365,2.2703,2.259,2.2515,2.2515,2.2214,2.1987,2.1911,2.1578,2.1397,2.132,2.1397,2.1474,2.154,2.154,2.1415,0.0,1.0708,1.0923,1.1244,1.1008,1.069,1.0647,1.0287,0.0,1.1032,1.12,1.1729,1.3449,1.3904,1.4188,1.4669,1.5055,1.5324,1.536,1.5848,1.6491,1.7247,1.6638,1.6588,1.7704,1.7695,1.7754,1.8027,1.8508,1.8603,1.8137,1.8733,1.8879,1.8425,1.9052,1.9501,1.9668,1.9488,1.9636,2.0066,1.9282,1.904,1.9295,1.9698,1.9307,1.8398,1.8992,1.8411,1.7116,1.8649,1.9014,1.8787,2.0091,2.0605,2.0605,2.0605,2.0605,2.0644,2.0858,2.1051,2.1244,2.1436,2.1359,2.1244,2.1436,2.1617,2.1693,2.154,2.1655,2.1731,2.1589,2.1655,2.1807,2.1807,2.1807,2.1883,2.2063,2.2101,2.2252,2.2628,2.2553,2.2478,2.2665,2.2553,2.2365,2.2138,2.2101,2.2063,2.1883,2.2025,2.2149,2.2101,2.2478,2.2815,2.3001,2.2665,2.2703,2.3261,2.2964,2.274,2.2703,2.2515,2.2327,2.2138,2.1959,2.1769,2.154,2.1769,2.1959,2.2101,2.2101,2.1987,1.0159,0.0,1.1354,1.1439,1.1111,1.0806,0.0,1.0453,1.0172,1.0837,1.1217,1.1642,1.2334,1.3387,1.4188,1.432,1.4874,1.5463,1.6004,1.626,1.6509,1.6773,1.68,1.6841,1.6954,1.7573,1.7924,1.773,1.8367,1.8709,1.8473,1.8784,1.8854,1.865,1.9247,1.9483,1.9307,1.8892,1.8791,1.9058,1.8517,1.8626,1.9286,1.9401,1.9668,1.9975,1.9191,1.8889,1.9014,1.8897,1.9076,1.9505,2.014,2.045,2.0605,2.0605,2.0693,2.0867,2.1061,2.1177,2.1205,2.1244,2.1359,2.1397,2.132,2.1205,2.1205,2.1617,2.1655,2.1589,2.1693,2.1769,2.1845,2.1987,2.2035,2.2063,2.2289,2.2327,2.2402,2.2665,2.2665,2.2628,2.2703,2.2665,2.2553,2.2365,2.2327,2.2327,2.2252,2.244,2.2515,2.2327,2.2815,2.3187,2.3224,2.315,2.315,2.3298,2.3224,2.3075,2.2927,2.274,2.2628,2.2553,2.2365,2.2252,2.2176,2.2252,2.2289,2.2327,2.2327,2.2214,1.0411,1.0706,1.1045,1.1045,1.0865,1.0677,1.0756,1.0449,1.0308,1.0871,1.115,1.1593,1.249,1.3359,1.4121,1.4711,1.5118,1.5671,1.6451,1.6449,1.6541,1.7058,1.6814,1.6684,1.6879,1.745,1.7647,1.7291,1.8175,1.8576,1.8117,1.8734,1.8896,1.8434,1.9101,1.948,1.9506,1.9325,1.9392,1.9708,1.9247,1.9354,1.988,1.988,2.0159,2.0518,1.9239,1.9229,2.0033,1.9087,1.9239,2.0139,2.0362,2.0489,2.0605,2.0693,2.0741,2.0809,2.1089,2.1244,2.1359,2.1359,2.1397,2.1474,2.1244,2.1128,2.1099,2.1425,2.1502,2.154,2.1617,2.1731,2.1845,2.2063,2.2101,2.2176,2.2478,2.2553,2.2628,2.2927,2.2964,2.2964,2.2964,2.2964,2.2889,2.259,2.2553,2.2515,2.2402,2.259,2.2703,2.2665,2.315,2.3482,2.3556,2.3677,2.3666,2.3593,2.3482,2.3372,2.3298,2.3075,2.2889,2.2703,2.259,2.2478,2.2402,2.2478,2.2553,2.2553,2.2553,2.244,1.0896,1.0794,1.0616,1.0539,1.0547,1.0573,1.0573,1.0484,1.0576,1.1056,1.1226,1.172,1.3092,1.3609,1.4216,1.5374,1.5734,1.6083,1.6799,1.656,1.6674,1.7515,1.6799,1.6418,1.6888,1.7228,1.7265,1.6915,1.8025,1.8364,1.764,1.8623,1.8893,1.8201,1.8882,1.9454,1.9903,1.9959,2.0172,2.0541,2.0159,2.0101,2.0371,2.041,2.0478,2.0518,1.9343,0.0,2.0508,1.9286,1.9505,2.0605,2.0605,2.0605,2.0605,2.078,2.0741,2.0644,2.1051,2.132,2.1502,2.1502,2.1512,2.1502,2.1282,2.1205,2.1244,2.1205,2.1359,2.1502,2.1502,2.1655,2.1883,2.2101,2.2176,2.2289,2.2665,2.274,2.2852,2.3187,2.3261,2.3261,2.3261,2.3261,2.315,2.2815,2.274,2.2665,2.2515,2.2628,2.2815,2.3038,2.3372,2.3677,2.3897,2.408,2.4127,2.397,2.3751,2.3641,2.3593,2.3446,2.3187,2.2852,2.2815,2.2703,2.2553,2.2665,2.274,2.274,2.274,2.2628,1.1049,1.1167,1.1251,1.0769,1.0744,1.0845,1.0845,1.0954,1.1129,1.1307,1.1816,1.2391,1.3037,1.4079,1.5072,1.5739,1.675,1.7312,1.686,1.6949,1.708,1.717,1.6763,1.6387,1.6185,1.6921,1.7265,1.6915,1.7966,1.8424,1.8032,1.8499,1.8732,1.8592,1.8891,1.9315,1.9879,1.925,1.8957,1.9041,1.8566,1.8682,1.9234,1.9409,1.992,2.0537,0.0,1.9803,2.0527,1.965,1.9812,2.0605,2.0605,2.0605,2.0605,2.0644,2.0644,2.0644,2.0858,2.1167,2.1502,2.1502,2.1617,2.1693,2.132,2.132,2.1436,2.1244,2.1359,2.1502,2.1502,2.1769,2.2101,2.2327,2.2478,2.2665,2.2889,2.2964,2.2964,2.3038,2.3038,2.3038,2.3038,2.3038,2.3038,2.2964,2.2964,2.2927,2.2927,2.2927,2.3038,2.3224,2.3446,2.3677,2.3897,2.408,2.42,2.4164,2.397,2.3787,2.3604,2.3556,2.3519,2.3446,2.3298,2.3187,2.315,2.3001,2.2964,2.2964,2.2964,2.2852,1.1623,1.1635,1.1563,1.117,1.1116,1.1218,1.1434,1.1554,1.165,1.1705,1.2265,1.292,1.3554,1.4577,1.5495,1.6044,1.7261,1.7849,1.7104,1.731,1.7438,1.7183,1.7006,1.6664,1.6117,1.6816,1.7183,1.6927,1.7798,1.8276,1.8216,1.8514,1.8689,1.8632,1.8841,1.9162,1.958,1.9284,1.9221,1.9349,1.911,1.9175,1.948,1.9592,1.9933,2.0391,0.0,1.9669,2.0382,1.9573,1.9621,2.0244,2.0507,2.0458,2.0244,2.0517,2.0722,2.0925,2.0906,2.1022,2.1205,2.132,2.1474,2.1578,2.1282,2.1436,2.1617,2.1282,2.1359,2.154,2.1617,2.1883,2.2138,2.2365,2.2628,2.2889,2.2964,2.315,2.3335,2.3335,2.3335,2.3372,2.3482,2.3298,2.315,2.315,2.3075,2.3001,2.3001,2.3075,2.3224,2.3446,2.3629,2.3824,2.4043,2.4164,2.42,2.42,2.4116,2.397,2.3787,2.3751,2.3714,2.3593,2.3519,2.3446,2.3446,2.3261,2.315,2.315,2.3038,2.2889,1.2003,1.192,1.1785,1.162,1.1509,1.1542,1.1897,1.2112,1.2265,1.2351,1.2964,1.3705,1.4501,1.5471,1.6263,1.6535,1.781,1.8488,1.7658,1.7852,1.7969,1.7737,1.7547,1.7145,1.6487,1.6981,1.7211,1.6995,1.7747,1.8148,1.8056,1.8416,1.8526,1.8356,1.862,1.8914,1.9131,1.9393,1.961,1.9766,1.9668,1.9631,1.9766,1.9766,1.9992,2.0323,1.9649,1.9773,2.0313,1.9639,1.9659,2.0098,2.0478,2.04,2.0107,2.0478,2.0799,2.1051,2.0945,2.0906,2.0945,2.1128,2.1359,2.1474,2.1244,2.1464,2.1731,2.1436,2.1464,2.1617,2.1769,2.2025,2.2289,2.244,2.274,2.3001,2.3001,2.3298,2.353,2.3482,2.3482,2.3556,2.3666,2.3482,2.3298,2.3224,2.315,2.3075,2.3075,2.3187,2.3409,2.3629,2.3824,2.397,2.4189,2.4164,2.4127,2.4127,2.4164,2.4152,2.4043,2.4007,2.3934,2.3824,2.3714,2.3666,2.3666,2.3482,2.3372,2.3372,2.3224,2.3038,1.1797,1.1804,1.1918,1.2108,1.1854,1.1649,1.1858,1.243,1.3028,1.3421,1.4221,1.5092,1.5815,1.7165,1.8008,1.7504,1.8759,1.951,1.8704,1.8779,1.8979,1.914,1.85,1.7872,1.7424,1.7558,1.7539,1.7216,1.7985,1.8115,1.7317,1.793,1.812,1.7586,1.8142,1.8505,1.8646,1.9282,1.9508,1.9326,1.889,1.8909,1.9336,1.9336,1.9785,2.0566,2.0313,2.0352,2.0566,2.0304,2.0372,2.0556,2.0595,2.0586,2.0556,2.0595,2.0605,2.0683,2.0829,2.0906,2.0945,2.1128,2.1359,2.1474,2.1244,2.1464,2.1807,2.1769,2.1769,2.1769,2.1807,2.2225,2.2665,2.2665,2.2852,2.3001,2.3001,2.315,2.3261,2.3075,2.3187,2.3261,2.3075,2.3187,2.3224,2.3038,2.315,2.3298,2.3298,2.3298,2.3446,2.3824,2.3897,2.397,2.4189,2.4043,2.3934,2.3934,2.4091,2.4273,2.4454,2.4273,2.4273,2.4418,2.408,2.3897,2.3897,2.3677,2.3593,2.3593,2.3556,2.3446,1.1758,1.2118,1.2502,1.2175,1.2487,1.2891,1.2798,1.342,1.4025,1.4087,1.5017,1.6117,1.7114,1.8109,1.8642,1.8249,1.9401,2.008,1.935,1.9457,1.9514,1.9139,1.8708,1.8236,1.7605,1.7667,1.7742,1.7702,1.7877,1.7978,1.7886,1.8032,1.8076,1.8008,1.8223,1.8542,1.8969,1.9208,1.9262,1.91,1.8746,1.8685,1.8851,1.916,1.9535,1.9975,1.9899,1.9908,1.9956,1.9629,1.9626,1.9832,2.0059,2.0409,2.078,2.0644,2.076,2.0964,2.0906,2.0984,2.1099,2.1177,2.1359,2.1512,2.1397,2.1578,2.1845,2.1959,2.2073,2.2176,2.2176,2.2327,2.2553,2.2665,2.2964,2.315,2.3038,2.3335,2.3567,2.3261,2.3335,2.3482,2.3556,2.3409,2.3372,2.3519,2.3519,2.3494,2.3494,2.3593,2.3751,2.3897,2.4007,2.408,2.4007,2.3934,2.3897,2.3897,2.397,2.4043,2.4116,2.4164,2.4236,2.4309,2.4152,2.4091,2.4091,2.3897,2.3787,2.3787,2.3677,2.3482,1.1629,1.2135,1.2604,1.2447,1.3031,1.3628,1.3605,1.4127,1.464,1.4546,1.5748,1.7078,1.7878,1.8645,1.9102,1.8903,1.9895,2.0512,2.0156,2.0221,2.013,1.9731,1.9314,1.8873,1.8377,1.83,1.8332,1.8411,1.8305,1.8319,1.8433,1.8468,1.8468,1.8433,1.8537,1.8799,1.9248,1.9224,1.9143,1.9004,1.8498,1.8414,1.8617,1.8945,1.9243,1.9502,1.9428,1.9505,1.9676,1.9387,1.9533,1.9913,2.0208,2.0581,2.0984,2.0848,2.0964,2.1167,2.1022,2.1099,2.1205,2.1205,2.1359,2.1502,2.1578,2.1693,2.1845,2.2101,2.2252,2.2327,2.2478,2.2553,2.2628,2.2777,2.3001,2.3187,2.3113,2.3409,2.3641,2.3335,2.3446,2.3629,2.3703,2.3604,2.3519,2.3677,2.3703,2.3666,2.3593,2.3787,2.3934,2.397,2.4116,2.4116,2.3934,2.3824,2.3824,2.3824,2.3861,2.397,2.4164,2.4189,2.4298,2.4478,2.4225,2.4164,2.4309,2.4043,2.3934,2.397,2.3861,2.3593,1.1433,1.1705,1.2139,1.3064,1.3413,1.3645,1.4089,1.4516,1.4795,1.4835,1.6472,1.7928,1.807,1.8869,1.9481,1.9492,2.0256,2.0886,2.1177,2.1026,2.096,2.1191,2.0426,1.9902,1.9902,1.9534,1.9297,1.9297,1.9438,1.9258,1.8719,1.9221,1.9258,1.8719,1.9095,1.9323,1.9323,1.9222,1.9154,1.8994,1.8085,1.7947,1.8598,1.8598,1.8867,1.9287,1.9078,1.9346,1.9902,1.9912,2.0404,2.1205,2.1205,2.1205,2.1205,2.1205,2.1205,2.1205,2.1205,2.1205,2.1215,2.1215,2.1359,2.154,2.1731,2.1807,2.1883,2.2289,2.2252,2.2214,2.259,2.2852,2.3001,2.3001,2.3001,2.3038,2.3261,2.3298,2.3298,2.3298,2.3446,2.3519,2.3335,2.3641,2.3751,2.3372,2.3629,2.3824,2.3641,2.3787,2.397,2.4189,2.42,2.4116,2.3897,2.3714,2.3593,2.3593,2.3787,2.4164,2.4754,2.4418,2.4478,2.5087,2.4322,2.4091,2.449,2.408,2.4007,2.4189,2.4189,2.3861,1.1377,1.2272,1.3322,1.3294,1.4239,1.5039,1.442,1.4926,1.5692,1.629,1.7222,1.8009,1.8394,1.8944,1.9591,2.0226,2.0845,2.1334,2.1578,2.1461,2.1301,2.1221,2.0712,2.0411,2.0411,2.009,1.9912,1.9912,1.9843,1.9667,1.935,1.963,1.963,1.934,1.9604,1.9713,1.9713,1.969,1.9656,1.962,1.9349,1.8839,1.8159,1.8159,1.8393,1.8848,1.9223,1.9429,1.9492,1.9934,2.0377,2.082,2.1094,2.1205,2.1205,2.1205,2.1282,2.1397,2.1397,2.1502,2.1617,2.1617,2.1769,2.1911,2.1987,2.2101,2.2289,2.2553,2.2553,2.259,2.2852,2.2964,2.3001,2.3001,2.3001,2.3001,2.3075,2.3298,2.3482,2.3335,2.3567,2.3787,2.3751,2.3703,2.3714,2.3714,2.3703,2.3714,2.3787,2.397,2.4116,2.4189,2.3934,2.3751,2.3677,2.3372,2.3224,2.3372,2.3593,2.3897,2.4345,2.4538,2.4718,2.4897,2.4381,2.4164,2.4309,2.3897,2.3714,2.3787,2.3787,2.3677,1.1655,1.2732,1.3977,1.4136,1.5011,1.5646,1.4984,1.5147,1.5704,1.6505,1.7301,1.8002,1.8541,1.8988,1.9634,2.0842,2.1213,2.1541,2.1963,2.1775,2.1519,2.1287,2.0819,2.0502,2.0502,2.0524,2.043,2.0186,2.0404,2.0347,1.9845,2.0115,2.0205,2.0009,2.0121,2.0232,2.0316,2.0172,2.0165,2.0165,1.9874,1.9404,1.875,1.875,1.8898,1.9166,1.9756,1.9956,1.9986,2.0601,2.0971,2.121,2.1552,2.1693,2.1693,2.1693,2.1769,2.1845,2.1769,2.1883,2.2035,2.1959,2.2073,2.2214,2.2327,2.2365,2.244,2.2628,2.2703,2.274,2.2852,2.2927,2.3001,2.3113,2.3113,2.315,2.3335,2.3494,2.3604,2.3567,2.3666,2.3824,2.3897,2.3787,2.3751,2.3897,2.3751,2.3629,2.3787,2.397,2.4043,2.397,2.3824,2.3629,2.3482,2.3261,2.3261,2.3641,2.3849,2.4213,2.4718,2.4706,2.4754,2.4921,2.437,2.4116,2.42,2.3714,2.3519,2.3593,2.3593,2.3519,1.2093,1.3094,1.4266,1.5195,1.5547,1.5666,1.5635,1.5304,1.5184,1.5821,1.6824,1.781,1.8458,1.8848,1.9609,2.123,2.1387,2.1567,2.235,2.2035,2.1653,2.1481,2.0922,2.0544,2.0431,2.0881,2.0855,2.0139,2.0873,2.1017,2.025,2.0647,2.0798,2.0624,2.0663,2.075,2.0924,2.0707,2.0619,2.0626,2.0017,1.9844,2.0076,1.9909,1.9909,2.001,2.0407,2.0731,2.1015,2.1566,2.1921,2.2101,2.2327,2.2402,2.2402,2.2402,2.2402,2.2365,2.2176,2.2252,2.2365,2.2176,2.2252,2.2478,2.2628,2.259,2.2478,2.2665,2.274,2.274,2.274,2.2889,2.3113,2.3298,2.3335,2.3409,2.3787,2.374,2.3677,2.3897,2.3787,2.3714,2.3934,2.3934,2.3897,2.3861,2.3714,2.3604,2.3629,2.3824,2.3897,2.3714,2.3849,2.3813,2.3471,2.3398,2.3629,2.4225,2.4419,2.4838,2.5571,2.4981,2.4814,2.5182,2.4431,2.4116,2.4334,2.374,2.3519,2.3703,2.3703,2.3519,1.2031,1.3098,1.4518,1.4736,1.5158,1.5566,1.5721,1.5358,1.5105,1.5463,1.5896,1.6504,1.742,1.7959,1.8936,2.1063,2.133,2.166,2.2722,2.2209,2.1726,2.1784,2.1858,2.1571,2.0701,2.1197,2.1136,2.0021,2.0137,2.0208,2.021,2.0498,2.0692,2.0747,2.1128,2.1214,2.1046,2.1377,2.1326,2.0977,2.1215,2.1339,2.1364,2.0032,1.9869,2.0669,2.0623,2.0978,2.1597,2.1586,2.1769,2.2101,2.2327,2.2402,2.2402,2.259,2.2553,2.2402,2.2365,2.2365,2.2402,2.2365,2.2478,2.2628,2.2703,2.2777,2.2889,2.2927,2.3038,2.315,2.315,2.3335,2.3519,2.3714,2.353,2.3372,2.3593,2.3751,2.3897,2.4091,2.4091,2.4116,2.4345,2.4116,2.3861,2.3677,2.3641,2.3677,2.3824,2.4152,2.4418,2.4538,2.4527,2.454,2.4612,2.4348,2.4276,2.4576,2.4802,2.5087,2.5571,2.5583,2.5723,2.5955,2.5347,2.5099,2.5288,2.4695,2.4432,2.4468,2.4468,2.4504,1.2319,1.349,1.5001,1.5525,1.5813,1.5924,1.5676,1.5233,1.4822,1.4751,1.5246,1.6042,1.7192,1.7728,1.8646,2.0705,2.1162,2.1494,2.2226,2.1898,2.1546,2.1522,2.135,2.1031,2.0465,2.0708,2.0547,1.9602,1.9854,1.9946,1.9717,2.007,2.0266,2.0319,2.0791,2.0951,2.0828,2.1391,2.1532,2.1305,2.1542,2.1655,2.1634,2.1062,2.1073,2.1605,2.1493,2.1703,2.2063,2.1949,2.1975,2.2062,2.2258,2.2342,2.2379,2.2563,2.2668,2.2665,2.259,2.2628,2.2665,2.259,2.2665,2.2852,2.2964,2.3075,2.315,2.3261,2.3372,2.3446,2.3446,2.3519,2.3641,2.3861,2.3751,2.3666,2.397,2.4116,2.4236,2.4309,2.4406,2.4467,2.4598,2.4586,2.4491,2.4299,2.4263,2.4263,2.4274,2.4527,2.4754,2.4754,2.4802,2.4862,2.4862,2.4671,2.4707,2.5123,2.5335,2.5652,2.6094,2.6314,2.6349,2.6198,2.5699,2.5488,2.5581,2.5004,2.4755,2.4826,2.4743,2.4743,1.2517,1.3717,1.5279,1.6363,1.6528,1.6262,1.5578,1.5118,1.4676,1.4206,1.4804,1.5786,1.7004,1.757,1.8467,2.0277,2.0872,2.1241,2.1644,2.153,2.1408,2.1319,2.0754,2.0325,2.026,2.0197,1.9834,1.9039,1.9551,1.9676,1.9157,1.9606,1.9887,1.9867,2.037,2.0609,2.0495,2.1117,2.1346,2.1193,2.1264,2.1353,2.1429,2.2019,2.2275,2.2237,2.2227,2.2232,2.2232,2.2232,2.2108,2.1934,2.2146,2.2248,2.2313,2.2529,2.279,2.2964,2.2815,2.2889,2.3038,2.2852,2.2927,2.315,2.3298,2.3335,2.3372,2.3593,2.3677,2.3714,2.3776,2.3813,2.3886,2.4105,2.4141,2.4225,2.449,2.4598,2.467,2.467,2.4778,2.4874,2.4885,2.5111,2.5229,2.5087,2.5016,2.4933,2.4826,2.4969,2.5087,2.4957,2.5146,2.5252,2.5111,2.5111,2.5288,2.5816,2.6013,2.6289,2.6782,2.6977,2.6863,2.6427,2.6025,2.5873,2.5884,2.5311,2.5146,2.53,2.5111,2.5004,1.1892,1.2937,1.4527,1.5704,1.6085,1.605,1.5658,1.5421,1.5155,1.4547,1.4549,1.4942,1.5939,1.6808,1.8065,2.011,2.0581,2.0995,2.1922,2.1767,2.1755,2.2173,2.1777,2.1296,2.0852,2.0525,1.9868,1.8681,1.866,1.8758,1.8832,1.9505,1.9959,2.0073,2.0897,2.107,2.0416,2.0906,2.0731,1.9947,2.0349,2.0725,2.1068,2.1615,2.1807,2.1702,2.1646,2.1604,2.1604,2.1604,2.1607,2.1588,2.1798,2.2037,2.2313,2.2543,2.2768,2.3001,2.2964,2.3075,2.3261,2.3224,2.3372,2.3519,2.3556,2.3567,2.3593,2.3787,2.397,2.4189,2.4479,2.4683,2.4874,2.5064,2.5099,2.504,2.4825,2.4981,2.5241,2.543,2.5465,2.543,2.5241,2.5276,2.5276,2.5264,2.5123,2.504,2.5194,2.5382,2.5629,2.5978,2.6289,2.6543,2.6692,2.6692,2.6726,2.6807,2.6841,2.6964,2.7201,2.7235,2.7268,2.7323,2.7011,2.6909,2.7053,2.6645,2.644,2.6474,2.6336,2.6267,1.2595,1.3352,1.4356,1.5184,1.559,1.5705,1.5473,1.5211,1.494,1.4676,1.4789,1.5263,1.6227,1.7197,1.836,1.9867,2.0591,2.105,2.1394,2.1466,2.1539,2.1703,2.1368,2.0949,2.0643,2.0026,1.9383,1.8728,1.8549,1.8583,1.8774,1.9127,1.9365,1.9527,2.021,2.039,2.0058,2.0503,2.0452,1.9919,2.0363,2.0715,2.0963,2.1379,2.1694,2.1901,2.2065,2.2137,2.2103,2.185,2.1706,2.1597,2.1865,2.1901,2.1931,2.2622,2.2877,2.2889,2.3224,2.3335,2.3335,2.3446,2.353,2.3677,2.4007,2.4116,2.4189,2.4563,2.4743,2.485,2.5016,2.5087,2.5194,2.5264,2.5465,2.5583,2.5454,2.5442,2.5594,2.5978,2.5886,2.5828,2.606,2.6025,2.5955,2.5955,2.5886,2.5873,2.5955,2.606,2.6198,2.644,2.6611,2.6794,2.6977,2.699,2.699,2.699,2.7113,2.7214,2.7302,2.7369,2.7436,2.749,2.7268,2.7235,2.7403,2.7032,2.693,2.7032,2.6875,2.6705,1.303,1.3486,1.396,1.4529,1.4995,1.5288,1.5207,1.5065,1.4983,1.4987,1.5345,1.5918,1.6888,1.7751,1.8683,1.979,2.0644,2.1197,2.1167,2.14,2.1572,2.1458,2.1003,2.0648,2.0532,1.9691,1.9075,1.8875,1.8741,1.8707,1.8875,1.8987,1.9116,1.9274,1.9754,1.9976,1.9837,2.0045,2.0044,1.9843,2.0289,2.0567,2.073,2.1174,2.1618,2.2003,2.2271,2.2372,2.235,2.2037,2.1788,2.157,2.1913,2.1899,2.1754,2.2639,2.2877,2.2815,2.3224,2.3372,2.3372,2.3482,2.3714,2.4007,2.4478,2.4658,2.4802,2.5324,2.5418,2.5382,2.55,2.5535,2.5523,2.5594,2.5816,2.6037,2.6037,2.5968,2.599,2.6393,2.6302,2.6327,2.6692,2.6692,2.6602,2.6555,2.6555,2.6521,2.6499,2.6499,2.6568,2.676,2.6794,2.6863,2.7045,2.7113,2.7113,2.7079,2.7235,2.7335,2.7335,2.7469,2.749,2.749,2.7403,2.7403,2.749,2.7214,2.7146,2.7302,2.7079,2.6909,1.2466,1.2707,1.2947,1.3608,1.4298,1.4818,1.4828,1.5305,1.5748,1.5823,1.6207,1.6782,1.7672,1.8098,1.8712,1.9977,2.0772,2.1342,2.1787,2.2037,2.2178,2.2159,2.1401,2.0879,2.0863,1.9927,1.9241,1.9108,1.9075,1.9075,1.9065,1.9523,1.9761,1.9761,2.0327,2.0439,1.9986,1.9567,1.9281,1.917,1.9679,1.9998,2.0172,2.1022,2.1509,2.1733,2.1737,2.1749,2.1749,2.1717,2.1588,2.1449,2.1788,2.1992,2.2112,2.2497,2.2768,2.2964,2.2815,2.3113,2.3556,2.3372,2.397,2.479,2.4921,2.5087,2.5347,2.5758,2.5723,2.5676,2.6062,2.6131,2.6201,2.6396,2.6465,2.6465,2.6465,2.6555,2.6645,2.6692,2.6829,2.6956,2.6977,2.699,2.6909,2.6726,2.6679,2.6658,2.6521,2.6499,2.6636,2.6956,2.6977,2.7079,2.7268,2.7403,2.7436,2.7302,2.7403,2.749,2.749,2.749,2.749,2.749,2.749,2.749,2.749,2.7335,2.7302,2.7302,2.7079,2.6977,1.2598,1.283,1.3212,1.338,1.3909,1.4403,1.4618,1.5003,1.5398,1.5754,1.6154,1.6648,1.7207,1.847,1.9732,2.0734,2.1469,2.1874,2.1849,2.1975,2.1868,2.1354,2.1244,2.098,2.0435,1.9954,1.9575,1.9254,1.9369,1.9401,1.9361,1.9551,1.966,1.966,1.9885,2.002,2.0072,1.991,1.9944,2.0248,2.0442,2.0796,2.1282,2.1565,2.1963,2.2328,2.1975,2.1788,2.1706,2.1781,2.1779,2.1795,2.2468,2.2571,2.244,2.33,2.329,2.2852,2.315,2.3482,2.3824,2.4007,2.4467,2.5004,2.543,2.5711,2.5943,2.6302,2.6452,2.6487,2.6521,2.6521,2.6521,2.6499,2.6555,2.6624,2.6624,2.6589,2.6636,2.6841,2.6773,2.6807,2.7146,2.6977,2.6841,2.6875,2.6679,2.653,2.6624,2.643,2.643,2.676,2.6909,2.7024,2.7113,2.7268,2.7302,2.7113,2.7146,2.7268,2.749,2.749,2.7636,2.7868,2.7756,2.7623,2.749,2.7469,2.7436,2.7436,2.7335,2.7268,1.2889,1.3041,1.3339,1.3165,1.3541,1.4002,1.4247,1.4731,1.5254,1.5598,1.6137,1.6695,1.7104,1.8566,1.9932,2.062,2.1414,2.1952,2.1964,2.1886,2.1591,2.0984,2.1027,2.0788,1.9942,1.9901,1.9771,1.9436,1.9522,1.9619,1.9637,1.9619,1.9638,1.9704,1.9813,1.9966,2.0215,2.0302,2.0539,2.0903,2.1051,2.1388,2.192,2.2075,2.2347,2.2678,2.2192,2.1944,2.1851,2.1757,2.1905,2.2236,2.287,2.3075,2.3088,2.3824,2.3714,2.3224,2.3519,2.3886,2.4286,2.4503,2.4993,2.5546,2.6025,2.6314,2.6521,2.6829,2.6897,2.6875,2.6726,2.6679,2.6692,2.6589,2.6658,2.6679,2.6679,2.6726,2.6794,2.6977,2.6875,2.6863,2.7235,2.71,2.6897,2.6909,2.6679,2.6508,2.6521,2.6339,2.6374,2.6863,2.6897,2.6943,2.7079,2.7146,2.7113,2.6909,2.7079,2.7268,2.749,2.7636,2.7848,2.8079,2.7967,2.7822,2.7703,2.757,2.749,2.749,2.749,2.7469,0.0,0.0,0.0,1.2889,1.321,1.3621,1.3684,1.4584,1.5404,1.5419,1.6204,1.7002,1.7422,1.8406,1.9237,1.9515,2.0474,2.1434,2.218,2.1832,2.1414,2.1111,2.0803,2.0308,1.9482,1.9727,1.9835,1.9649,1.9638,1.9704,1.9911,1.9736,1.9704,1.99,2.0237,2.041,2.041,2.0743,2.0935,2.0967,2.1408,2.171,2.1939,2.2482,2.272,2.2678,2.2352,2.2228,2.2154,2.1643,2.1917,2.2716,2.2893,2.3407,2.4026,2.3957,2.408,2.4152,2.3776,2.4238,2.4981,2.4791,2.5487,2.6427,2.6645,2.6841,2.7045,2.7248,2.7032,2.6714,2.6714,2.6714,2.6679,2.6679,2.6679,2.6726,2.6679,2.6998,2.7248,2.7024,2.7146,2.7302,2.7302,2.7302,2.7167,2.6782,2.6714,2.6589,2.627,2.6236,2.6512,2.7201,2.6964,2.6897,2.7235,2.7113,2.6909,2.6726,2.7188,2.749,2.749,2.7901,2.8112,2.8112,2.8112,2.8125,2.8106,2.7716,2.7503,2.7529,2.7516,2.7516,1.3672,0.0,0.0,0.0,0.0,0.0,1.3871,1.4566,1.5302,1.5694,1.6124,1.6638,1.7185,1.7546,1.7981,1.8692,1.9959,2.1051,2.1634,2.1751,2.1518,2.0824,2.129,2.1171,1.9898,2.0069,2.0212,2.012,2.0029,2.0105,2.039,2.0338,2.0226,2.0042,2.0367,2.0679,2.0978,2.142,2.1808,2.2204,2.2192,2.2396,2.2763,2.2726,2.28,2.2969,2.2543,2.2328,2.2333,2.219,2.2259,2.2614,2.3805,2.4293,2.4435,2.511,2.4945,2.4419,2.4407,2.4767,2.5194,2.5158,2.5721,2.6427,2.6521,2.6773,2.7024,2.7079,2.7167,2.7268,2.7167,2.693,2.6679,2.6679,2.6794,2.6875,2.6726,2.6897,2.7011,2.6829,2.6952,2.7154,2.739,2.7436,2.7469,2.7477,2.7188,2.6952,2.7011,2.6863,2.6782,2.6863,2.7255,2.7323,2.6884,2.7066,2.7146,2.6943,2.7053,2.731,2.7689,2.7967,2.821,2.8471,2.8314,2.8398,2.8685,2.8033,2.7946,2.8368,2.8219,2.7928,1.4389,1.4029,1.3861,1.3709,0.0,0.0,1.3863,1.4431,1.4948,1.5142,1.5539,1.5963,1.6361,1.6709,1.7125,1.7763,1.897,2.0168,2.1196,2.1307,2.1109,2.0578,2.1047,2.0984,1.989,2.0263,2.0587,2.0535,2.0606,2.0735,2.0927,2.1017,2.086,2.0464,2.0892,2.123,2.1411,2.1819,2.2223,2.2586,2.2451,2.2512,2.2726,2.2769,2.288,2.3004,2.2567,2.2582,2.2859,2.2867,2.2878,2.2934,2.3883,2.4606,2.5099,2.5281,2.5247,2.5194,2.5004,2.53,2.5756,2.5699,2.6186,2.6782,2.6726,2.6841,2.6998,2.7113,2.7214,2.7235,2.71,2.6897,2.6748,2.6918,2.6977,2.6977,2.6841,2.6909,2.6977,2.6964,2.6985,2.71,2.7423,2.7469,2.7423,2.7443,2.7276,2.7087,2.6952,2.6973,2.6973,2.6952,2.7268,2.7369,2.7053,2.7268,2.7302,2.7146,2.739,2.7676,2.7921,2.8164,2.8406,2.8587,2.872,2.8973,2.927,2.855,2.8428,2.8952,2.8834,2.8438,1.5233,1.4716,1.4359,1.4078,1.3963,0.0,1.3868,1.4249,1.4556,1.4326,1.4732,1.522,1.5377,1.5944,1.6531,1.6942,1.7883,1.9134,2.0797,2.072,2.0489,2.0443,2.0458,2.0289,1.976,2.0453,2.0942,2.1019,2.1305,2.1451,2.142,2.162,2.1494,2.0924,2.1545,2.1827,2.1683,2.203,2.2247,2.2389,2.2359,2.2297,2.2259,2.2635,2.2831,2.2867,2.2565,2.2834,2.3466,2.3525,2.3563,2.3578,2.3645,2.456,2.5732,2.4964,2.5303,2.606,2.5594,2.5826,2.6358,2.6233,2.6645,2.7167,2.6977,2.693,2.7007,2.7235,2.7146,2.6943,2.676,2.6726,2.6829,2.7167,2.7113,2.6943,2.6956,2.6943,2.7011,2.7235,2.7146,2.7146,2.7469,2.7436,2.7289,2.7142,2.7255,2.7154,2.662,2.6905,2.7188,2.7302,2.718,2.7214,2.7469,2.7523,2.749,2.7335,2.7941,2.8268,2.8145,2.8471,2.8651,2.8619,2.9238,2.9706,2.9917,2.9239,2.9013,2.9218,2.9284,2.8957,1.5649,1.5372,1.5186,1.4805,1.4711,0.0,1.4212,1.4492,1.4808,1.4702,1.4799,1.5007,1.5409,1.5541,1.5952,1.6982,1.7835,1.8871,2.0319,2.0527,2.0541,2.0646,2.0848,2.0829,2.044,2.0795,2.1247,2.1667,2.1765,2.1721,2.1553,2.1913,2.1788,2.1071,2.1482,2.1745,2.1683,2.1862,2.2111,2.2389,2.2142,2.2142,2.2359,2.234,2.2493,2.2733,2.2665,2.2879,2.3276,2.3712,2.39,2.3963,2.4568,2.5059,2.5463,2.5757,2.5806,2.5781,2.6082,2.622,2.622,2.6223,2.6383,2.653,2.6396,2.6533,2.6816,2.7201,2.7032,2.6794,2.6909,2.6943,2.6909,2.6829,2.6794,2.6726,2.6636,2.6602,2.6692,2.7019,2.7255,2.7436,2.749,2.7623,2.7756,2.7868,2.7769,2.7643,2.7543,2.7723,2.7736,2.7335,2.7649,2.7749,2.7369,2.7689,2.7776,2.7503,2.8151,2.8444,2.8268,2.8734,2.894,2.8748,2.9578,3.0258,3.0757,3.0317,2.9543,2.8603,2.9193,2.8907,1.6612,1.6048,1.5663,1.5698,1.5524,0.0,0.0,1.4843,1.488,1.4433,1.4356,1.441,1.466,1.5241,1.5899,1.6558,1.7434,1.8488,1.9728,2.0117,2.0292,2.0268,2.0435,2.0465,2.0225,2.0544,2.1115,2.1934,2.1995,2.2086,2.2249,2.2195,2.2019,2.1765,2.1932,2.2006,2.1956,2.203,2.2092,2.2142,2.2142,2.2142,2.2142,2.2235,2.2454,2.2684,2.2604,2.2839,2.3376,2.3805,2.4083,2.4324,2.4896,2.5384,2.5777,2.5845,2.6009,2.6164,2.6267,2.6371,2.6405,2.6154,2.628,2.6543,2.6349,2.6555,2.6863,2.685,2.6782,2.6714,2.6829,2.6807,2.6773,2.6841,2.676,2.6692,2.6624,2.6671,2.6773,2.685,2.7066,2.7335,2.759,2.749,2.7536,2.7901,2.7789,2.7623,2.7556,2.7789,2.7769,2.7335,2.7603,2.7703,2.7436,2.7802,2.802,2.7908,2.8346,2.8741,2.9125,2.9347,2.9668,3.0199,3.0423,3.0855,3.146,3.085,3.0205,2.9566,2.9799,2.9416,1.7658,1.6892,1.6305,1.6715,1.645,1.599,0.0,0.0,0.0,1.4462,1.4209,1.4152,1.4275,1.5081,1.581,1.6109,1.6886,1.7813,1.8817,1.9325,1.9618,1.9697,1.9796,1.9826,1.9768,2.0145,2.0794,2.179,2.1836,2.2043,2.2633,2.2334,2.2219,2.2396,2.2359,2.2297,2.2123,2.2123,2.2061,2.1968,2.2266,2.2266,2.203,2.2266,2.2496,2.2627,2.2459,2.2806,2.3582,2.386,2.4256,2.4697,2.4966,2.5487,2.6055,2.5732,2.5996,2.6521,2.6327,2.6396,2.6555,2.6176,2.6314,2.6645,2.653,2.6645,2.6739,2.6577,2.6577,2.6645,2.6658,2.6624,2.6636,2.6841,2.6794,2.6679,2.6692,2.6918,2.7062,2.6913,2.7028,2.7275,2.7583,2.7302,2.7214,2.7656,2.7656,2.7523,2.7403,2.7623,2.7689,2.7369,2.7436,2.7523,2.7603,2.798,2.8229,2.8365,2.8714,2.9227,2.9917,2.9943,3.0466,3.1576,3.1229,3.1317,3.1825,3.1146,3.0731,3.0588,3.0339,2.9819,1.8461,1.8078,1.7705,1.7954,1.7482,1.6994,1.7186,0.0,1.5955,1.5874,0.0,1.4989,1.564,0.0,0.0,1.6178,1.6272,1.6488,1.7253,1.7562,1.8139,1.9324,1.9413,1.9456,1.961,2.0053,2.0488,2.0911,2.0826,2.1077,2.1794,2.2124,2.2308,2.2408,2.2278,2.2123,2.1937,2.1819,2.1882,2.2154,2.2328,2.2389,2.2359,2.2389,2.2426,2.2413,2.2271,2.283,2.3773,2.3806,2.4372,2.5203,2.5147,2.5316,2.5638,2.561,2.5759,2.605,2.6361,2.6361,2.6305,2.6521,2.653,2.6483,2.6837,2.6508,2.6154,2.6773,2.6679,2.6461,2.6521,2.6739,2.6888,2.6636,2.6624,2.6692,2.6555,2.7037,2.7519,2.7519,2.7672,2.7635,2.7169,2.718,2.7335,2.749,2.7656,2.7756,2.7756,2.7776,2.7723,2.749,2.749,2.7636,2.8013,2.8341,2.8554,2.8554,2.9467,2.9928,2.9734,3.024,3.0808,3.1478,3.1344,3.1349,3.1553,3.1273,3.0799,3.0148,2.9726,2.9273,2.0907,2.0681,2.0319,1.9781,1.914,1.8364,1.7473,1.6747,1.6241,1.6123,0.0,0.0,0.0,0.0,0.0,0.0,1.6186,1.6479,1.7187,1.7087,1.7227,1.7972,1.8433,1.8769,1.9061,1.9313,1.9542,1.969,1.9654,2.0131,2.1291,2.1477,2.198,2.2962,2.2726,2.2586,2.2482,2.2408,2.2377,2.234,2.2574,2.2696,2.2696,2.2482,2.2451,2.2555,2.2309,2.2501,2.3054,2.3672,2.4214,2.4798,2.5487,2.5679,2.5616,2.5743,2.5921,2.6097,2.627,2.6327,2.6349,2.6405,2.6564,2.679,2.6939,2.7007,2.7019,2.7134,2.7066,2.6884,2.6692,2.6807,2.6943,2.6807,2.6841,2.6875,2.6807,2.702,2.7254,2.7254,2.7336,2.7293,2.7062,2.7079,2.7214,2.7469,2.749,2.7523,2.7623,2.7623,2.759,2.749,2.749,2.757,2.7736,2.7987,2.8363,2.8911,3.0435,3.1229,3.1114,3.1557,3.1928,3.2176,3.1591,3.1322,3.1379,3.106,3.0617,3.0037,2.9724,2.9405,2.31,2.2904,2.2374,2.1448,2.0694,1.9822,1.8449,1.7667,1.712,1.6766,1.6459,0.0,0.0,0.0,1.6269,1.627,0.0,1.6203,1.677,1.6494,1.6515,1.7261,1.7716,1.804,1.8214,1.8148,1.8122,1.8214,1.8371,1.8975,2.0193,2.0745,2.1637,2.2896,2.297,2.2939,2.2909,2.2939,2.2818,2.2543,2.2878,2.3,2.2927,2.2635,2.2574,2.2739,2.2463,2.2572,2.2982,2.3794,2.4361,2.4816,2.5753,2.5945,2.5711,2.5968,2.6154,2.627,2.627,2.6418,2.6577,2.6508,2.6782,2.7142,2.7276,2.7456,2.7623,2.7403,2.7302,2.7146,2.6863,2.693,2.7079,2.7024,2.7045,2.7079,2.7024,2.7173,2.7361,2.7516,2.7447,2.743,2.7516,2.7284,2.7146,2.7403,2.7403,2.7403,2.749,2.749,2.749,2.749,2.749,2.7556,2.7723,2.7908,2.8438,2.9375,3.0903,3.1792,3.1875,3.2329,3.2561,3.2561,3.1785,3.1379,3.1449,3.1035,3.0681,3.0391,3.0047,2.9711,2.4394,2.4057,2.3221,2.2673,2.1982,2.1332,2.0877,2.0015,1.9107,1.839,1.7516,1.7076,1.772,1.626,1.5435,1.6932,1.5968,0.0,0.0,1.5387,1.6006,1.7763,1.7576,1.7253,1.7077,1.6405,1.6118,1.6468,1.7019,1.7581,1.8068,2.0074,2.1374,2.1751,2.2615,2.3017,2.2909,2.3017,2.3017,2.2878,2.321,2.3271,2.3078,2.2818,2.2769,2.2878,2.2739,2.328,2.4251,2.4439,2.5036,2.5861,2.5898,2.591,2.5945,2.6327,2.6487,2.6499,2.6499,2.6705,2.7011,2.7201,2.7369,2.757,2.7947,2.7716,2.7335,2.7469,2.7268,2.7024,2.6977,2.7146,2.7248,2.7045,2.7146,2.7248,2.7045,2.7571,2.8252,2.8808,2.8634,2.8495,2.8879,2.804,2.7302,2.7302,2.7403,2.749,2.749,2.749,2.749,2.749,2.749,2.7723,2.8222,2.8444,2.8975,2.9936,3.0591,3.1041,3.1295,3.1892,3.2218,3.2218,3.1736,3.1597,3.1771,3.1362,3.1271,3.1443,3.0648,2.9969,0.0,0.0,2.6446,2.5369,2.4492,2.3633,2.2644,2.1923,2.1216,2.0457,2.0212,1.9771,1.8567,1.7695,1.704,1.665,1.5851,1.5314,0.0,1.5661,1.5913,1.613,1.6101,1.6161,1.6432,1.5838,1.5671,1.6229,1.6459,1.7075,1.82,1.9275,2.0522,2.1926,2.2364,2.2831,2.3348,2.3539,2.3539,2.336,2.3403,2.336,2.33,2.2969,2.2909,2.3017,2.2878,2.338,2.4268,2.4696,2.5365,2.6131,2.6497,2.6636,2.6602,2.6223,2.6188,2.6305,2.6305,2.6602,2.6985,2.6918,2.7369,2.7914,2.8046,2.8197,2.8229,2.7822,2.7776,2.7756,2.7302,2.7302,2.7436,2.7335,2.7369,2.7403,2.7335,2.796,2.8533,2.8599,2.8599,2.8602,2.8599,2.8067,2.7556,2.7335,2.7636,2.7802,2.7523,2.7736,2.7802,2.7536,2.8112,2.8392,2.8204,2.9286,3.0164,3.0591,3.1544,3.2109,3.2223,3.2429,3.2538,3.2538,3.1584,3.1337,3.1806,3.1416,3.1048,3.0723,3.0965,3.076,2.9849,2.933,0.0,2.7024,2.6145,2.5275,2.4025,2.3455,2.3002,2.2214,2.198,2.1469,2.0062,1.8867,1.7865,1.7225,1.6151,1.5389,0.0,1.5524,1.5484,1.5007,1.5229,1.5442,1.5551,1.5053,1.5029,1.5693,1.5942,1.6585,1.7772,1.8897,2.0085,2.1303,2.2256,2.2985,2.3554,2.3878,2.3953,2.3776,2.3569,2.345,2.3463,2.312,2.3078,2.3258,2.318,2.3687,2.4644,2.5046,2.5736,2.6511,2.6883,2.6943,2.6841,2.6349,2.6223,2.6339,2.6443,2.6705,2.7019,2.7121,2.7623,2.8197,2.8392,2.8522,2.8541,2.8105,2.8006,2.7908,2.7503,2.7436,2.749,2.749,2.7556,2.7689,2.7865,2.8217,2.8569,2.885,2.8701,2.8557,2.8599,2.8239,2.7842,2.7523,2.7835,2.798,2.7656,2.7921,2.8146,2.8046,2.8532,2.8758,2.8465,2.9728,3.0604,3.0677,3.1827,3.2435,3.2329,3.2486,3.2561,3.2538,3.1668,3.1516,3.2124,3.1804,3.1403,3.0945,3.124,3.1002]}]]